<?xml version='1.0' encoding='UTF-8'?>
<gpx version="1.1" creator="https://www.komoot.de" xmlns="http://www.topografix.com/GPX/1/1" xmlns:xsi="http://www.w3.org/2001/XMLSchema-instance" xsi:schemaLocation="http://www.topografix.com/GPX/1/1 http://www.topografix.com/GPX/1/1/gpx.xsd">
  <metadata>
    <name>Wanderung</name>
    <author>
      <link href="https://www.komoot.de">
        <text>komoot</text>
        <type>text/html</type>
      </link>
    </author>
  </metadata>
  <trk>
    <name>Wanderung</name>
    <trkseg>
      <trkpt lat="53.192192" lon="9.976831">
        <ele>65.308859</ele>
        <time>2019-08-28T08:56:16.151Z</time>
      </trkpt>
      <trkpt lat="53.192261" lon="9.976945">
        <ele>65.308859</ele>
        <time>2019-08-28T08:56:24.148Z</time>
      </trkpt>
      <trkpt lat="53.192327" lon="9.977055">
        <ele>65.308859</ele>
        <time>2019-08-28T08:56:33.149Z</time>
      </trkpt>
      <trkpt lat="53.192412" lon="9.977130">
        <ele>65.308859</ele>
        <time>2019-08-28T08:56:42.157Z</time>
      </trkpt>
      <trkpt lat="53.192495" lon="9.977218">
        <ele>65.308859</ele>
        <time>2019-08-28T08:56:53.146Z</time>
      </trkpt>
      <trkpt lat="53.192536" lon="9.977368">
        <ele>65.308859</ele>
        <time>2019-08-28T08:57:06.145Z</time>
      </trkpt>
      <trkpt lat="53.192556" lon="9.977516">
        <ele>65.308859</ele>
        <time>2019-08-28T08:57:13.149Z</time>
      </trkpt>
      <trkpt lat="53.192611" lon="9.977783">
        <ele>65.308859</ele>
        <time>2019-08-28T08:58:06.145Z</time>
      </trkpt>
      <trkpt lat="53.192629" lon="9.977932">
        <ele>65.308859</ele>
        <time>2019-08-28T08:58:15.150Z</time>
      </trkpt>
      <trkpt lat="53.192646" lon="9.978099">
        <ele>65.419734</ele>
        <time>2019-08-28T08:58:25.152Z</time>
      </trkpt>
      <trkpt lat="53.192707" lon="9.978242">
        <ele>65.735713</ele>
        <time>2019-08-28T08:58:32.145Z</time>
      </trkpt>
      <trkpt lat="53.192726" lon="9.978412">
        <ele>66.046994</ele>
        <time>2019-08-28T08:58:40.154Z</time>
      </trkpt>
      <trkpt lat="53.192740" lon="9.978593">
        <ele>66.375500</ele>
        <time>2019-08-28T08:58:47.155Z</time>
      </trkpt>
      <trkpt lat="53.192744" lon="9.978761">
        <ele>66.678140</ele>
        <time>2019-08-28T08:58:55.150Z</time>
      </trkpt>
      <trkpt lat="53.192717" lon="9.978910">
        <ele>66.958341</ele>
        <time>2019-08-28T08:59:01.151Z</time>
      </trkpt>
      <trkpt lat="53.192694" lon="9.979077">
        <ele>67.266783</ele>
        <time>2019-08-28T08:59:11.154Z</time>
      </trkpt>
      <trkpt lat="53.192663" lon="9.979231">
        <ele>67.559213</ele>
        <time>2019-08-28T08:59:22.150Z</time>
      </trkpt>
      <trkpt lat="53.192581" lon="9.979304">
        <ele>67.838426</ele>
        <time>2019-08-28T08:59:54.153Z</time>
      </trkpt>
      <trkpt lat="53.192508" lon="9.979404">
        <ele>68.122156</ele>
        <time>2019-08-28T09:00:07.149Z</time>
      </trkpt>
      <trkpt lat="53.192423" lon="9.979474">
        <ele>68.406923</ele>
        <time>2019-08-28T09:00:16.159Z</time>
      </trkpt>
      <trkpt lat="53.192346" lon="9.979563">
        <ele>68.688316</ele>
        <time>2019-08-28T09:00:22.158Z</time>
      </trkpt>
      <trkpt lat="53.192264" lon="9.979652">
        <ele>68.982184</ele>
        <time>2019-08-28T09:00:28.154Z</time>
      </trkpt>
      <trkpt lat="53.192170" lon="9.979707">
        <ele>69.281448</ele>
        <time>2019-08-28T09:00:35.153Z</time>
      </trkpt>
      <trkpt lat="53.192079" lon="9.979721">
        <ele>69.556007</ele>
        <time>2019-08-28T09:00:41.155Z</time>
      </trkpt>
      <trkpt lat="53.191975" lon="9.979690">
        <ele>69.873408</ele>
        <time>2019-08-28T09:00:50.153Z</time>
      </trkpt>
      <trkpt lat="53.191884" lon="9.979697">
        <ele>70.147099</ele>
        <time>2019-08-28T09:00:56.997Z</time>
      </trkpt>
      <trkpt lat="53.191794" lon="9.979668">
        <ele>70.422487</ele>
        <time>2019-08-28T09:01:04.998Z</time>
      </trkpt>
      <trkpt lat="53.191700" lon="9.979676">
        <ele>70.705268</ele>
        <time>2019-08-28T09:01:12.998Z</time>
      </trkpt>
      <trkpt lat="53.191605" lon="9.979700">
        <ele>70.724136</ele>
        <time>2019-08-28T09:01:19.998Z</time>
      </trkpt>
      <trkpt lat="53.191508" lon="9.979726">
        <ele>70.736137</ele>
        <time>2019-08-28T09:01:28.998Z</time>
      </trkpt>
      <trkpt lat="53.191420" lon="9.979779">
        <ele>70.747565</ele>
        <time>2019-08-28T09:01:35.998Z</time>
      </trkpt>
      <trkpt lat="53.191333" lon="9.979829">
        <ele>70.758806</ele>
        <time>2019-08-28T09:01:41.998Z</time>
      </trkpt>
      <trkpt lat="53.191242" lon="9.979885">
        <ele>70.770653</ele>
        <time>2019-08-28T09:01:49.998Z</time>
      </trkpt>
      <trkpt lat="53.191149" lon="9.979946">
        <ele>70.782860</ele>
        <time>2019-08-28T09:01:57.998Z</time>
      </trkpt>
      <trkpt lat="53.191052" lon="9.979982">
        <ele>70.794998</ele>
        <time>2019-08-28T09:02:06.998Z</time>
      </trkpt>
      <trkpt lat="53.190965" lon="9.980019">
        <ele>70.805966</ele>
        <time>2019-08-28T09:02:16.998Z</time>
      </trkpt>
      <trkpt lat="53.190874" lon="9.980022">
        <ele>70.817084</ele>
        <time>2019-08-28T09:02:23.997Z</time>
      </trkpt>
      <trkpt lat="53.190780" lon="9.980041">
        <ele>70.828651</ele>
        <time>2019-08-28T09:02:34.997Z</time>
      </trkpt>
      <trkpt lat="53.190694" lon="9.980102">
        <ele>70.840066</ele>
        <time>2019-08-28T09:02:40.997Z</time>
      </trkpt>
      <trkpt lat="53.190599" lon="9.980213">
        <ele>70.854232</ele>
        <time>2019-08-28T09:02:46.997Z</time>
      </trkpt>
      <trkpt lat="53.190543" lon="9.980349">
        <ele>70.866310</ele>
        <time>2019-08-28T09:02:57.997Z</time>
      </trkpt>
      <trkpt lat="53.190459" lon="9.980426">
        <ele>70.878017</ele>
        <time>2019-08-28T09:03:09.997Z</time>
      </trkpt>
      <trkpt lat="53.190373" lon="9.980501">
        <ele>70.889870</ele>
        <time>2019-08-28T09:03:16.997Z</time>
      </trkpt>
      <trkpt lat="53.190281" lon="9.980560">
        <ele>70.901910</ele>
        <time>2019-08-28T09:03:24.997Z</time>
      </trkpt>
      <trkpt lat="53.190206" lon="9.980671">
        <ele>70.914155</ele>
        <time>2019-08-28T09:03:31.997Z</time>
      </trkpt>
      <trkpt lat="53.190131" lon="9.980777">
        <ele>70.926160</ele>
        <time>2019-08-28T09:03:38.997Z</time>
      </trkpt>
      <trkpt lat="53.190052" lon="9.980876">
        <ele>70.745200</ele>
        <time>2019-08-28T09:03:47.997Z</time>
      </trkpt>
      <trkpt lat="53.189988" lon="9.981015">
        <ele>70.331721</ele>
        <time>2019-08-28T09:03:54.997Z</time>
      </trkpt>
      <trkpt lat="53.189907" lon="9.981114">
        <ele>69.936498</ele>
        <time>2019-08-28T09:04:04.997Z</time>
      </trkpt>
      <trkpt lat="53.189826" lon="9.981204">
        <ele>69.553433</ele>
        <time>2019-08-28T09:04:10.997Z</time>
      </trkpt>
      <trkpt lat="53.189743" lon="9.981307">
        <ele>69.146272</ele>
        <time>2019-08-28T09:04:16.997Z</time>
      </trkpt>
      <trkpt lat="53.189663" lon="9.981396">
        <ele>68.767791</ele>
        <time>2019-08-28T09:04:24.996Z</time>
      </trkpt>
      <trkpt lat="53.189607" lon="9.981530">
        <ele>68.382440</ele>
        <time>2019-08-28T09:04:33.996Z</time>
      </trkpt>
      <trkpt lat="53.189559" lon="9.981666">
        <ele>68.010141</ele>
        <time>2019-08-28T09:04:39.996Z</time>
      </trkpt>
      <trkpt lat="53.189520" lon="9.981822">
        <ele>67.611439</ele>
        <time>2019-08-28T09:04:47.996Z</time>
      </trkpt>
      <trkpt lat="53.189522" lon="9.981973">
        <ele>67.255188</ele>
        <time>2019-08-28T09:05:05.996Z</time>
      </trkpt>
      <trkpt lat="53.189467" lon="9.982098">
        <ele>66.889392</ele>
        <time>2019-08-28T09:05:11.996Z</time>
      </trkpt>
      <trkpt lat="53.189424" lon="9.982232">
        <ele>66.530851</ele>
        <time>2019-08-28T09:05:17.996Z</time>
      </trkpt>
      <trkpt lat="53.189380" lon="9.982384">
        <ele>66.132678</ele>
        <time>2019-08-28T09:05:25.996Z</time>
      </trkpt>
      <trkpt lat="53.189349" lon="9.982531">
        <ele>65.765099</ele>
        <time>2019-08-28T09:05:34.996Z</time>
      </trkpt>
      <trkpt lat="53.189306" lon="9.982676">
        <ele>65.383489</ele>
        <time>2019-08-28T09:05:42.996Z</time>
      </trkpt>
      <trkpt lat="53.189257" lon="9.982818">
        <ele>64.996978</ele>
        <time>2019-08-28T09:06:20.995Z</time>
      </trkpt>
      <trkpt lat="53.189233" lon="9.982978">
        <ele>64.607937</ele>
        <time>2019-08-28T09:06:28.995Z</time>
      </trkpt>
      <trkpt lat="53.189198" lon="9.983123">
        <ele>64.239213</ele>
        <time>2019-08-28T09:06:34.995Z</time>
      </trkpt>
      <trkpt lat="53.189165" lon="9.983287">
        <ele>63.851376</ele>
        <time>2019-08-28T09:06:41.995Z</time>
      </trkpt>
      <trkpt lat="53.189096" lon="9.983408">
        <ele>63.842175</ele>
        <time>2019-08-28T09:06:49.995Z</time>
      </trkpt>
      <trkpt lat="53.189064" lon="9.983563">
        <ele>63.833145</ele>
        <time>2019-08-28T09:06:58.995Z</time>
      </trkpt>
      <trkpt lat="53.189019" lon="9.983884">
        <ele>63.814987</ele>
        <time>2019-08-28T09:07:37.995Z</time>
      </trkpt>
      <trkpt lat="53.189048" lon="9.984033">
        <ele>63.806357</ele>
        <time>2019-08-28T09:07:50.995Z</time>
      </trkpt>
      <trkpt lat="53.188964" lon="9.984152">
        <ele>63.796229</ele>
        <time>2019-08-28T09:08:41.998Z</time>
      </trkpt>
      <trkpt lat="53.188912" lon="9.984285">
        <ele>63.787481</ele>
        <time>2019-08-28T09:08:48.998Z</time>
      </trkpt>
      <trkpt lat="53.188855" lon="9.984414">
        <ele>63.778653</ele>
        <time>2019-08-28T09:08:55.998Z</time>
      </trkpt>
      <trkpt lat="53.188801" lon="9.984551">
        <ele>63.769621</ele>
        <time>2019-08-28T09:09:02.998Z</time>
      </trkpt>
      <trkpt lat="53.188782" lon="9.984705">
        <ele>63.760960</ele>
        <time>2019-08-28T09:09:11.998Z</time>
      </trkpt>
      <trkpt lat="53.188738" lon="9.984854">
        <ele>63.751810</ele>
        <time>2019-08-28T09:09:17.998Z</time>
      </trkpt>
      <trkpt lat="53.188703" lon="9.985019">
        <ele>63.742169</ele>
        <time>2019-08-28T09:09:24.998Z</time>
      </trkpt>
      <trkpt lat="53.188672" lon="9.985173">
        <ele>63.733221</ele>
        <time>2019-08-28T09:09:32.999Z</time>
      </trkpt>
      <trkpt lat="53.188643" lon="9.985335">
        <ele>63.723908</ele>
        <time>2019-08-28T09:09:40.999Z</time>
      </trkpt>
      <trkpt lat="53.188588" lon="9.985471">
        <ele>63.714871</ele>
        <time>2019-08-28T09:09:47.998Z</time>
      </trkpt>
      <trkpt lat="53.188546" lon="9.985625">
        <ele>63.705551</ele>
        <time>2019-08-28T09:09:56.998Z</time>
      </trkpt>
      <trkpt lat="53.188534" lon="9.985783">
        <ele>63.696778</ele>
        <time>2019-08-28T09:10:03.998Z</time>
      </trkpt>
      <trkpt lat="53.188492" lon="9.985921">
        <ele>63.688253</ele>
        <time>2019-08-28T09:10:11.998Z</time>
      </trkpt>
      <trkpt lat="53.188455" lon="9.986074">
        <ele>63.485261</ele>
        <time>2019-08-28T09:10:18.998Z</time>
      </trkpt>
      <trkpt lat="53.188416" lon="9.986236">
        <ele>63.221967</ele>
        <time>2019-08-28T09:10:26.998Z</time>
      </trkpt>
      <trkpt lat="53.188356" lon="9.986351">
        <ele>62.992002</ele>
        <time>2019-08-28T09:10:34.998Z</time>
      </trkpt>
      <trkpt lat="53.188321" lon="9.986498">
        <ele>62.753449</ele>
        <time>2019-08-28T09:10:46.998Z</time>
      </trkpt>
      <trkpt lat="53.188258" lon="9.986614">
        <ele>62.517341</ele>
        <time>2019-08-28T09:10:54.998Z</time>
      </trkpt>
      <trkpt lat="53.188206" lon="9.986753">
        <ele>62.270212</ele>
        <time>2019-08-28T09:11:01.998Z</time>
      </trkpt>
      <trkpt lat="53.188156" lon="9.986887">
        <ele>62.032144</ele>
        <time>2019-08-28T09:11:08.998Z</time>
      </trkpt>
      <trkpt lat="53.188092" lon="9.986998">
        <ele>61.799829</ele>
        <time>2019-08-28T09:11:15.998Z</time>
      </trkpt>
      <trkpt lat="53.188036" lon="9.987118">
        <ele>61.570444</ele>
        <time>2019-08-28T09:11:22.998Z</time>
      </trkpt>
      <trkpt lat="53.187977" lon="9.987236">
        <ele>61.338667</ele>
        <time>2019-08-28T09:11:29.998Z</time>
      </trkpt>
      <trkpt lat="53.187926" lon="9.987368">
        <ele>61.101799</ele>
        <time>2019-08-28T09:11:36.998Z</time>
      </trkpt>
      <trkpt lat="53.187877" lon="9.987498">
        <ele>60.870179</ele>
        <time>2019-08-28T09:11:42.998Z</time>
      </trkpt>
      <trkpt lat="53.187851" lon="9.987658">
        <ele>60.620163</ele>
        <time>2019-08-28T09:11:50.998Z</time>
      </trkpt>
      <trkpt lat="53.187807" lon="9.987807">
        <ele>60.369646</ele>
        <time>2019-08-28T09:11:57.998Z</time>
      </trkpt>
      <trkpt lat="53.187775" lon="9.987960">
        <ele>60.125251</ele>
        <time>2019-08-28T09:12:06.998Z</time>
      </trkpt>
      <trkpt lat="53.187727" lon="9.988097">
        <ele>59.885909</ele>
        <time>2019-08-28T09:12:14.998Z</time>
      </trkpt>
      <trkpt lat="53.187718" lon="9.988247">
        <ele>59.658559</ele>
        <time>2019-08-28T09:12:21.998Z</time>
      </trkpt>
      <trkpt lat="53.187666" lon="9.988373">
        <ele>59.427824</ele>
        <time>2019-08-28T09:12:29.998Z</time>
      </trkpt>
      <trkpt lat="53.187628" lon="9.988530">
        <ele>59.172461</ele>
        <time>2019-08-28T09:12:37.998Z</time>
      </trkpt>
      <trkpt lat="53.187565" lon="9.988655">
        <ele>59.341638</ele>
        <time>2019-08-28T09:12:44.997Z</time>
      </trkpt>
      <trkpt lat="53.187505" lon="9.988770">
        <ele>59.521154</ele>
        <time>2019-08-28T09:12:52.997Z</time>
      </trkpt>
      <trkpt lat="53.187455" lon="9.988897">
        <ele>59.700052</ele>
        <time>2019-08-28T09:12:58.997Z</time>
      </trkpt>
      <trkpt lat="53.187391" lon="9.989027">
        <ele>59.898128</ele>
        <time>2019-08-28T09:13:06.997Z</time>
      </trkpt>
      <trkpt lat="53.187357" lon="9.989186">
        <ele>60.096876</ele>
        <time>2019-08-28T09:13:14.997Z</time>
      </trkpt>
      <trkpt lat="53.187307" lon="9.989331">
        <ele>60.293828</ele>
        <time>2019-08-28T09:13:24.997Z</time>
      </trkpt>
      <trkpt lat="53.187247" lon="9.989463">
        <ele>60.488881</ele>
        <time>2019-08-28T09:13:31.997Z</time>
      </trkpt>
      <trkpt lat="53.187205" lon="9.989618">
        <ele>60.689150</ele>
        <time>2019-08-28T09:13:40.997Z</time>
      </trkpt>
      <trkpt lat="53.187173" lon="9.989767">
        <ele>60.875490</ele>
        <time>2019-08-28T09:13:48.997Z</time>
      </trkpt>
      <trkpt lat="53.187165" lon="9.989930">
        <ele>61.068028</ele>
        <time>2019-08-28T09:13:57.997Z</time>
      </trkpt>
      <trkpt lat="53.187115" lon="9.990073">
        <ele>61.262945</ele>
        <time>2019-08-28T09:14:03.997Z</time>
      </trkpt>
      <trkpt lat="53.187085" lon="9.990225">
        <ele>61.451348</ele>
        <time>2019-08-28T09:14:10.997Z</time>
      </trkpt>
      <trkpt lat="53.187027" lon="9.990363">
        <ele>61.649792</ele>
        <time>2019-08-28T09:14:20.997Z</time>
      </trkpt>
      <trkpt lat="53.186994" lon="9.990510">
        <ele>61.834599</ele>
        <time>2019-08-28T09:14:28.997Z</time>
      </trkpt>
      <trkpt lat="53.186985" lon="9.990666">
        <ele>62.019104</ele>
        <time>2019-08-28T09:14:36.997Z</time>
      </trkpt>
      <trkpt lat="53.186991" lon="9.990831">
        <ele>62.213712</ele>
        <time>2019-08-28T09:14:43.997Z</time>
      </trkpt>
      <trkpt lat="53.186951" lon="9.990972">
        <ele>62.397373</ele>
        <time>2019-08-28T09:14:51.997Z</time>
      </trkpt>
      <trkpt lat="53.186902" lon="9.991099">
        <ele>62.575201</ele>
        <time>2019-08-28T09:14:58.997Z</time>
      </trkpt>
      <trkpt lat="53.186855" lon="9.991234">
        <ele>62.734303</ele>
        <time>2019-08-28T09:15:05.998Z</time>
      </trkpt>
      <trkpt lat="53.186801" lon="9.991357">
        <ele>62.846279</ele>
        <time>2019-08-28T09:15:12.999Z</time>
      </trkpt>
      <trkpt lat="53.186771" lon="9.991533">
        <ele>62.980655</ele>
        <time>2019-08-28T09:15:19.999Z</time>
      </trkpt>
      <trkpt lat="53.186731" lon="9.991672">
        <ele>63.093893</ele>
        <time>2019-08-28T09:15:26.999Z</time>
      </trkpt>
      <trkpt lat="53.186659" lon="9.991785">
        <ele>63.215024</ele>
        <time>2019-08-28T09:15:35.999Z</time>
      </trkpt>
      <trkpt lat="53.186621" lon="9.991937">
        <ele>63.335973</ele>
        <time>2019-08-28T09:15:42.999Z</time>
      </trkpt>
      <trkpt lat="53.186547" lon="9.992042">
        <ele>63.455013</ele>
        <time>2019-08-28T09:15:50.999Z</time>
      </trkpt>
      <trkpt lat="53.186469" lon="9.992117">
        <ele>63.565339</ele>
        <time>2019-08-28T09:15:59.999Z</time>
      </trkpt>
      <trkpt lat="53.186391" lon="9.992211">
        <ele>63.683251</ele>
        <time>2019-08-28T09:16:07.999Z</time>
      </trkpt>
      <trkpt lat="53.186333" lon="9.992340">
        <ele>63.801688</ele>
        <time>2019-08-28T09:16:17.999Z</time>
      </trkpt>
      <trkpt lat="53.186258" lon="9.992430">
        <ele>63.914900</ele>
        <time>2019-08-28T09:16:26.999Z</time>
      </trkpt>
      <trkpt lat="53.186188" lon="9.992542">
        <ele>64.033748</ele>
        <time>2019-08-28T09:16:36.999Z</time>
      </trkpt>
      <trkpt lat="53.186147" lon="9.992688">
        <ele>64.152157</ele>
        <time>2019-08-28T09:16:55.999Z</time>
      </trkpt>
      <trkpt lat="53.186090" lon="9.992840">
        <ele>64.283839</ele>
        <time>2019-08-28T09:17:02.999Z</time>
      </trkpt>
      <trkpt lat="53.186027" lon="9.992976">
        <ele>64.410078</ele>
        <time>2019-08-28T09:17:11.999Z</time>
      </trkpt>
      <trkpt lat="53.185943" lon="9.993061">
        <ele>64.530472</ele>
        <time>2019-08-28T09:17:20.999Z</time>
      </trkpt>
      <trkpt lat="53.185869" lon="9.993169">
        <ele>64.650952</ele>
        <time>2019-08-28T09:17:33.999Z</time>
      </trkpt>
      <trkpt lat="53.185746" lon="9.993442">
        <ele>64.900378</ele>
        <time>2019-08-28T09:18:08.998Z</time>
      </trkpt>
      <trkpt lat="53.185709" lon="9.993584">
        <ele>64.975123</ele>
        <time>2019-08-28T09:18:16.998Z</time>
      </trkpt>
      <trkpt lat="53.185637" lon="9.993698">
        <ele>65.055075</ele>
        <time>2019-08-28T09:18:26.998Z</time>
      </trkpt>
      <trkpt lat="53.185574" lon="9.993835">
        <ele>65.138436</ele>
        <time>2019-08-28T09:18:34.998Z</time>
      </trkpt>
      <trkpt lat="53.185498" lon="9.993932">
        <ele>65.215512</ele>
        <time>2019-08-28T09:18:43.998Z</time>
      </trkpt>
      <trkpt lat="53.185432" lon="9.994045">
        <ele>65.291683</ele>
        <time>2019-08-28T09:18:52.998Z</time>
      </trkpt>
      <trkpt lat="53.185359" lon="9.994143">
        <ele>65.367155</ele>
        <time>2019-08-28T09:18:59.998Z</time>
      </trkpt>
      <trkpt lat="53.185316" lon="9.994283">
        <ele>65.443096</ele>
        <time>2019-08-28T09:19:08.998Z</time>
      </trkpt>
      <trkpt lat="53.185250" lon="9.994386">
        <ele>65.515889</ele>
        <time>2019-08-28T09:19:17.998Z</time>
      </trkpt>
      <trkpt lat="53.185204" lon="9.994533">
        <ele>65.595942</ele>
        <time>2019-08-28T09:19:25.998Z</time>
      </trkpt>
      <trkpt lat="53.185168" lon="9.994683">
        <ele>65.673941</ele>
        <time>2019-08-28T09:19:33.998Z</time>
      </trkpt>
      <trkpt lat="53.185072" lon="9.994897">
        <ele>65.802984</ele>
        <time>2019-08-28T09:20:04.998Z</time>
      </trkpt>
      <trkpt lat="53.185047" lon="9.995054">
        <ele>65.881401</ele>
        <time>2019-08-28T09:20:12.998Z</time>
      </trkpt>
      <trkpt lat="53.185005" lon="9.995199">
        <ele>65.959144</ele>
        <time>2019-08-28T09:20:20.998Z</time>
      </trkpt>
      <trkpt lat="53.184975" lon="9.995363">
        <ele>66.041917</ele>
        <time>2019-08-28T09:20:28.998Z</time>
      </trkpt>
      <trkpt lat="53.184921" lon="9.995483">
        <ele>66.114358</ele>
        <time>2019-08-28T09:20:37.998Z</time>
      </trkpt>
      <trkpt lat="53.184894" lon="9.995635">
        <ele>66.190888</ele>
        <time>2019-08-28T09:20:45.998Z</time>
      </trkpt>
      <trkpt lat="53.184850" lon="9.995792">
        <ele>66.274555</ele>
        <time>2019-08-28T09:20:53.997Z</time>
      </trkpt>
      <trkpt lat="53.184805" lon="9.995926">
        <ele>66.346213</ele>
        <time>2019-08-28T09:21:00.997Z</time>
      </trkpt>
      <trkpt lat="53.184762" lon="9.996069">
        <ele>66.332082</ele>
        <time>2019-08-28T09:21:10.997Z</time>
      </trkpt>
      <trkpt lat="53.184729" lon="9.996216">
        <ele>66.318216</ele>
        <time>2019-08-28T09:21:17.997Z</time>
      </trkpt>
      <trkpt lat="53.184691" lon="9.996363">
        <ele>66.304076</ele>
        <time>2019-08-28T09:21:26.997Z</time>
      </trkpt>
      <trkpt lat="53.184656" lon="9.996511">
        <ele>66.290022</ele>
        <time>2019-08-28T09:21:35.997Z</time>
      </trkpt>
      <trkpt lat="53.184623" lon="9.996652">
        <ele>66.276652</ele>
        <time>2019-08-28T09:21:46.997Z</time>
      </trkpt>
      <trkpt lat="53.184583" lon="9.996794">
        <ele>66.262793</ele>
        <time>2019-08-28T09:21:55.997Z</time>
      </trkpt>
      <trkpt lat="53.184582" lon="9.996944">
        <ele>66.249543</ele>
        <time>2019-08-28T09:22:03.996Z</time>
      </trkpt>
      <trkpt lat="53.184549" lon="9.997098">
        <ele>66.235097</ele>
        <time>2019-08-28T09:22:10.998Z</time>
      </trkpt>
      <trkpt lat="53.184516" lon="9.997238">
        <ele>66.221809</ele>
        <time>2019-08-28T09:22:19.998Z</time>
      </trkpt>
      <trkpt lat="53.184488" lon="9.997380">
        <ele>66.208604</ele>
        <time>2019-08-28T09:22:28.998Z</time>
      </trkpt>
      <trkpt lat="53.184416" lon="9.997502">
        <ele>66.193480</ele>
        <time>2019-08-28T09:22:37.998Z</time>
      </trkpt>
      <trkpt lat="53.184372" lon="9.997646">
        <ele>66.179203</ele>
        <time>2019-08-28T09:22:47.998Z</time>
      </trkpt>
      <trkpt lat="53.184344" lon="9.997795">
        <ele>66.165410</ele>
        <time>2019-08-28T09:22:56.998Z</time>
      </trkpt>
      <trkpt lat="53.184312" lon="9.997946">
        <ele>66.151263</ele>
        <time>2019-08-28T09:23:05.998Z</time>
      </trkpt>
      <trkpt lat="53.184307" lon="9.998107">
        <ele>66.137023</ele>
        <time>2019-08-28T09:23:13.998Z</time>
      </trkpt>
      <trkpt lat="53.184268" lon="9.998415">
        <ele>66.109217</ele>
        <time>2019-08-28T09:23:57.998Z</time>
      </trkpt>
      <trkpt lat="53.184244" lon="9.998577">
        <ele>66.094477</ele>
        <time>2019-08-28T09:24:06.998Z</time>
      </trkpt>
      <trkpt lat="53.184216" lon="9.998720">
        <ele>66.081918</ele>
        <time>2019-08-28T09:24:14.998Z</time>
      </trkpt>
      <trkpt lat="53.184186" lon="9.998867">
        <ele>66.102562</ele>
        <time>2019-08-28T09:24:24.998Z</time>
      </trkpt>
      <trkpt lat="53.184149" lon="9.999020">
        <ele>66.124494</ele>
        <time>2019-08-28T09:24:32.998Z</time>
      </trkpt>
      <trkpt lat="53.184123" lon="9.999172">
        <ele>66.145508</ele>
        <time>2019-08-28T09:24:40.998Z</time>
      </trkpt>
      <trkpt lat="53.184079" lon="9.999326">
        <ele>66.168187</ele>
        <time>2019-08-28T09:24:48.998Z</time>
      </trkpt>
      <trkpt lat="53.184061" lon="9.999475">
        <ele>66.188393</ele>
        <time>2019-08-28T09:24:57.998Z</time>
      </trkpt>
      <trkpt lat="53.184055" lon="9.999629">
        <ele>66.208908</ele>
        <time>2019-08-28T09:25:04.998Z</time>
      </trkpt>
      <trkpt lat="53.184051" lon="9.999797">
        <ele>66.231259</ele>
        <time>2019-08-28T09:25:14.998Z</time>
      </trkpt>
      <trkpt lat="53.184036" lon="9.999949">
        <ele>66.251737</ele>
        <time>2019-08-28T09:25:21.998Z</time>
      </trkpt>
      <trkpt lat="53.183987" lon="10.000081">
        <ele>66.272378</ele>
        <time>2019-08-28T09:25:28.998Z</time>
      </trkpt>
      <trkpt lat="53.183956" lon="10.000229">
        <ele>66.293220</ele>
        <time>2019-08-28T09:25:36.998Z</time>
      </trkpt>
      <trkpt lat="53.183899" lon="10.000360">
        <ele>66.314741</ele>
        <time>2019-08-28T09:25:45.997Z</time>
      </trkpt>
      <trkpt lat="53.183841" lon="10.000478">
        <ele>66.335029</ele>
        <time>2019-08-28T09:25:53.997Z</time>
      </trkpt>
      <trkpt lat="53.183808" lon="10.000635">
        <ele>66.357146</ele>
        <time>2019-08-28T09:26:02.997Z</time>
      </trkpt>
      <trkpt lat="53.183789" lon="10.000789">
        <ele>66.378048</ele>
        <time>2019-08-28T09:26:11.997Z</time>
      </trkpt>
      <trkpt lat="53.183757" lon="10.000950">
        <ele>66.400597</ele>
        <time>2019-08-28T09:26:19.997Z</time>
      </trkpt>
      <trkpt lat="53.183751" lon="10.001107">
        <ele>66.421510</ele>
        <time>2019-08-28T09:26:28.997Z</time>
      </trkpt>
      <trkpt lat="53.183736" lon="10.001263">
        <ele>66.442513</ele>
        <time>2019-08-28T09:26:36.997Z</time>
      </trkpt>
      <trkpt lat="53.183704" lon="10.001427">
        <ele>66.465441</ele>
        <time>2019-08-28T09:26:47.997Z</time>
      </trkpt>
      <trkpt lat="53.183704" lon="10.001585">
        <ele>66.491409</ele>
        <time>2019-08-28T09:26:57.997Z</time>
      </trkpt>
      <trkpt lat="53.183695" lon="10.001749">
        <ele>66.531532</ele>
        <time>2019-08-28T09:27:04.997Z</time>
      </trkpt>
      <trkpt lat="53.183688" lon="10.001901">
        <ele>66.568673</ele>
        <time>2019-08-28T09:27:11.997Z</time>
      </trkpt>
      <trkpt lat="53.183679" lon="10.002059">
        <ele>66.607340</ele>
        <time>2019-08-28T09:27:19.997Z</time>
      </trkpt>
      <trkpt lat="53.183661" lon="10.002207">
        <ele>66.644132</ele>
        <time>2019-08-28T09:27:27.997Z</time>
      </trkpt>
      <trkpt lat="53.183638" lon="10.002364">
        <ele>66.683509</ele>
        <time>2019-08-28T09:27:34.997Z</time>
      </trkpt>
      <trkpt lat="53.183624" lon="10.002512">
        <ele>66.720013</ele>
        <time>2019-08-28T09:27:43.997Z</time>
      </trkpt>
      <trkpt lat="53.183633" lon="10.002669">
        <ele>66.758437</ele>
        <time>2019-08-28T09:27:51.997Z</time>
      </trkpt>
      <trkpt lat="53.183632" lon="10.002929">
        <ele>66.821783</ele>
        <time>2019-08-28T09:28:57.997Z</time>
      </trkpt>
      <trkpt lat="53.183594" lon="10.003073">
        <ele>66.860117</ele>
        <time>2019-08-28T09:29:03.997Z</time>
      </trkpt>
      <trkpt lat="53.183594" lon="10.003242">
        <ele>66.901290</ele>
        <time>2019-08-28T09:29:10.997Z</time>
      </trkpt>
      <trkpt lat="53.183588" lon="10.003402">
        <ele>66.940348</ele>
        <time>2019-08-28T09:29:18.998Z</time>
      </trkpt>
      <trkpt lat="53.183568" lon="10.003558">
        <ele>66.979214</ele>
        <time>2019-08-28T09:29:26.998Z</time>
      </trkpt>
      <trkpt lat="53.183589" lon="10.003716">
        <ele>67.018643</ele>
        <time>2019-08-28T09:29:35.998Z</time>
      </trkpt>
      <trkpt lat="53.183583" lon="10.003870">
        <ele>67.056242</ele>
        <time>2019-08-28T09:29:43.998Z</time>
      </trkpt>
      <trkpt lat="53.183586" lon="10.004023">
        <ele>67.093537</ele>
        <time>2019-08-28T09:29:52.998Z</time>
      </trkpt>
      <trkpt lat="53.183593" lon="10.004184">
        <ele>67.132865</ele>
        <time>2019-08-28T09:30:01.998Z</time>
      </trkpt>
      <trkpt lat="53.183590" lon="10.004335">
        <ele>67.169674</ele>
        <time>2019-08-28T09:30:08.998Z</time>
      </trkpt>
      <trkpt lat="53.183658" lon="10.004674">
        <ele>67.309597</ele>
        <time>2019-08-28T09:31:31.998Z</time>
      </trkpt>
      <trkpt lat="53.183639" lon="10.004843">
        <ele>67.400636</ele>
        <time>2019-08-28T09:31:42.998Z</time>
      </trkpt>
      <trkpt lat="53.183619" lon="10.005002">
        <ele>67.486653</ele>
        <time>2019-08-28T09:31:51.998Z</time>
      </trkpt>
      <trkpt lat="53.183598" lon="10.005155">
        <ele>67.569757</ele>
        <time>2019-08-28T09:31:59.998Z</time>
      </trkpt>
      <trkpt lat="53.183589" lon="10.005314">
        <ele>67.654314</ele>
        <time>2019-08-28T09:32:07.999Z</time>
      </trkpt>
      <trkpt lat="53.183578" lon="10.005465">
        <ele>67.734850</ele>
        <time>2019-08-28T09:32:15.999Z</time>
      </trkpt>
      <trkpt lat="53.183564" lon="10.005628">
        <ele>67.822032</ele>
        <time>2019-08-28T09:32:24.999Z</time>
      </trkpt>
      <trkpt lat="53.183559" lon="10.005783">
        <ele>67.904216</ele>
        <time>2019-08-28T09:32:31.999Z</time>
      </trkpt>
      <trkpt lat="53.183541" lon="10.005951">
        <ele>67.994575</ele>
        <time>2019-08-28T09:32:39.999Z</time>
      </trkpt>
      <trkpt lat="53.183503" lon="10.006107">
        <ele>68.083732</ele>
        <time>2019-08-28T09:32:48.999Z</time>
      </trkpt>
      <trkpt lat="53.183455" lon="10.006250">
        <ele>68.170512</ele>
        <time>2019-08-28T09:32:55.999Z</time>
      </trkpt>
      <trkpt lat="53.183403" lon="10.006389">
        <ele>68.257270</ele>
        <time>2019-08-28T09:33:04.999Z</time>
      </trkpt>
      <trkpt lat="53.183357" lon="10.006519">
        <ele>68.337202</ele>
        <time>2019-08-28T09:33:11.998Z</time>
      </trkpt>
      <trkpt lat="53.183332" lon="10.006664">
        <ele>68.417087</ele>
        <time>2019-08-28T09:33:21.998Z</time>
      </trkpt>
      <trkpt lat="53.183325" lon="10.006862">
        <ele>68.522102</ele>
        <time>2019-08-28T09:33:49.998Z</time>
      </trkpt>
      <trkpt lat="53.183286" lon="10.007006">
        <ele>68.605768</ele>
        <time>2019-08-28T09:33:58.998Z</time>
      </trkpt>
      <trkpt lat="53.183284" lon="10.007161">
        <ele>68.687853</ele>
        <time>2019-08-28T09:34:05.998Z</time>
      </trkpt>
      <trkpt lat="53.183257" lon="10.007311">
        <ele>68.770776</ele>
        <time>2019-08-28T09:34:11.998Z</time>
      </trkpt>
      <trkpt lat="53.183230" lon="10.007464">
        <ele>68.827183</ele>
        <time>2019-08-28T09:34:20.998Z</time>
      </trkpt>
      <trkpt lat="53.183210" lon="10.007633">
        <ele>68.871336</ele>
        <time>2019-08-28T09:34:28.998Z</time>
      </trkpt>
      <trkpt lat="53.183157" lon="10.007777">
        <ele>68.914650</ele>
        <time>2019-08-28T09:34:37.998Z</time>
      </trkpt>
      <trkpt lat="53.183113" lon="10.007925">
        <ele>68.956995</ele>
        <time>2019-08-28T09:34:45.998Z</time>
      </trkpt>
      <trkpt lat="53.183080" lon="10.008073">
        <ele>68.997469</ele>
        <time>2019-08-28T09:34:52.998Z</time>
      </trkpt>
      <trkpt lat="53.183028" lon="10.008221">
        <ele>69.041442</ele>
        <time>2019-08-28T09:35:01.998Z</time>
      </trkpt>
      <trkpt lat="53.182979" lon="10.008356">
        <ele>69.081896</ele>
        <time>2019-08-28T09:35:09.998Z</time>
      </trkpt>
      <trkpt lat="53.182940" lon="10.008501">
        <ele>69.122632</ele>
        <time>2019-08-28T09:35:17.998Z</time>
      </trkpt>
      <trkpt lat="53.182906" lon="10.008647">
        <ele>69.162780</ele>
        <time>2019-08-28T09:35:25.998Z</time>
      </trkpt>
      <trkpt lat="53.182889" lon="10.008803">
        <ele>69.203420</ele>
        <time>2019-08-28T09:35:32.998Z</time>
      </trkpt>
      <trkpt lat="53.182869" lon="10.008964">
        <ele>69.245563</ele>
        <time>2019-08-28T09:35:40.998Z</time>
      </trkpt>
      <trkpt lat="53.182825" lon="10.009109">
        <ele>69.287221</ele>
        <time>2019-08-28T09:35:49.998Z</time>
      </trkpt>
      <trkpt lat="53.182739" lon="10.009188">
        <ele>69.329209</ele>
        <time>2019-08-28T09:35:56.998Z</time>
      </trkpt>
      <trkpt lat="53.182644" lon="10.009243">
        <ele>69.372217</ele>
        <time>2019-08-28T09:36:04.998Z</time>
      </trkpt>
      <trkpt lat="53.182572" lon="10.009344">
        <ele>69.412448</ele>
        <time>2019-08-28T09:36:13.998Z</time>
      </trkpt>
      <trkpt lat="53.182489" lon="10.009408">
        <ele>69.451554</ele>
        <time>2019-08-28T09:36:23.999Z</time>
      </trkpt>
      <trkpt lat="53.182423" lon="10.009529">
        <ele>69.493491</ele>
        <time>2019-08-28T09:36:32.999Z</time>
      </trkpt>
      <trkpt lat="53.182345" lon="10.009612">
        <ele>69.533058</ele>
        <time>2019-08-28T09:36:39.999Z</time>
      </trkpt>
      <trkpt lat="53.182284" lon="10.009731">
        <ele>69.570500</ele>
        <time>2019-08-28T09:36:45.999Z</time>
      </trkpt>
      <trkpt lat="53.182235" lon="10.009871">
        <ele>69.575071</ele>
        <time>2019-08-28T09:36:53.999Z</time>
      </trkpt>
      <trkpt lat="53.182183" lon="10.010020">
        <ele>69.579933</ele>
        <time>2019-08-28T09:37:02.999Z</time>
      </trkpt>
      <trkpt lat="53.182155" lon="10.010166">
        <ele>69.584255</ele>
        <time>2019-08-28T09:37:08.999Z</time>
      </trkpt>
      <trkpt lat="53.182123" lon="10.010335">
        <ele>69.589252</ele>
        <time>2019-08-28T09:37:15.999Z</time>
      </trkpt>
      <trkpt lat="53.182102" lon="10.010494">
        <ele>69.593842</ele>
        <time>2019-08-28T09:37:23.999Z</time>
      </trkpt>
      <trkpt lat="53.182076" lon="10.010655">
        <ele>69.598543</ele>
        <time>2019-08-28T09:37:31.999Z</time>
      </trkpt>
      <trkpt lat="53.182039" lon="10.010802">
        <ele>69.603039</ele>
        <time>2019-08-28T09:37:39.999Z</time>
      </trkpt>
      <trkpt lat="53.182000" lon="10.010958">
        <ele>69.607804</ele>
        <time>2019-08-28T09:37:46.999Z</time>
      </trkpt>
      <trkpt lat="53.181957" lon="10.011094">
        <ele>69.612140</ele>
        <time>2019-08-28T09:37:55.999Z</time>
      </trkpt>
      <trkpt lat="53.181925" lon="10.011252">
        <ele>69.616842</ele>
        <time>2019-08-28T09:38:02.999Z</time>
      </trkpt>
      <trkpt lat="53.181888" lon="10.011403">
        <ele>69.621441</ele>
        <time>2019-08-28T09:38:10.999Z</time>
      </trkpt>
      <trkpt lat="53.181866" lon="10.011553">
        <ele>69.625795</ele>
        <time>2019-08-28T09:38:17.999Z</time>
      </trkpt>
      <trkpt lat="53.181813" lon="10.011677">
        <ele>69.630089</ele>
        <time>2019-08-28T09:38:26.999Z</time>
      </trkpt>
      <trkpt lat="53.181768" lon="10.011828">
        <ele>69.634844</ele>
        <time>2019-08-28T09:38:35.999Z</time>
      </trkpt>
      <trkpt lat="53.181712" lon="10.011949">
        <ele>69.639154</ele>
        <time>2019-08-28T09:38:42.999Z</time>
      </trkpt>
      <trkpt lat="53.181673" lon="10.012087">
        <ele>69.643456</ele>
        <time>2019-08-28T09:38:49.999Z</time>
      </trkpt>
      <trkpt lat="53.181626" lon="10.012235">
        <ele>69.648178</ele>
        <time>2019-08-28T09:38:57.999Z</time>
      </trkpt>
      <trkpt lat="53.181568" lon="10.012377">
        <ele>69.653024</ele>
        <time>2019-08-28T09:39:05.999Z</time>
      </trkpt>
      <trkpt lat="53.181513" lon="10.012516">
        <ele>69.339939</ele>
        <time>2019-08-28T09:39:13.999Z</time>
      </trkpt>
      <trkpt lat="53.181460" lon="10.012648">
        <ele>68.858861</ele>
        <time>2019-08-28T09:39:21.999Z</time>
      </trkpt>
      <trkpt lat="53.181399" lon="10.012775">
        <ele>68.366070</ele>
        <time>2019-08-28T09:39:30.999Z</time>
      </trkpt>
      <trkpt lat="53.181347" lon="10.012917">
        <ele>67.862210</ele>
        <time>2019-08-28T09:39:38.999Z</time>
      </trkpt>
      <trkpt lat="53.181281" lon="10.013035">
        <ele>67.373498</ele>
        <time>2019-08-28T09:39:47.999Z</time>
      </trkpt>
      <trkpt lat="53.181216" lon="10.013145">
        <ele>66.905765</ele>
        <time>2019-08-28T09:39:54.998Z</time>
      </trkpt>
      <trkpt lat="53.181137" lon="10.013232">
        <ele>66.427542</ele>
        <time>2019-08-28T09:40:02.998Z</time>
      </trkpt>
      <trkpt lat="53.181036" lon="10.013274">
        <ele>65.901650</ele>
        <time>2019-08-28T09:40:10.998Z</time>
      </trkpt>
      <trkpt lat="53.180945" lon="10.013323">
        <ele>65.418543</ele>
        <time>2019-08-28T09:40:17.998Z</time>
      </trkpt>
      <trkpt lat="53.180863" lon="10.013401">
        <ele>64.941664</ele>
        <time>2019-08-28T09:40:25.998Z</time>
      </trkpt>
      <trkpt lat="53.180772" lon="10.013440">
        <ele>64.466980</ele>
        <time>2019-08-28T09:40:33.998Z</time>
      </trkpt>
      <trkpt lat="53.180674" lon="10.013427">
        <ele>63.970290</ele>
        <time>2019-08-28T09:40:42.998Z</time>
      </trkpt>
      <trkpt lat="53.180586" lon="10.013388">
        <ele>63.510270</ele>
        <time>2019-08-28T09:40:50.998Z</time>
      </trkpt>
      <trkpt lat="53.180488" lon="10.013326">
        <ele>62.980749</ele>
        <time>2019-08-28T09:41:00.998Z</time>
      </trkpt>
      <trkpt lat="53.180393" lon="10.013260">
        <ele>62.460838</ele>
        <time>2019-08-28T09:41:08.998Z</time>
      </trkpt>
      <trkpt lat="53.180293" lon="10.013276">
        <ele>61.953287</ele>
        <time>2019-08-28T09:41:15.998Z</time>
      </trkpt>
      <trkpt lat="53.180177" lon="10.013109">
        <ele>61.179231</ele>
        <time>2019-08-28T09:41:41.998Z</time>
      </trkpt>
      <trkpt lat="53.180058" lon="10.012906">
        <ele>60.416285</ele>
        <time>2019-08-28T09:42:43.998Z</time>
      </trkpt>
      <trkpt lat="53.179977" lon="10.012828">
        <ele>60.128315</ele>
        <time>2019-08-28T09:42:51.998Z</time>
      </trkpt>
      <trkpt lat="53.179871" lon="10.012801">
        <ele>59.798138</ele>
        <time>2019-08-28T09:43:01.998Z</time>
      </trkpt>
      <trkpt lat="53.179767" lon="10.012846">
        <ele>59.467309</ele>
        <time>2019-08-28T09:43:07.998Z</time>
      </trkpt>
      <trkpt lat="53.179691" lon="10.012940">
        <ele>59.176009</ele>
        <time>2019-08-28T09:43:12.998Z</time>
      </trkpt>
      <trkpt lat="53.179612" lon="10.013020">
        <ele>58.891458</ele>
        <time>2019-08-28T09:43:20.997Z</time>
      </trkpt>
      <trkpt lat="53.179538" lon="10.013120">
        <ele>58.598243</ele>
        <time>2019-08-28T09:43:27.998Z</time>
      </trkpt>
      <trkpt lat="53.179489" lon="10.013252">
        <ele>58.311708</ele>
        <time>2019-08-28T09:43:34.998Z</time>
      </trkpt>
      <trkpt lat="53.179440" lon="10.013401">
        <ele>57.998067</ele>
        <time>2019-08-28T09:43:41.998Z</time>
      </trkpt>
      <trkpt lat="53.179398" lon="10.013542">
        <ele>57.707498</ele>
        <time>2019-08-28T09:43:48.998Z</time>
      </trkpt>
      <trkpt lat="53.179382" lon="10.013716">
        <ele>57.382640</ele>
        <time>2019-08-28T09:43:57.998Z</time>
      </trkpt>
      <trkpt lat="53.179356" lon="10.013868">
        <ele>57.090938</ele>
        <time>2019-08-28T09:44:05.998Z</time>
      </trkpt>
      <trkpt lat="53.179324" lon="10.014018">
        <ele>56.797112</ele>
        <time>2019-08-28T09:44:13.998Z</time>
      </trkpt>
      <trkpt lat="53.179269" lon="10.014141">
        <ele>56.513910</ele>
        <time>2019-08-28T09:44:20.998Z</time>
      </trkpt>
      <trkpt lat="53.179235" lon="10.014306">
        <ele>56.191922</ele>
        <time>2019-08-28T09:44:28.998Z</time>
      </trkpt>
      <trkpt lat="53.179189" lon="10.014449">
        <ele>55.892418</ele>
        <time>2019-08-28T09:44:35.998Z</time>
      </trkpt>
      <trkpt lat="53.179135" lon="10.014572">
        <ele>55.611045</ele>
        <time>2019-08-28T09:44:42.998Z</time>
      </trkpt>
      <trkpt lat="53.179053" lon="10.014681">
        <ele>55.288222</ele>
        <time>2019-08-28T09:44:50.998Z</time>
      </trkpt>
      <trkpt lat="53.178963" lon="10.014723">
        <ele>55.032299</ele>
        <time>2019-08-28T09:45:02.998Z</time>
      </trkpt>
      <trkpt lat="53.178863" lon="10.014729">
        <ele>55.067174</ele>
        <time>2019-08-28T09:45:11.998Z</time>
      </trkpt>
      <trkpt lat="53.178770" lon="10.014713">
        <ele>55.099759</ele>
        <time>2019-08-28T09:45:18.998Z</time>
      </trkpt>
      <trkpt lat="53.178672" lon="10.014663">
        <ele>55.135475</ele>
        <time>2019-08-28T09:45:27.998Z</time>
      </trkpt>
      <trkpt lat="53.178580" lon="10.014650">
        <ele>55.167654</ele>
        <time>2019-08-28T09:45:35.998Z</time>
      </trkpt>
      <trkpt lat="53.178494" lon="10.014595">
        <ele>55.199754</ele>
        <time>2019-08-28T09:45:44.998Z</time>
      </trkpt>
      <trkpt lat="53.178392" lon="10.014554">
        <ele>55.236321</ele>
        <time>2019-08-28T09:45:53.998Z</time>
      </trkpt>
      <trkpt lat="53.178302" lon="10.014552">
        <ele>55.267691</ele>
        <time>2019-08-28T09:46:01.998Z</time>
      </trkpt>
      <trkpt lat="53.178149" lon="10.014487">
        <ele>55.322716</ele>
        <time>2019-08-28T09:46:47.997Z</time>
      </trkpt>
      <trkpt lat="53.177981" lon="10.014367">
        <ele>55.386408</ele>
        <time>2019-08-28T09:48:04.997Z</time>
      </trkpt>
      <trkpt lat="53.177876" lon="10.014333">
        <ele>55.423686</ele>
        <time>2019-08-28T09:48:13.997Z</time>
      </trkpt>
      <trkpt lat="53.177781" lon="10.014417">
        <ele>55.461158</ele>
        <time>2019-08-28T09:48:22.997Z</time>
      </trkpt>
      <trkpt lat="53.177734" lon="10.014546">
        <ele>55.492692</ele>
        <time>2019-08-28T09:48:29.997Z</time>
      </trkpt>
      <trkpt lat="53.177669" lon="10.014652">
        <ele>55.524370</ele>
        <time>2019-08-28T09:48:37.997Z</time>
      </trkpt>
      <trkpt lat="53.177619" lon="10.014783">
        <ele>55.556811</ele>
        <time>2019-08-28T09:48:45.997Z</time>
      </trkpt>
      <trkpt lat="53.177565" lon="10.014906">
        <ele>55.588660</ele>
        <time>2019-08-28T09:48:52.997Z</time>
      </trkpt>
      <trkpt lat="53.177520" lon="10.015036">
        <ele>55.620019</ele>
        <time>2019-08-28T09:49:00.997Z</time>
      </trkpt>
      <trkpt lat="53.177471" lon="10.015173">
        <ele>55.653344</ele>
        <time>2019-08-28T09:49:09.997Z</time>
      </trkpt>
      <trkpt lat="53.177434" lon="10.015314">
        <ele>55.726072</ele>
        <time>2019-08-28T09:49:17.997Z</time>
      </trkpt>
      <trkpt lat="53.177384" lon="10.015451">
        <ele>55.805568</ele>
        <time>2019-08-28T09:49:24.997Z</time>
      </trkpt>
      <trkpt lat="53.177325" lon="10.015579">
        <ele>55.885596</ele>
        <time>2019-08-28T09:49:31.997Z</time>
      </trkpt>
      <trkpt lat="53.177242" lon="10.015672">
        <ele>55.968269</ele>
        <time>2019-08-28T09:49:40.997Z</time>
      </trkpt>
      <trkpt lat="53.177179" lon="10.015794">
        <ele>56.048080</ele>
        <time>2019-08-28T09:49:48.997Z</time>
      </trkpt>
      <trkpt lat="53.177134" lon="10.015945">
        <ele>56.131657</ele>
        <time>2019-08-28T09:49:56.997Z</time>
      </trkpt>
      <trkpt lat="53.177082" lon="10.016078">
        <ele>56.210357</ele>
        <time>2019-08-28T09:50:03.997Z</time>
      </trkpt>
      <trkpt lat="53.177036" lon="10.016225">
        <ele>56.292543</ele>
        <time>2019-08-28T09:50:12.997Z</time>
      </trkpt>
      <trkpt lat="53.177000" lon="10.016372">
        <ele>56.371244</ele>
        <time>2019-08-28T09:50:20.997Z</time>
      </trkpt>
      <trkpt lat="53.176930" lon="10.016499">
        <ele>56.456756</ele>
        <time>2019-08-28T09:50:27.997Z</time>
      </trkpt>
      <trkpt lat="53.176874" lon="10.016627">
        <ele>56.535296</ele>
        <time>2019-08-28T09:50:35.998Z</time>
      </trkpt>
      <trkpt lat="53.176808" lon="10.016732">
        <ele>56.610706</ele>
        <time>2019-08-28T09:50:43.998Z</time>
      </trkpt>
      <trkpt lat="53.176740" lon="10.016838">
        <ele>56.687658</ele>
        <time>2019-08-28T09:50:50.998Z</time>
      </trkpt>
      <trkpt lat="53.176679" lon="10.016961">
        <ele>56.766781</ele>
        <time>2019-08-28T09:50:58.998Z</time>
      </trkpt>
      <trkpt lat="53.176614" lon="10.017084">
        <ele>56.848053</ele>
        <time>2019-08-28T09:51:05.998Z</time>
      </trkpt>
      <trkpt lat="53.176558" lon="10.017207">
        <ele>56.924606</ele>
        <time>2019-08-28T09:51:14.998Z</time>
      </trkpt>
      <trkpt lat="53.176494" lon="10.017322">
        <ele>57.002383</ele>
        <time>2019-08-28T09:51:22.998Z</time>
      </trkpt>
      <trkpt lat="53.176432" lon="10.017434">
        <ele>57.077945</ele>
        <time>2019-08-28T09:51:28.998Z</time>
      </trkpt>
      <trkpt lat="53.176366" lon="10.017543">
        <ele>57.167495</ele>
        <time>2019-08-28T09:51:37.998Z</time>
      </trkpt>
      <trkpt lat="53.176316" lon="10.017672">
        <ele>57.328214</ele>
        <time>2019-08-28T09:51:44.998Z</time>
      </trkpt>
      <trkpt lat="53.176267" lon="10.017800">
        <ele>57.487109</ele>
        <time>2019-08-28T09:51:51.998Z</time>
      </trkpt>
      <trkpt lat="53.176224" lon="10.017948">
        <ele>57.659177</ele>
        <time>2019-08-28T09:51:58.998Z</time>
      </trkpt>
      <trkpt lat="53.176173" lon="10.018074">
        <ele>57.818241</ele>
        <time>2019-08-28T09:52:05.998Z</time>
      </trkpt>
      <trkpt lat="53.176124" lon="10.018216">
        <ele>57.989661</ele>
        <time>2019-08-28T09:52:15.998Z</time>
      </trkpt>
      <trkpt lat="53.176087" lon="10.018355">
        <ele>58.148778</ele>
        <time>2019-08-28T09:52:22.998Z</time>
      </trkpt>
      <trkpt lat="53.176043" lon="10.018491">
        <ele>58.310465</ele>
        <time>2019-08-28T09:52:29.998Z</time>
      </trkpt>
      <trkpt lat="53.176002" lon="10.018647">
        <ele>58.488672</ele>
        <time>2019-08-28T09:52:36.998Z</time>
      </trkpt>
      <trkpt lat="53.175939" lon="10.018758">
        <ele>58.648604</ele>
        <time>2019-08-28T09:52:45.998Z</time>
      </trkpt>
      <trkpt lat="53.175895" lon="10.018899">
        <ele>58.814913</ele>
        <time>2019-08-28T09:52:53.998Z</time>
      </trkpt>
      <trkpt lat="53.175832" lon="10.019028">
        <ele>58.989002</ele>
        <time>2019-08-28T09:53:02.998Z</time>
      </trkpt>
      <trkpt lat="53.175776" lon="10.019167">
        <ele>59.164222</ele>
        <time>2019-08-28T09:53:10.998Z</time>
      </trkpt>
      <trkpt lat="53.175707" lon="10.019267">
        <ele>59.323756</ele>
        <time>2019-08-28T09:53:17.998Z</time>
      </trkpt>
      <trkpt lat="53.175649" lon="10.019402">
        <ele>59.497530</ele>
        <time>2019-08-28T09:53:27.998Z</time>
      </trkpt>
      <trkpt lat="53.175593" lon="10.019536">
        <ele>59.668434</ele>
        <time>2019-08-28T09:53:36.998Z</time>
      </trkpt>
      <trkpt lat="53.175526" lon="10.019649">
        <ele>59.834727</ele>
        <time>2019-08-28T09:53:44.998Z</time>
      </trkpt>
      <trkpt lat="53.175476" lon="10.019782">
        <ele>59.998978</ele>
        <time>2019-08-28T09:53:52.997Z</time>
      </trkpt>
      <trkpt lat="53.175418" lon="10.019903">
        <ele>60.161072</ele>
        <time>2019-08-28T09:53:59.997Z</time>
      </trkpt>
      <trkpt lat="53.175367" lon="10.020046">
        <ele>60.270114</ele>
        <time>2019-08-28T09:54:09.997Z</time>
      </trkpt>
      <trkpt lat="53.175306" lon="10.020159">
        <ele>60.231535</ele>
        <time>2019-08-28T09:54:18.997Z</time>
      </trkpt>
      <trkpt lat="53.175247" lon="10.020287">
        <ele>60.190572</ele>
        <time>2019-08-28T09:54:25.997Z</time>
      </trkpt>
      <trkpt lat="53.175179" lon="10.020403">
        <ele>60.149410</ele>
        <time>2019-08-28T09:54:33.998Z</time>
      </trkpt>
      <trkpt lat="53.175118" lon="10.020524">
        <ele>60.109300</ele>
        <time>2019-08-28T09:54:40.998Z</time>
      </trkpt>
      <trkpt lat="53.175064" lon="10.020655">
        <ele>60.068967</ele>
        <time>2019-08-28T09:54:47.998Z</time>
      </trkpt>
      <trkpt lat="53.175016" lon="10.020803">
        <ele>60.026278</ele>
        <time>2019-08-28T09:54:57.998Z</time>
      </trkpt>
      <trkpt lat="53.174958" lon="10.020931">
        <ele>59.985571</ele>
        <time>2019-08-28T09:55:06.998Z</time>
      </trkpt>
      <trkpt lat="53.174873" lon="10.021023">
        <ele>59.942687</ele>
        <time>2019-08-28T09:55:14.998Z</time>
      </trkpt>
      <trkpt lat="53.174812" lon="10.021142">
        <ele>59.902964</ele>
        <time>2019-08-28T09:55:20.998Z</time>
      </trkpt>
      <trkpt lat="53.174749" lon="10.021248">
        <ele>59.865094</ele>
        <time>2019-08-28T09:55:27.998Z</time>
      </trkpt>
      <trkpt lat="53.174702" lon="10.021400">
        <ele>59.821705</ele>
        <time>2019-08-28T09:55:35.998Z</time>
      </trkpt>
      <trkpt lat="53.174642" lon="10.021519">
        <ele>59.782256</ele>
        <time>2019-08-28T09:55:42.998Z</time>
      </trkpt>
      <trkpt lat="53.174585" lon="10.021645">
        <ele>59.742209</ele>
        <time>2019-08-28T09:55:50.998Z</time>
      </trkpt>
      <trkpt lat="53.174528" lon="10.021770">
        <ele>59.702364</ele>
        <time>2019-08-28T09:55:59.998Z</time>
      </trkpt>
      <trkpt lat="53.174488" lon="10.021919">
        <ele>59.660946</ele>
        <time>2019-08-28T09:56:08.998Z</time>
      </trkpt>
      <trkpt lat="53.174435" lon="10.022044">
        <ele>59.622103</ele>
        <time>2019-08-28T09:56:17.998Z</time>
      </trkpt>
      <trkpt lat="53.174380" lon="10.022164">
        <ele>59.583780</ele>
        <time>2019-08-28T09:56:25.998Z</time>
      </trkpt>
      <trkpt lat="53.174333" lon="10.022297">
        <ele>59.544612</ele>
        <time>2019-08-28T09:56:34.998Z</time>
      </trkpt>
      <trkpt lat="53.174270" lon="10.022413">
        <ele>59.486849</ele>
        <time>2019-08-28T09:56:40.998Z</time>
      </trkpt>
      <trkpt lat="53.174229" lon="10.022560">
        <ele>59.401075</ele>
        <time>2019-08-28T09:56:49.998Z</time>
      </trkpt>
      <trkpt lat="53.174171" lon="10.022699">
        <ele>59.311476</ele>
        <time>2019-08-28T09:56:57.998Z</time>
      </trkpt>
      <trkpt lat="53.174091" lon="10.022771">
        <ele>59.231248</ele>
        <time>2019-08-28T09:57:04.998Z</time>
      </trkpt>
      <trkpt lat="53.174055" lon="10.022917">
        <ele>59.147730</ele>
        <time>2019-08-28T09:57:12.998Z</time>
      </trkpt>
      <trkpt lat="53.174007" lon="10.023060">
        <ele>59.061024</ele>
        <time>2019-08-28T09:57:19.998Z</time>
      </trkpt>
      <trkpt lat="53.173937" lon="10.023194">
        <ele>58.966989</ele>
        <time>2019-08-28T09:57:29.998Z</time>
      </trkpt>
      <trkpt lat="53.173863" lon="10.023283">
        <ele>58.886474</ele>
        <time>2019-08-28T09:57:39.999Z</time>
      </trkpt>
      <trkpt lat="53.173816" lon="10.023419">
        <ele>58.803423</ele>
        <time>2019-08-28T09:57:47.999Z</time>
      </trkpt>
      <trkpt lat="53.173771" lon="10.023560">
        <ele>58.718915</ele>
        <time>2019-08-28T09:57:57.999Z</time>
      </trkpt>
      <trkpt lat="53.173688" lon="10.023643">
        <ele>58.633506</ele>
        <time>2019-08-28T09:58:07.999Z</time>
      </trkpt>
      <trkpt lat="53.173629" lon="10.023761">
        <ele>58.552212</ele>
        <time>2019-08-28T09:58:13.999Z</time>
      </trkpt>
      <trkpt lat="53.173547" lon="10.023844">
        <ele>58.467559</ele>
        <time>2019-08-28T09:58:20.999Z</time>
      </trkpt>
      <trkpt lat="53.173476" lon="10.023975">
        <ele>58.374125</ele>
        <time>2019-08-28T09:58:29.999Z</time>
      </trkpt>
      <trkpt lat="53.173435" lon="10.024123">
        <ele>58.287870</ele>
        <time>2019-08-28T09:58:41.999Z</time>
      </trkpt>
      <trkpt lat="53.173370" lon="10.024253">
        <ele>58.198308</ele>
        <time>2019-08-28T09:58:49.999Z</time>
      </trkpt>
      <trkpt lat="53.173288" lon="10.024318">
        <ele>58.118180</ele>
        <time>2019-08-28T09:58:56.999Z</time>
      </trkpt>
      <trkpt lat="53.173242" lon="10.024447">
        <ele>58.038770</ele>
        <time>2019-08-28T09:59:01.999Z</time>
      </trkpt>
      <trkpt lat="53.173257" lon="10.024617">
        <ele>57.947865</ele>
        <time>2019-08-28T09:59:07.999Z</time>
      </trkpt>
      <trkpt lat="53.173234" lon="10.024777">
        <ele>57.914702</ele>
        <time>2019-08-28T09:59:12.999Z</time>
      </trkpt>
      <trkpt lat="53.173229" lon="10.024934">
        <ele>57.892749</ele>
        <time>2019-08-28T09:59:18.999Z</time>
      </trkpt>
      <trkpt lat="53.173072" lon="10.025010">
        <ele>57.854667</ele>
        <time>2019-08-28T10:00:09.999Z</time>
      </trkpt>
      <trkpt lat="53.173013" lon="10.025138">
        <ele>57.832120</ele>
        <time>2019-08-28T10:00:19.999Z</time>
      </trkpt>
      <trkpt lat="53.172952" lon="10.025266">
        <ele>57.809286</ele>
        <time>2019-08-28T10:00:26.999Z</time>
      </trkpt>
      <trkpt lat="53.172887" lon="10.025394">
        <ele>57.785862</ele>
        <time>2019-08-28T10:00:36.999Z</time>
      </trkpt>
      <trkpt lat="53.172803" lon="10.025471">
        <ele>57.763534</ele>
        <time>2019-08-28T10:00:44.999Z</time>
      </trkpt>
      <trkpt lat="53.172703" lon="10.025486">
        <ele>57.740145</ele>
        <time>2019-08-28T10:00:54.999Z</time>
      </trkpt>
      <trkpt lat="53.172605" lon="10.025512">
        <ele>57.717029</ele>
        <time>2019-08-28T10:01:01.999Z</time>
      </trkpt>
      <trkpt lat="53.172514" lon="10.025502">
        <ele>57.695784</ele>
        <time>2019-08-28T10:01:11.998Z</time>
      </trkpt>
      <trkpt lat="53.172422" lon="10.025536">
        <ele>57.673833</ele>
        <time>2019-08-28T10:01:18.998Z</time>
      </trkpt>
      <trkpt lat="53.172329" lon="10.025552">
        <ele>57.652053</ele>
        <time>2019-08-28T10:01:24.998Z</time>
      </trkpt>
      <trkpt lat="53.172230" lon="10.025545">
        <ele>57.628970</ele>
        <time>2019-08-28T10:01:31.998Z</time>
      </trkpt>
      <trkpt lat="53.172139" lon="10.025514">
        <ele>57.607334</ele>
        <time>2019-08-28T10:01:39.998Z</time>
      </trkpt>
      <trkpt lat="53.172049" lon="10.025529">
        <ele>57.586264</ele>
        <time>2019-08-28T10:01:46.998Z</time>
      </trkpt>
      <trkpt lat="53.171955" lon="10.025543">
        <ele>57.564279</ele>
        <time>2019-08-28T10:01:56.998Z</time>
      </trkpt>
      <trkpt lat="53.171863" lon="10.025574">
        <ele>57.542415</ele>
        <time>2019-08-28T10:02:04.998Z</time>
      </trkpt>
      <trkpt lat="53.171773" lon="10.025613">
        <ele>57.520753</ele>
        <time>2019-08-28T10:02:13.998Z</time>
      </trkpt>
      <trkpt lat="53.171682" lon="10.025604">
        <ele>57.505360</ele>
        <time>2019-08-28T10:02:20.998Z</time>
      </trkpt>
      <trkpt lat="53.171578" lon="10.025579">
        <ele>57.490106</ele>
        <time>2019-08-28T10:02:27.998Z</time>
      </trkpt>
      <trkpt lat="53.171479" lon="10.025571">
        <ele>57.475718</ele>
        <time>2019-08-28T10:02:34.998Z</time>
      </trkpt>
      <trkpt lat="53.171377" lon="10.025586">
        <ele>57.460853</ele>
        <time>2019-08-28T10:02:41.998Z</time>
      </trkpt>
      <trkpt lat="53.171286" lon="10.025564">
        <ele>57.447504</ele>
        <time>2019-08-28T10:02:49.998Z</time>
      </trkpt>
      <trkpt lat="53.171196" lon="10.025575">
        <ele>57.434404</ele>
        <time>2019-08-28T10:02:56.998Z</time>
      </trkpt>
      <trkpt lat="53.171103" lon="10.025597">
        <ele>57.420768</ele>
        <time>2019-08-28T10:03:06.998Z</time>
      </trkpt>
      <trkpt lat="53.171011" lon="10.025621">
        <ele>57.407250</ele>
        <time>2019-08-28T10:03:13.998Z</time>
      </trkpt>
      <trkpt lat="53.170917" lon="10.025568">
        <ele>57.392845</ele>
        <time>2019-08-28T10:03:21.998Z</time>
      </trkpt>
      <trkpt lat="53.170826" lon="10.025570">
        <ele>57.379634</ele>
        <time>2019-08-28T10:03:27.998Z</time>
      </trkpt>
      <trkpt lat="53.170734" lon="10.025612">
        <ele>57.365787</ele>
        <time>2019-08-28T10:03:34.998Z</time>
      </trkpt>
      <trkpt lat="53.170639" lon="10.025607">
        <ele>57.351989</ele>
        <time>2019-08-28T10:03:45.998Z</time>
      </trkpt>
      <trkpt lat="53.170545" lon="10.025642">
        <ele>57.338007</ele>
        <time>2019-08-28T10:03:51.998Z</time>
      </trkpt>
      <trkpt lat="53.170456" lon="10.025669">
        <ele>57.324875</ele>
        <time>2019-08-28T10:03:59.998Z</time>
      </trkpt>
      <trkpt lat="53.170353" lon="10.025648">
        <ele>57.309811</ele>
        <time>2019-08-28T10:04:06.998Z</time>
      </trkpt>
      <trkpt lat="53.170258" lon="10.025642">
        <ele>57.296010</ele>
        <time>2019-08-28T10:04:13.998Z</time>
      </trkpt>
      <trkpt lat="53.170155" lon="10.025654">
        <ele>57.281021</ele>
        <time>2019-08-28T10:04:21.998Z</time>
      </trkpt>
      <trkpt lat="53.170064" lon="10.025659">
        <ele>57.267803</ele>
        <time>2019-08-28T10:04:31.998Z</time>
      </trkpt>
      <trkpt lat="53.169971" lon="10.025671">
        <ele>57.254262</ele>
        <time>2019-08-28T10:04:37.997Z</time>
      </trkpt>
      <trkpt lat="53.169873" lon="10.025680">
        <ele>57.243107</ele>
        <time>2019-08-28T10:04:44.999Z</time>
      </trkpt>
      <trkpt lat="53.169780" lon="10.025685">
        <ele>57.232606</ele>
        <time>2019-08-28T10:04:51.999Z</time>
      </trkpt>
      <trkpt lat="53.169691" lon="10.025716">
        <ele>57.222345</ele>
        <time>2019-08-28T10:05:01.999Z</time>
      </trkpt>
      <trkpt lat="53.169598" lon="10.025725">
        <ele>57.211832</ele>
        <time>2019-08-28T10:05:10.999Z</time>
      </trkpt>
      <trkpt lat="53.169505" lon="10.025744">
        <ele>57.201258</ele>
        <time>2019-08-28T10:05:18.999Z</time>
      </trkpt>
      <trkpt lat="53.169413" lon="10.025721">
        <ele>57.190760</ele>
        <time>2019-08-28T10:05:26.999Z</time>
      </trkpt>
      <trkpt lat="53.169318" lon="10.025731">
        <ele>57.180017</ele>
        <time>2019-08-28T10:05:36.999Z</time>
      </trkpt>
      <trkpt lat="53.169224" lon="10.025735">
        <ele>57.169405</ele>
        <time>2019-08-28T10:05:44.999Z</time>
      </trkpt>
      <trkpt lat="53.169118" lon="10.025719">
        <ele>57.157394</ele>
        <time>2019-08-28T10:05:52.997Z</time>
      </trkpt>
      <trkpt lat="53.169023" lon="10.025757">
        <ele>57.146368</ele>
        <time>2019-08-28T10:06:00.997Z</time>
      </trkpt>
      <trkpt lat="53.168925" lon="10.025779">
        <ele>57.135209</ele>
        <time>2019-08-28T10:06:07.997Z</time>
      </trkpt>
      <trkpt lat="53.168830" lon="10.025774">
        <ele>57.124482</ele>
        <time>2019-08-28T10:06:15.998Z</time>
      </trkpt>
      <trkpt lat="53.168746" lon="10.025825">
        <ele>57.114394</ele>
        <time>2019-08-28T10:06:24.998Z</time>
      </trkpt>
      <trkpt lat="53.168646" lon="10.025834">
        <ele>57.103092</ele>
        <time>2019-08-28T10:06:35.998Z</time>
      </trkpt>
      <trkpt lat="53.168541" lon="10.025866">
        <ele>57.091046</ele>
        <time>2019-08-28T10:06:43.998Z</time>
      </trkpt>
      <trkpt lat="53.168448" lon="10.025863">
        <ele>57.080549</ele>
        <time>2019-08-28T10:06:50.998Z</time>
      </trkpt>
      <trkpt lat="53.168360" lon="10.025909">
        <ele>57.070141</ele>
        <time>2019-08-28T10:06:56.998Z</time>
      </trkpt>
      <trkpt lat="53.168263" lon="10.025937">
        <ele>57.059032</ele>
        <time>2019-08-28T10:07:04.998Z</time>
      </trkpt>
      <trkpt lat="53.168169" lon="10.025989">
        <ele>57.045274</ele>
        <time>2019-08-28T10:07:15.998Z</time>
      </trkpt>
      <trkpt lat="53.168076" lon="10.026010">
        <ele>57.025779</ele>
        <time>2019-08-28T10:07:31.998Z</time>
      </trkpt>
      <trkpt lat="53.167981" lon="10.026024">
        <ele>57.005967</ele>
        <time>2019-08-28T10:07:40.998Z</time>
      </trkpt>
      <trkpt lat="53.167881" lon="10.026056">
        <ele>56.984815</ele>
        <time>2019-08-28T10:07:49.998Z</time>
      </trkpt>
      <trkpt lat="53.167788" lon="10.026071">
        <ele>56.965406</ele>
        <time>2019-08-28T10:07:56.998Z</time>
      </trkpt>
      <trkpt lat="53.167695" lon="10.026041">
        <ele>56.945729</ele>
        <time>2019-08-28T10:08:05.998Z</time>
      </trkpt>
      <trkpt lat="53.167604" lon="10.026010">
        <ele>56.926435</ele>
        <time>2019-08-28T10:08:16.998Z</time>
      </trkpt>
      <trkpt lat="53.167497" lon="10.026042">
        <ele>56.903853</ele>
        <time>2019-08-28T10:08:26.998Z</time>
      </trkpt>
      <trkpt lat="53.167272" lon="10.026131">
        <ele>56.855817</ele>
        <time>2019-08-28T10:09:42.997Z</time>
      </trkpt>
      <trkpt lat="53.167165" lon="10.026127">
        <ele>56.833584</ele>
        <time>2019-08-28T10:09:52.997Z</time>
      </trkpt>
      <trkpt lat="53.167074" lon="10.026115">
        <ele>56.814621</ele>
        <time>2019-08-28T10:10:00.997Z</time>
      </trkpt>
      <trkpt lat="53.166977" lon="10.026099">
        <ele>56.794373</ele>
        <time>2019-08-28T10:10:08.997Z</time>
      </trkpt>
      <trkpt lat="53.166880" lon="10.026124">
        <ele>56.773984</ele>
        <time>2019-08-28T10:10:16.997Z</time>
      </trkpt>
      <trkpt lat="53.166780" lon="10.026111">
        <ele>56.753147</ele>
        <time>2019-08-28T10:10:23.997Z</time>
      </trkpt>
      <trkpt lat="53.166682" lon="10.026116">
        <ele>56.732780</ele>
        <time>2019-08-28T10:10:31.997Z</time>
      </trkpt>
      <trkpt lat="53.166582" lon="10.026139">
        <ele>56.711810</ele>
        <time>2019-08-28T10:10:39.997Z</time>
      </trkpt>
      <trkpt lat="53.166492" lon="10.026155">
        <ele>56.693008</ele>
        <time>2019-08-28T10:10:48.997Z</time>
      </trkpt>
      <trkpt lat="53.166398" lon="10.026157">
        <ele>56.672678</ele>
        <time>2019-08-28T10:10:57.997Z</time>
      </trkpt>
      <trkpt lat="53.166309" lon="10.026125">
        <ele>56.649780</ele>
        <time>2019-08-28T10:11:06.997Z</time>
      </trkpt>
      <trkpt lat="53.166215" lon="10.026149">
        <ele>56.625864</ele>
        <time>2019-08-28T10:11:14.997Z</time>
      </trkpt>
      <trkpt lat="53.166110" lon="10.026180">
        <ele>56.599046</ele>
        <time>2019-08-28T10:11:22.997Z</time>
      </trkpt>
      <trkpt lat="53.166022" lon="10.026209">
        <ele>56.576487</ele>
        <time>2019-08-28T10:11:28.997Z</time>
      </trkpt>
      <trkpt lat="53.165923" lon="10.026214">
        <ele>56.551577</ele>
        <time>2019-08-28T10:11:37.997Z</time>
      </trkpt>
      <trkpt lat="53.165825" lon="10.026199">
        <ele>56.526827</ele>
        <time>2019-08-28T10:11:45.997Z</time>
      </trkpt>
      <trkpt lat="53.165722" lon="10.026245">
        <ele>56.500010</ele>
        <time>2019-08-28T10:11:52.998Z</time>
      </trkpt>
      <trkpt lat="53.165650" lon="10.026360">
        <ele>56.474940</ele>
        <time>2019-08-28T10:12:01.998Z</time>
      </trkpt>
      <trkpt lat="53.165613" lon="10.026503">
        <ele>56.451457</ele>
        <time>2019-08-28T10:12:17.998Z</time>
      </trkpt>
      <trkpt lat="53.165620" lon="10.026659">
        <ele>56.427870</ele>
        <time>2019-08-28T10:12:24.998Z</time>
      </trkpt>
      <trkpt lat="53.165617" lon="10.026809">
        <ele>56.405242</ele>
        <time>2019-08-28T10:12:33.998Z</time>
      </trkpt>
      <trkpt lat="53.165621" lon="10.026960">
        <ele>56.382453</ele>
        <time>2019-08-28T10:12:40.998Z</time>
      </trkpt>
      <trkpt lat="53.165603" lon="10.027125">
        <ele>56.357167</ele>
        <time>2019-08-28T10:12:48.998Z</time>
      </trkpt>
      <trkpt lat="53.165614" lon="10.027279">
        <ele>56.333783</ele>
        <time>2019-08-28T10:12:54.998Z</time>
      </trkpt>
      <trkpt lat="53.165639" lon="10.027441">
        <ele>56.308562</ele>
        <time>2019-08-28T10:13:03.998Z</time>
      </trkpt>
      <trkpt lat="53.165605" lon="10.027584">
        <ele>56.285367</ele>
        <time>2019-08-28T10:13:10.998Z</time>
      </trkpt>
      <trkpt lat="53.165602" lon="10.027744">
        <ele>56.261232</ele>
        <time>2019-08-28T10:13:19.998Z</time>
      </trkpt>
      <trkpt lat="53.165617" lon="10.027896">
        <ele>56.238006</ele>
        <time>2019-08-28T10:13:27.998Z</time>
      </trkpt>
      <trkpt lat="53.165633" lon="10.028069">
        <ele>56.260001</ele>
        <time>2019-08-28T10:13:36.998Z</time>
      </trkpt>
      <trkpt lat="53.165819" lon="10.028235">
        <ele>56.399670</ele>
        <time>2019-08-28T10:44:24.998Z</time>
      </trkpt>
      <trkpt lat="53.165822" lon="10.027883">
        <ele>56.539403</ele>
        <time>2019-08-28T10:45:40.998Z</time>
      </trkpt>
      <trkpt lat="53.165810" lon="10.027716">
        <ele>56.606164</ele>
        <time>2019-08-28T10:45:46.998Z</time>
      </trkpt>
      <trkpt lat="53.165824" lon="10.027560">
        <ele>56.668774</ele>
        <time>2019-08-28T10:45:51.998Z</time>
      </trkpt>
      <trkpt lat="53.165785" lon="10.027401">
        <ele>56.736964</ele>
        <time>2019-08-28T10:45:58.998Z</time>
      </trkpt>
      <trkpt lat="53.165736" lon="10.027272">
        <ele>56.797580</ele>
        <time>2019-08-28T10:46:03.998Z</time>
      </trkpt>
      <trkpt lat="53.165686" lon="10.027147">
        <ele>56.857226</ele>
        <time>2019-08-28T10:46:09.998Z</time>
      </trkpt>
      <trkpt lat="53.165614" lon="10.027046">
        <ele>56.919514</ele>
        <time>2019-08-28T10:46:16.998Z</time>
      </trkpt>
      <trkpt lat="53.165515" lon="10.027054">
        <ele>56.985138</ele>
        <time>2019-08-28T10:46:22.998Z</time>
      </trkpt>
      <trkpt lat="53.165423" lon="10.027087">
        <ele>57.047443</ele>
        <time>2019-08-28T10:46:28.998Z</time>
      </trkpt>
      <trkpt lat="53.165314" lon="10.027119">
        <ele>57.120721</ele>
        <time>2019-08-28T10:46:33.998Z</time>
      </trkpt>
      <trkpt lat="53.165212" lon="10.027163">
        <ele>57.190476</ele>
        <time>2019-08-28T10:46:39.998Z</time>
      </trkpt>
      <trkpt lat="53.165114" lon="10.027194">
        <ele>57.256518</ele>
        <time>2019-08-28T10:46:45.998Z</time>
      </trkpt>
      <trkpt lat="53.165025" lon="10.027260">
        <ele>57.321006</ele>
        <time>2019-08-28T10:46:52.998Z</time>
      </trkpt>
      <trkpt lat="53.164940" lon="10.027311">
        <ele>57.380814</ele>
        <time>2019-08-28T10:47:00.998Z</time>
      </trkpt>
      <trkpt lat="53.164848" lon="10.027318">
        <ele>57.425773</ele>
        <time>2019-08-28T10:47:07.998Z</time>
      </trkpt>
      <trkpt lat="53.164758" lon="10.027290">
        <ele>57.449022</ele>
        <time>2019-08-28T10:47:14.998Z</time>
      </trkpt>
      <trkpt lat="53.164664" lon="10.027288">
        <ele>57.472894</ele>
        <time>2019-08-28T10:47:23.000Z</time>
      </trkpt>
      <trkpt lat="53.164573" lon="10.027276">
        <ele>57.496075</ele>
        <time>2019-08-28T10:47:30.000Z</time>
      </trkpt>
      <trkpt lat="53.164485" lon="10.027210">
        <ele>57.520577</ele>
        <time>2019-08-28T10:47:37.999Z</time>
      </trkpt>
      <trkpt lat="53.164395" lon="10.027164">
        <ele>57.544480</ele>
        <time>2019-08-28T10:47:45.999Z</time>
      </trkpt>
      <trkpt lat="53.164305" lon="10.027130">
        <ele>57.567914</ele>
        <time>2019-08-28T10:47:52.999Z</time>
      </trkpt>
      <trkpt lat="53.164210" lon="10.027106">
        <ele>57.592313</ele>
        <time>2019-08-28T10:47:59.999Z</time>
      </trkpt>
      <trkpt lat="53.164118" lon="10.027058">
        <ele>57.616792</ele>
        <time>2019-08-28T10:48:05.999Z</time>
      </trkpt>
      <trkpt lat="53.164025" lon="10.027026">
        <ele>57.640906</ele>
        <time>2019-08-28T10:48:13.999Z</time>
      </trkpt>
      <trkpt lat="53.163949" lon="10.026930">
        <ele>57.665115</ele>
        <time>2019-08-28T10:48:21.999Z</time>
      </trkpt>
      <trkpt lat="53.163884" lon="10.026809">
        <ele>57.689850</ele>
        <time>2019-08-28T10:48:31.999Z</time>
      </trkpt>
      <trkpt lat="53.163832" lon="10.026685">
        <ele>57.712888</ele>
        <time>2019-08-28T10:48:38.999Z</time>
      </trkpt>
      <trkpt lat="53.163764" lon="10.026564">
        <ele>57.738138</ele>
        <time>2019-08-28T10:48:47.999Z</time>
      </trkpt>
      <trkpt lat="53.163714" lon="10.026423">
        <ele>57.763078</ele>
        <time>2019-08-28T10:48:55.999Z</time>
      </trkpt>
      <trkpt lat="53.163647" lon="10.026304">
        <ele>57.787932</ele>
        <time>2019-08-28T10:49:03.999Z</time>
      </trkpt>
      <trkpt lat="53.163594" lon="10.026177">
        <ele>57.811490</ele>
        <time>2019-08-28T10:49:11.999Z</time>
      </trkpt>
      <trkpt lat="53.163512" lon="10.026088">
        <ele>57.836334</ele>
        <time>2019-08-28T10:49:19.999Z</time>
      </trkpt>
      <trkpt lat="53.163446" lon="10.025961">
        <ele>57.861922</ele>
        <time>2019-08-28T10:49:28.999Z</time>
      </trkpt>
      <trkpt lat="53.163384" lon="10.025830">
        <ele>57.912747</ele>
        <time>2019-08-28T10:49:37.999Z</time>
      </trkpt>
      <trkpt lat="53.163306" lon="10.025719">
        <ele>57.983571</ele>
        <time>2019-08-28T10:49:45.999Z</time>
      </trkpt>
      <trkpt lat="53.163235" lon="10.025619">
        <ele>58.047760</ele>
        <time>2019-08-28T10:49:52.999Z</time>
      </trkpt>
      <trkpt lat="53.163165" lon="10.025499">
        <ele>58.117097</ele>
        <time>2019-08-28T10:50:01.999Z</time>
      </trkpt>
      <trkpt lat="53.163086" lon="10.025400">
        <ele>58.185351</ele>
        <time>2019-08-28T10:50:08.999Z</time>
      </trkpt>
      <trkpt lat="53.163020" lon="10.025287">
        <ele>58.250684</ele>
        <time>2019-08-28T10:50:15.999Z</time>
      </trkpt>
      <trkpt lat="53.162925" lon="10.025227">
        <ele>58.320852</ele>
        <time>2019-08-28T10:50:22.999Z</time>
      </trkpt>
      <trkpt lat="53.162855" lon="10.025118">
        <ele>58.387000</ele>
        <time>2019-08-28T10:50:30.998Z</time>
      </trkpt>
      <trkpt lat="53.162815" lon="10.024971">
        <ele>58.453854</ele>
        <time>2019-08-28T10:50:37.998Z</time>
      </trkpt>
      <trkpt lat="53.162768" lon="10.024832">
        <ele>58.519943</ele>
        <time>2019-08-28T10:50:45.998Z</time>
      </trkpt>
      <trkpt lat="53.162698" lon="10.024730">
        <ele>58.584148</ele>
        <time>2019-08-28T10:50:54.998Z</time>
      </trkpt>
      <trkpt lat="53.162628" lon="10.024636">
        <ele>58.646223</ele>
        <time>2019-08-28T10:51:01.997Z</time>
      </trkpt>
      <trkpt lat="53.162578" lon="10.024507">
        <ele>58.709839</ele>
        <time>2019-08-28T10:51:08.997Z</time>
      </trkpt>
      <trkpt lat="53.162550" lon="10.024354">
        <ele>58.776087</ele>
        <time>2019-08-28T10:51:18.997Z</time>
      </trkpt>
      <trkpt lat="53.162446" lon="10.024214">
        <ele>58.868403</ele>
        <time>2019-08-28T10:52:24.997Z</time>
      </trkpt>
      <trkpt lat="53.162334" lon="10.023957">
        <ele>58.999983</ele>
        <time>2019-08-28T10:53:00.997Z</time>
      </trkpt>
      <trkpt lat="53.162270" lon="10.023839">
        <ele>59.065880</ele>
        <time>2019-08-28T10:53:09.997Z</time>
      </trkpt>
      <trkpt lat="53.162219" lon="10.023715">
        <ele>59.137370</ele>
        <time>2019-08-28T10:53:16.997Z</time>
      </trkpt>
      <trkpt lat="53.162148" lon="10.023479">
        <ele>59.323120</ele>
        <time>2019-08-28T10:56:00.998Z</time>
      </trkpt>
      <trkpt lat="53.162092" lon="10.023350">
        <ele>59.435158</ele>
        <time>2019-08-28T10:56:07.998Z</time>
      </trkpt>
      <trkpt lat="53.162036" lon="10.023220">
        <ele>59.547768</ele>
        <time>2019-08-28T10:56:14.998Z</time>
      </trkpt>
      <trkpt lat="53.161968" lon="10.023115">
        <ele>59.656497</ele>
        <time>2019-08-28T10:56:21.998Z</time>
      </trkpt>
      <trkpt lat="53.161896" lon="10.023021">
        <ele>59.763781</ele>
        <time>2019-08-28T10:56:30.998Z</time>
      </trkpt>
      <trkpt lat="53.161820" lon="10.022935">
        <ele>59.871540</ele>
        <time>2019-08-28T10:56:36.998Z</time>
      </trkpt>
      <trkpt lat="53.161752" lon="10.022821">
        <ele>59.984666</ele>
        <time>2019-08-28T10:56:43.998Z</time>
      </trkpt>
      <trkpt lat="53.161704" lon="10.022681">
        <ele>60.098120</ele>
        <time>2019-08-28T10:56:51.998Z</time>
      </trkpt>
      <trkpt lat="53.161641" lon="10.022572">
        <ele>60.204629</ele>
        <time>2019-08-28T10:56:58.998Z</time>
      </trkpt>
      <trkpt lat="53.161596" lon="10.022440">
        <ele>60.311450</ele>
        <time>2019-08-28T10:57:06.998Z</time>
      </trkpt>
      <trkpt lat="53.161535" lon="10.022301">
        <ele>60.432630</ele>
        <time>2019-08-28T10:57:14.998Z</time>
      </trkpt>
      <trkpt lat="53.161474" lon="10.022175">
        <ele>60.546559</ele>
        <time>2019-08-28T10:57:21.998Z</time>
      </trkpt>
      <trkpt lat="53.161411" lon="10.022037">
        <ele>60.668580</ele>
        <time>2019-08-28T10:57:29.997Z</time>
      </trkpt>
      <trkpt lat="53.161361" lon="10.021899">
        <ele>60.782011</ele>
        <time>2019-08-28T10:57:36.997Z</time>
      </trkpt>
      <trkpt lat="53.161327" lon="10.021760">
        <ele>60.887621</ele>
        <time>2019-08-28T10:57:43.997Z</time>
      </trkpt>
      <trkpt lat="53.161287" lon="10.021623">
        <ele>60.994819</ele>
        <time>2019-08-28T10:57:53.997Z</time>
      </trkpt>
      <trkpt lat="53.161243" lon="10.021338">
        <ele>61.201855</ele>
        <time>2019-08-28T10:59:50.997Z</time>
      </trkpt>
      <trkpt lat="53.161197" lon="10.021208">
        <ele>61.294915</ele>
        <time>2019-08-28T10:59:56.997Z</time>
      </trkpt>
      <trkpt lat="53.161133" lon="10.021072">
        <ele>61.397218</ele>
        <time>2019-08-28T11:00:02.997Z</time>
      </trkpt>
      <trkpt lat="53.161082" lon="10.020922">
        <ele>61.499257</ele>
        <time>2019-08-28T11:00:08.997Z</time>
      </trkpt>
      <trkpt lat="53.161070" lon="10.020757">
        <ele>61.597609</ele>
        <time>2019-08-28T11:00:16.997Z</time>
      </trkpt>
      <trkpt lat="53.161044" lon="10.020593">
        <ele>61.697988</ele>
        <time>2019-08-28T11:00:25.997Z</time>
      </trkpt>
      <trkpt lat="53.161048" lon="10.020426">
        <ele>61.796887</ele>
        <time>2019-08-28T11:00:32.997Z</time>
      </trkpt>
      <trkpt lat="53.160997" lon="10.020285">
        <ele>61.894328</ele>
        <time>2019-08-28T11:00:42.997Z</time>
      </trkpt>
      <trkpt lat="53.160932" lon="10.020159">
        <ele>61.992686</ele>
        <time>2019-08-28T11:00:50.997Z</time>
      </trkpt>
      <trkpt lat="53.160880" lon="10.020033">
        <ele>62.083200</ele>
        <time>2019-08-28T11:00:56.996Z</time>
      </trkpt>
      <trkpt lat="53.160836" lon="10.019887">
        <ele>62.179894</ele>
        <time>2019-08-28T11:01:04.996Z</time>
      </trkpt>
      <trkpt lat="53.160778" lon="10.019753">
        <ele>62.277690</ele>
        <time>2019-08-28T11:01:13.996Z</time>
      </trkpt>
      <trkpt lat="53.160731" lon="10.019625">
        <ele>62.366507</ele>
        <time>2019-08-28T11:01:21.996Z</time>
      </trkpt>
      <trkpt lat="53.160685" lon="10.019485">
        <ele>62.460975</ele>
        <time>2019-08-28T11:01:28.996Z</time>
      </trkpt>
      <trkpt lat="53.160640" lon="10.019341">
        <ele>62.557065</ele>
        <time>2019-08-28T11:01:35.998Z</time>
      </trkpt>
      <trkpt lat="53.160585" lon="10.019217">
        <ele>62.648336</ele>
        <time>2019-08-28T11:01:43.998Z</time>
      </trkpt>
      <trkpt lat="53.160436" lon="10.018910">
        <ele>62.882060</ele>
        <time>2019-08-28T11:02:14.999Z</time>
      </trkpt>
      <trkpt lat="53.160384" lon="10.018780">
        <ele>62.974534</ele>
        <time>2019-08-28T11:02:20.999Z</time>
      </trkpt>
      <trkpt lat="53.160327" lon="10.018661">
        <ele>63.070911</ele>
        <time>2019-08-28T11:02:28.999Z</time>
      </trkpt>
      <trkpt lat="53.160276" lon="10.018518">
        <ele>63.178959</ele>
        <time>2019-08-28T11:02:36.999Z</time>
      </trkpt>
      <trkpt lat="53.160207" lon="10.018384">
        <ele>63.293662</ele>
        <time>2019-08-28T11:02:45.999Z</time>
      </trkpt>
      <trkpt lat="53.160153" lon="10.018261">
        <ele>63.392659</ele>
        <time>2019-08-28T11:02:52.999Z</time>
      </trkpt>
      <trkpt lat="53.160111" lon="10.018128">
        <ele>63.490274</ele>
        <time>2019-08-28T11:03:00.999Z</time>
      </trkpt>
      <trkpt lat="53.160052" lon="10.017996">
        <ele>63.597190</ele>
        <time>2019-08-28T11:03:08.999Z</time>
      </trkpt>
      <trkpt lat="53.160012" lon="10.017853">
        <ele>63.699661</ele>
        <time>2019-08-28T11:03:16.999Z</time>
      </trkpt>
      <trkpt lat="53.159956" lon="10.017728">
        <ele>63.800991</ele>
        <time>2019-08-28T11:03:25.999Z</time>
      </trkpt>
      <trkpt lat="53.159928" lon="10.017572">
        <ele>63.906737</ele>
        <time>2019-08-28T11:03:33.999Z</time>
      </trkpt>
      <trkpt lat="53.159899" lon="10.017411">
        <ele>64.015905</ele>
        <time>2019-08-28T11:03:41.999Z</time>
      </trkpt>
      <trkpt lat="53.159818" lon="10.017143">
        <ele>64.210802</ele>
        <time>2019-08-28T11:04:40.998Z</time>
      </trkpt>
      <trkpt lat="53.159757" lon="10.017014">
        <ele>64.317491</ele>
        <time>2019-08-28T11:04:47.998Z</time>
      </trkpt>
      <trkpt lat="53.159737" lon="10.016858">
        <ele>64.421086</ele>
        <time>2019-08-28T11:04:56.998Z</time>
      </trkpt>
      <trkpt lat="53.159640" lon="10.016548">
        <ele>64.648161</ele>
        <time>2019-08-28T11:05:35.998Z</time>
      </trkpt>
      <trkpt lat="53.159552" lon="10.016290">
        <ele>64.840917</ele>
        <time>2019-08-28T11:06:09.998Z</time>
      </trkpt>
      <trkpt lat="53.159491" lon="10.015992">
        <ele>65.104233</ele>
        <time>2019-08-28T11:06:39.998Z</time>
      </trkpt>
      <trkpt lat="53.159460" lon="10.015841">
        <ele>65.270853</ele>
        <time>2019-08-28T11:06:48.998Z</time>
      </trkpt>
      <trkpt lat="53.159433" lon="10.015688">
        <ele>65.437350</ele>
        <time>2019-08-28T11:06:55.998Z</time>
      </trkpt>
      <trkpt lat="53.159391" lon="10.015550">
        <ele>65.598911</ele>
        <time>2019-08-28T11:07:04.998Z</time>
      </trkpt>
      <trkpt lat="53.159355" lon="10.015406">
        <ele>65.761783</ele>
        <time>2019-08-28T11:07:11.998Z</time>
      </trkpt>
      <trkpt lat="53.159317" lon="10.015263">
        <ele>65.925072</ele>
        <time>2019-08-28T11:07:18.998Z</time>
      </trkpt>
      <trkpt lat="53.159265" lon="10.015132">
        <ele>66.089082</ele>
        <time>2019-08-28T11:07:26.998Z</time>
      </trkpt>
      <trkpt lat="53.159218" lon="10.015004">
        <ele>66.245773</ele>
        <time>2019-08-28T11:07:33.998Z</time>
      </trkpt>
      <trkpt lat="53.159187" lon="10.014850">
        <ele>66.415360</ele>
        <time>2019-08-28T11:07:43.997Z</time>
      </trkpt>
      <trkpt lat="53.159124" lon="10.014721">
        <ele>66.589048</ele>
        <time>2019-08-28T11:07:51.997Z</time>
      </trkpt>
      <trkpt lat="53.159081" lon="10.014585">
        <ele>66.749555</ele>
        <time>2019-08-28T11:07:58.997Z</time>
      </trkpt>
      <trkpt lat="53.159010" lon="10.014472">
        <ele>66.920428</ele>
        <time>2019-08-28T11:08:06.997Z</time>
      </trkpt>
      <trkpt lat="53.158976" lon="10.014322">
        <ele>67.087837</ele>
        <time>2019-08-28T11:08:14.997Z</time>
      </trkpt>
      <trkpt lat="53.158947" lon="10.014177">
        <ele>67.247409</ele>
        <time>2019-08-28T11:08:22.997Z</time>
      </trkpt>
      <trkpt lat="53.158923" lon="10.014028">
        <ele>67.408473</ele>
        <time>2019-08-28T11:08:30.997Z</time>
      </trkpt>
      <trkpt lat="53.158908" lon="10.013866">
        <ele>67.579599</ele>
        <time>2019-08-28T11:08:38.999Z</time>
      </trkpt>
      <trkpt lat="53.158884" lon="10.013709">
        <ele>67.748743</ele>
        <time>2019-08-28T11:08:46.999Z</time>
      </trkpt>
      <trkpt lat="53.158864" lon="10.013555">
        <ele>67.913240</ele>
        <time>2019-08-28T11:08:54.999Z</time>
      </trkpt>
      <trkpt lat="53.158845" lon="10.013395">
        <ele>68.081719</ele>
        <time>2019-08-28T11:09:02.999Z</time>
      </trkpt>
      <trkpt lat="53.158825" lon="10.013224">
        <ele>68.165544</ele>
        <time>2019-08-28T11:09:10.999Z</time>
      </trkpt>
      <trkpt lat="53.158810" lon="10.013065">
        <ele>68.242985</ele>
        <time>2019-08-28T11:09:18.999Z</time>
      </trkpt>
      <trkpt lat="53.158780" lon="10.012913">
        <ele>68.319978</ele>
        <time>2019-08-28T11:09:26.999Z</time>
      </trkpt>
      <trkpt lat="53.158741" lon="10.012769">
        <ele>68.396001</ele>
        <time>2019-08-28T11:09:34.999Z</time>
      </trkpt>
      <trkpt lat="53.158738" lon="10.012618">
        <ele>68.468692</ele>
        <time>2019-08-28T11:09:42.999Z</time>
      </trkpt>
      <trkpt lat="53.158759" lon="10.012470">
        <ele>68.541867</ele>
        <time>2019-08-28T11:09:50.999Z</time>
      </trkpt>
      <trkpt lat="53.158770" lon="10.012308">
        <ele>68.620309</ele>
        <time>2019-08-28T11:09:59.999Z</time>
      </trkpt>
      <trkpt lat="53.158780" lon="10.012144">
        <ele>68.699622</ele>
        <time>2019-08-28T11:10:07.999Z</time>
      </trkpt>
      <trkpt lat="53.158787" lon="10.011993">
        <ele>68.772491</ele>
        <time>2019-08-28T11:10:15.999Z</time>
      </trkpt>
      <trkpt lat="53.158813" lon="10.011838">
        <ele>68.849930</ele>
        <time>2019-08-28T11:10:23.999Z</time>
      </trkpt>
      <trkpt lat="53.158837" lon="10.011693">
        <ele>68.922304</ele>
        <time>2019-08-28T11:10:30.999Z</time>
      </trkpt>
      <trkpt lat="53.158852" lon="10.011545">
        <ele>68.994522</ele>
        <time>2019-08-28T11:10:37.999Z</time>
      </trkpt>
      <trkpt lat="53.158890" lon="10.011390">
        <ele>69.075090</ele>
        <time>2019-08-28T11:10:45.999Z</time>
      </trkpt>
      <trkpt lat="53.158910" lon="10.011234">
        <ele>69.151844</ele>
        <time>2019-08-28T11:10:53.999Z</time>
      </trkpt>
      <trkpt lat="53.158903" lon="10.011073">
        <ele>69.229510</ele>
        <time>2019-08-28T11:11:01.999Z</time>
      </trkpt>
      <trkpt lat="53.158859" lon="10.010820">
        <ele>69.356254</ele>
        <time>2019-08-28T11:11:24.999Z</time>
      </trkpt>
      <trkpt lat="53.158789" lon="10.010679">
        <ele>69.444329</ele>
        <time>2019-08-28T11:11:32.999Z</time>
      </trkpt>
      <trkpt lat="53.158723" lon="10.010543">
        <ele>69.531191</ele>
        <time>2019-08-28T11:11:40.998Z</time>
      </trkpt>
      <trkpt lat="53.158661" lon="10.010426">
        <ele>69.646205</ele>
        <time>2019-08-28T11:11:46.998Z</time>
      </trkpt>
      <trkpt lat="53.158581" lon="10.010336">
        <ele>69.764751</ele>
        <time>2019-08-28T11:11:54.998Z</time>
      </trkpt>
      <trkpt lat="53.158503" lon="10.010242">
        <ele>69.882970</ele>
        <time>2019-08-28T11:12:00.998Z</time>
      </trkpt>
      <trkpt lat="53.158436" lon="10.010119">
        <ele>70.005375</ele>
        <time>2019-08-28T11:12:08.998Z</time>
      </trkpt>
      <trkpt lat="53.158365" lon="10.010015">
        <ele>70.121462</ele>
        <time>2019-08-28T11:12:16.998Z</time>
      </trkpt>
      <trkpt lat="53.158295" lon="10.009901">
        <ele>70.241653</ele>
        <time>2019-08-28T11:12:24.998Z</time>
      </trkpt>
      <trkpt lat="53.158233" lon="10.009791">
        <ele>70.352857</ele>
        <time>2019-08-28T11:12:32.998Z</time>
      </trkpt>
      <trkpt lat="53.158168" lon="10.009684">
        <ele>70.465053</ele>
        <time>2019-08-28T11:12:39.998Z</time>
      </trkpt>
      <trkpt lat="53.158088" lon="10.009579">
        <ele>70.590115</ele>
        <time>2019-08-28T11:12:47.998Z</time>
      </trkpt>
      <trkpt lat="53.158021" lon="10.009450">
        <ele>70.715827</ele>
        <time>2019-08-28T11:12:56.998Z</time>
      </trkpt>
      <trkpt lat="53.157966" lon="10.009309">
        <ele>70.839731</ele>
        <time>2019-08-28T11:13:03.998Z</time>
      </trkpt>
      <trkpt lat="53.157895" lon="10.009189">
        <ele>70.963912</ele>
        <time>2019-08-28T11:13:11.998Z</time>
      </trkpt>
      <trkpt lat="53.157848" lon="10.009048">
        <ele>71.082743</ele>
        <time>2019-08-28T11:13:18.998Z</time>
      </trkpt>
      <trkpt lat="53.157792" lon="10.008930">
        <ele>71.193592</ele>
        <time>2019-08-28T11:13:25.998Z</time>
      </trkpt>
      <trkpt lat="53.157716" lon="10.008835">
        <ele>71.310270</ele>
        <time>2019-08-28T11:13:33.997Z</time>
      </trkpt>
      <trkpt lat="53.157630" lon="10.008778">
        <ele>71.423955</ele>
        <time>2019-08-28T11:13:40.997Z</time>
      </trkpt>
      <trkpt lat="53.157549" lon="10.008678">
        <ele>71.547759</ele>
        <time>2019-08-28T11:13:51.997Z</time>
      </trkpt>
      <trkpt lat="53.157478" lon="10.008582">
        <ele>71.660045</ele>
        <time>2019-08-28T11:13:58.997Z</time>
      </trkpt>
      <trkpt lat="53.157383" lon="10.008523">
        <ele>71.779949</ele>
        <time>2019-08-28T11:14:06.997Z</time>
      </trkpt>
      <trkpt lat="53.157293" lon="10.008499">
        <ele>71.881858</ele>
        <time>2019-08-28T11:14:15.997Z</time>
      </trkpt>
      <trkpt lat="53.157219" lon="10.008399">
        <ele>71.988353</ele>
        <time>2019-08-28T11:14:23.997Z</time>
      </trkpt>
      <trkpt lat="53.157074" lon="10.008277">
        <ele>72.169946</ele>
        <time>2019-08-28T11:15:51.998Z</time>
      </trkpt>
      <trkpt lat="53.156985" lon="10.008204">
        <ele>72.280843</ele>
        <time>2019-08-28T11:15:58.998Z</time>
      </trkpt>
      <trkpt lat="53.156918" lon="10.008101">
        <ele>72.382730</ele>
        <time>2019-08-28T11:16:04.998Z</time>
      </trkpt>
      <trkpt lat="53.156833" lon="10.008003">
        <ele>72.498271</ele>
        <time>2019-08-28T11:16:11.998Z</time>
      </trkpt>
      <trkpt lat="53.156759" lon="10.007917">
        <ele>72.599121</ele>
        <time>2019-08-28T11:16:19.998Z</time>
      </trkpt>
      <trkpt lat="53.156684" lon="10.007822">
        <ele>72.704427</ele>
        <time>2019-08-28T11:16:26.998Z</time>
      </trkpt>
      <trkpt lat="53.156617" lon="10.007701">
        <ele>72.814851</ele>
        <time>2019-08-28T11:16:35.998Z</time>
      </trkpt>
      <trkpt lat="53.156551" lon="10.007580">
        <ele>72.924520</ele>
        <time>2019-08-28T11:16:44.998Z</time>
      </trkpt>
      <trkpt lat="53.156508" lon="10.007442">
        <ele>73.028790</ele>
        <time>2019-08-28T11:16:55.998Z</time>
      </trkpt>
      <trkpt lat="53.156532" lon="10.007287">
        <ele>73.136120</ele>
        <time>2019-08-28T11:17:04.998Z</time>
      </trkpt>
      <trkpt lat="53.156590" lon="10.007148">
        <ele>73.249658</ele>
        <time>2019-08-28T11:17:12.998Z</time>
      </trkpt>
      <trkpt lat="53.156627" lon="10.007010">
        <ele>73.351009</ele>
        <time>2019-08-28T11:17:19.998Z</time>
      </trkpt>
      <trkpt lat="53.156675" lon="10.006875">
        <ele>73.456237</ele>
        <time>2019-08-28T11:17:27.998Z</time>
      </trkpt>
      <trkpt lat="53.156714" lon="10.006737">
        <ele>73.558521</ele>
        <time>2019-08-28T11:17:34.998Z</time>
      </trkpt>
      <trkpt lat="53.156745" lon="10.006587">
        <ele>73.664896</ele>
        <time>2019-08-28T11:17:44.998Z</time>
      </trkpt>
      <trkpt lat="53.156786" lon="10.006446">
        <ele>73.799774</ele>
        <time>2019-08-28T11:17:51.998Z</time>
      </trkpt>
      <trkpt lat="53.156830" lon="10.006298">
        <ele>74.038429</ele>
        <time>2019-08-28T11:18:00.998Z</time>
      </trkpt>
      <trkpt lat="53.156854" lon="10.006143">
        <ele>74.269704</ele>
        <time>2019-08-28T11:18:09.998Z</time>
      </trkpt>
      <trkpt lat="53.156895" lon="10.005998">
        <ele>74.501309</ele>
        <time>2019-08-28T11:18:17.998Z</time>
      </trkpt>
      <trkpt lat="53.156931" lon="10.005860">
        <ele>74.718729</ele>
        <time>2019-08-28T11:18:25.998Z</time>
      </trkpt>
      <trkpt lat="53.156965" lon="10.005713">
        <ele>74.946352</ele>
        <time>2019-08-28T11:18:34.998Z</time>
      </trkpt>
      <trkpt lat="53.157005" lon="10.005557">
        <ele>75.191467</ele>
        <time>2019-08-28T11:18:42.998Z</time>
      </trkpt>
      <trkpt lat="53.157042" lon="10.005412">
        <ele>75.419128</ele>
        <time>2019-08-28T11:18:49.998Z</time>
      </trkpt>
      <trkpt lat="53.157065" lon="10.005264">
        <ele>75.640008</ele>
        <time>2019-08-28T11:19:03.997Z</time>
      </trkpt>
      <trkpt lat="53.157119" lon="10.005127">
        <ele>75.876864</ele>
        <time>2019-08-28T11:19:13.997Z</time>
      </trkpt>
      <trkpt lat="53.157146" lon="10.004978">
        <ele>76.101739</ele>
        <time>2019-08-28T11:19:24.997Z</time>
      </trkpt>
      <trkpt lat="53.157209" lon="10.004858">
        <ele>76.332162</ele>
        <time>2019-08-28T11:19:33.997Z</time>
      </trkpt>
      <trkpt lat="53.157259" lon="10.004715">
        <ele>76.571311</ele>
        <time>2019-08-28T11:19:41.997Z</time>
      </trkpt>
      <trkpt lat="53.157293" lon="10.004558">
        <ele>76.812467</ele>
        <time>2019-08-28T11:19:48.997Z</time>
      </trkpt>
      <trkpt lat="53.157327" lon="10.004415">
        <ele>77.034707</ele>
        <time>2019-08-28T11:19:56.997Z</time>
      </trkpt>
      <trkpt lat="53.157373" lon="10.004244">
        <ele>77.305471</ele>
        <time>2019-08-28T11:20:06.997Z</time>
      </trkpt>
      <trkpt lat="53.157438" lon="10.004116">
        <ele>77.547796</ele>
        <time>2019-08-28T11:20:13.997Z</time>
      </trkpt>
      <trkpt lat="53.157466" lon="10.003969">
        <ele>77.770622</ele>
        <time>2019-08-28T11:20:23.997Z</time>
      </trkpt>
      <trkpt lat="53.157493" lon="10.003806">
        <ele>78.014926</ele>
        <time>2019-08-28T11:20:32.997Z</time>
      </trkpt>
      <trkpt lat="53.157522" lon="10.003664">
        <ele>78.258729</ele>
        <time>2019-08-28T11:20:39.997Z</time>
      </trkpt>
      <trkpt lat="53.157556" lon="10.003512">
        <ele>78.534339</ele>
        <time>2019-08-28T11:20:47.997Z</time>
      </trkpt>
      <trkpt lat="53.157606" lon="10.003370">
        <ele>78.814095</ele>
        <time>2019-08-28T11:20:55.997Z</time>
      </trkpt>
      <trkpt lat="53.157646" lon="10.003232">
        <ele>79.074492</ele>
        <time>2019-08-28T11:21:04.997Z</time>
      </trkpt>
      <trkpt lat="53.157687" lon="10.003093">
        <ele>79.337658</ele>
        <time>2019-08-28T11:21:13.997Z</time>
      </trkpt>
      <trkpt lat="53.157708" lon="10.002936">
        <ele>79.610934</ele>
        <time>2019-08-28T11:21:21.997Z</time>
      </trkpt>
      <trkpt lat="53.157731" lon="10.002778">
        <ele>79.887149</ele>
        <time>2019-08-28T11:21:30.997Z</time>
      </trkpt>
      <trkpt lat="53.157755" lon="10.002626">
        <ele>80.154177</ele>
        <time>2019-08-28T11:21:39.997Z</time>
      </trkpt>
      <trkpt lat="53.157798" lon="10.002481">
        <ele>80.428991</ele>
        <time>2019-08-28T11:21:46.997Z</time>
      </trkpt>
      <trkpt lat="53.157835" lon="10.002318">
        <ele>80.725081</ele>
        <time>2019-08-28T11:21:54.997Z</time>
      </trkpt>
      <trkpt lat="53.157875" lon="10.002170">
        <ele>81.000872</ele>
        <time>2019-08-28T11:22:02.997Z</time>
      </trkpt>
      <trkpt lat="53.157919" lon="10.002035">
        <ele>81.261907</ele>
        <time>2019-08-28T11:22:08.997Z</time>
      </trkpt>
      <trkpt lat="53.157963" lon="10.001899">
        <ele>81.524436</ele>
        <time>2019-08-28T11:22:16.997Z</time>
      </trkpt>
      <trkpt lat="53.157997" lon="10.001757">
        <ele>81.784194</ele>
        <time>2019-08-28T11:22:23.997Z</time>
      </trkpt>
      <trkpt lat="53.158027" lon="10.001616">
        <ele>82.038363</ele>
        <time>2019-08-28T11:22:29.997Z</time>
      </trkpt>
      <trkpt lat="53.158069" lon="10.001480">
        <ele>82.298249</ele>
        <time>2019-08-28T11:22:37.997Z</time>
      </trkpt>
      <trkpt lat="53.158097" lon="10.001333">
        <ele>82.560275</ele>
        <time>2019-08-28T11:22:44.996Z</time>
      </trkpt>
      <trkpt lat="53.158143" lon="10.001202">
        <ele>82.818177</ele>
        <time>2019-08-28T11:22:54.998Z</time>
      </trkpt>
      <trkpt lat="53.158182" lon="10.001050">
        <ele>83.099048</ele>
        <time>2019-08-28T11:23:01.998Z</time>
      </trkpt>
      <trkpt lat="53.158234" lon="10.000918">
        <ele>83.276966</ele>
        <time>2019-08-28T11:23:08.998Z</time>
      </trkpt>
      <trkpt lat="53.158262" lon="10.000772">
        <ele>83.415833</ele>
        <time>2019-08-28T11:23:16.998Z</time>
      </trkpt>
      <trkpt lat="53.158303" lon="10.000621">
        <ele>83.566002</ele>
        <time>2019-08-28T11:23:22.998Z</time>
      </trkpt>
      <trkpt lat="53.158326" lon="10.000441">
        <ele>83.732732</ele>
        <time>2019-08-28T11:23:30.998Z</time>
      </trkpt>
      <trkpt lat="53.158379" lon="10.000318">
        <ele>83.869950</ele>
        <time>2019-08-28T11:23:38.998Z</time>
      </trkpt>
      <trkpt lat="53.158421" lon="10.000175">
        <ele>84.014206</ele>
        <time>2019-08-28T11:23:44.998Z</time>
      </trkpt>
      <trkpt lat="53.158456" lon="10.000012">
        <ele>84.171056</ele>
        <time>2019-08-28T11:23:53.998Z</time>
      </trkpt>
      <trkpt lat="53.158479" lon="9.999862">
        <ele>84.311319</ele>
        <time>2019-08-28T11:24:01.998Z</time>
      </trkpt>
      <trkpt lat="53.158508" lon="9.999712">
        <ele>84.454098</ele>
        <time>2019-08-28T11:24:08.998Z</time>
      </trkpt>
      <trkpt lat="53.158543" lon="9.999538">
        <ele>84.620363</ele>
        <time>2019-08-28T11:24:18.998Z</time>
      </trkpt>
      <trkpt lat="53.158594" lon="9.999413">
        <ele>84.757334</ele>
        <time>2019-08-28T11:24:25.998Z</time>
      </trkpt>
      <trkpt lat="53.158650" lon="9.999271">
        <ele>84.911307</ele>
        <time>2019-08-28T11:24:31.998Z</time>
      </trkpt>
      <trkpt lat="53.158688" lon="9.999125">
        <ele>85.055496</ele>
        <time>2019-08-28T11:24:36.998Z</time>
      </trkpt>
      <trkpt lat="53.158700" lon="9.998974">
        <ele>85.193487</ele>
        <time>2019-08-28T11:24:44.999Z</time>
      </trkpt>
      <trkpt lat="53.158719" lon="9.998820">
        <ele>85.335923</ele>
        <time>2019-08-28T11:24:51.999Z</time>
      </trkpt>
      <trkpt lat="53.158752" lon="9.998661">
        <ele>85.488350</ele>
        <time>2019-08-28T11:24:58.999Z</time>
      </trkpt>
      <trkpt lat="53.158831" lon="9.998566">
        <ele>85.635502</ele>
        <time>2019-08-28T11:25:09.999Z</time>
      </trkpt>
      <trkpt lat="53.158880" lon="9.998423">
        <ele>85.784711</ele>
        <time>2019-08-28T11:25:17.999Z</time>
      </trkpt>
      <trkpt lat="53.158930" lon="9.998284">
        <ele>86.106667</ele>
        <time>2019-08-28T11:25:25.999Z</time>
      </trkpt>
      <trkpt lat="53.158964" lon="9.998107">
        <ele>87.006098</ele>
        <time>2019-08-28T11:25:33.999Z</time>
      </trkpt>
      <trkpt lat="53.159035" lon="9.997996">
        <ele>87.791529</ele>
        <time>2019-08-28T11:25:41.999Z</time>
      </trkpt>
      <trkpt lat="53.159075" lon="9.997855">
        <ele>88.546381</ele>
        <time>2019-08-28T11:25:47.999Z</time>
      </trkpt>
      <trkpt lat="53.159097" lon="9.997707">
        <ele>89.284270</ele>
        <time>2019-08-28T11:25:57.999Z</time>
      </trkpt>
      <trkpt lat="53.159113" lon="9.997543">
        <ele>90.088343</ele>
        <time>2019-08-28T11:26:05.998Z</time>
      </trkpt>
      <trkpt lat="53.159142" lon="9.997385">
        <ele>90.887964</ele>
        <time>2019-08-28T11:26:12.998Z</time>
      </trkpt>
      <trkpt lat="53.159195" lon="9.997258">
        <ele>91.636754</ele>
        <time>2019-08-28T11:26:19.998Z</time>
      </trkpt>
      <trkpt lat="53.159218" lon="9.997094">
        <ele>92.451808</ele>
        <time>2019-08-28T11:26:27.998Z</time>
      </trkpt>
      <trkpt lat="53.159265" lon="9.996962">
        <ele>93.194727</ele>
        <time>2019-08-28T11:26:35.998Z</time>
      </trkpt>
      <trkpt lat="53.159273" lon="9.996809">
        <ele>93.937938</ele>
        <time>2019-08-28T11:26:43.998Z</time>
      </trkpt>
      <trkpt lat="53.159290" lon="9.996661">
        <ele>94.667167</ele>
        <time>2019-08-28T11:26:48.998Z</time>
      </trkpt>
      <trkpt lat="53.159307" lon="9.996486">
        <ele>95.525073</ele>
        <time>2019-08-28T11:26:53.998Z</time>
      </trkpt>
      <trkpt lat="53.159307" lon="9.996321">
        <ele>96.323544</ele>
        <time>2019-08-28T11:27:00.998Z</time>
      </trkpt>
      <trkpt lat="53.159312" lon="9.996167">
        <ele>97.069875</ele>
        <time>2019-08-28T11:27:09.998Z</time>
      </trkpt>
      <trkpt lat="53.159322" lon="9.996016">
        <ele>97.805041</ele>
        <time>2019-08-28T11:27:17.998Z</time>
      </trkpt>
      <trkpt lat="53.159349" lon="9.995848">
        <ele>98.646727</ele>
        <time>2019-08-28T11:27:24.998Z</time>
      </trkpt>
      <trkpt lat="53.159371" lon="9.995696">
        <ele>99.403415</ele>
        <time>2019-08-28T11:27:32.998Z</time>
      </trkpt>
      <trkpt lat="53.159394" lon="9.995530">
        <ele>100.227892</ele>
        <time>2019-08-28T11:27:39.998Z</time>
      </trkpt>
      <trkpt lat="53.159439" lon="9.995400">
        <ele>100.222022</ele>
        <time>2019-08-28T11:27:50.998Z</time>
      </trkpt>
      <trkpt lat="53.159448" lon="9.995234">
        <ele>99.947819</ele>
        <time>2019-08-28T11:27:55.998Z</time>
      </trkpt>
      <trkpt lat="53.159454" lon="9.995077">
        <ele>99.689012</ele>
        <time>2019-08-28T11:28:01.998Z</time>
      </trkpt>
      <trkpt lat="53.159481" lon="9.994929">
        <ele>99.434514</ele>
        <time>2019-08-28T11:28:10.998Z</time>
      </trkpt>
      <trkpt lat="53.159497" lon="9.994750">
        <ele>99.136785</ele>
        <time>2019-08-28T11:28:18.998Z</time>
      </trkpt>
      <trkpt lat="53.159505" lon="9.994578">
        <ele>98.852975</ele>
        <time>2019-08-28T11:28:25.998Z</time>
      </trkpt>
      <trkpt lat="53.159538" lon="9.994430">
        <ele>98.593208</ele>
        <time>2019-08-28T11:28:34.998Z</time>
      </trkpt>
      <trkpt lat="53.159538" lon="9.994266">
        <ele>98.323410</ele>
        <time>2019-08-28T11:28:42.998Z</time>
      </trkpt>
      <trkpt lat="53.159534" lon="9.994102">
        <ele>98.053388</ele>
        <time>2019-08-28T11:28:49.998Z</time>
      </trkpt>
      <trkpt lat="53.159535" lon="9.993949">
        <ele>97.801671</ele>
        <time>2019-08-28T11:28:55.998Z</time>
      </trkpt>
      <trkpt lat="53.159542" lon="9.993799">
        <ele>97.554158</ele>
        <time>2019-08-28T11:29:02.998Z</time>
      </trkpt>
      <trkpt lat="53.159549" lon="9.993631">
        <ele>97.277113</ele>
        <time>2019-08-28T11:29:11.998Z</time>
      </trkpt>
      <trkpt lat="53.159544" lon="9.993470">
        <ele>97.011895</ele>
        <time>2019-08-28T11:29:18.998Z</time>
      </trkpt>
      <trkpt lat="53.159553" lon="9.993305">
        <ele>96.739331</ele>
        <time>2019-08-28T11:29:26.998Z</time>
      </trkpt>
      <trkpt lat="53.159573" lon="9.993155">
        <ele>96.486536</ele>
        <time>2019-08-28T11:29:35.998Z</time>
      </trkpt>
      <trkpt lat="53.159584" lon="9.993003">
        <ele>96.234665</ele>
        <time>2019-08-28T11:29:43.998Z</time>
      </trkpt>
      <trkpt lat="53.159576" lon="9.992846">
        <ele>95.975452</ele>
        <time>2019-08-28T11:29:51.998Z</time>
      </trkpt>
      <trkpt lat="53.159596" lon="9.992692">
        <ele>95.716230</ele>
        <time>2019-08-28T11:29:59.999Z</time>
      </trkpt>
      <trkpt lat="53.159583" lon="9.992527">
        <ele>95.479476</ele>
        <time>2019-08-28T11:30:07.999Z</time>
      </trkpt>
      <trkpt lat="53.159579" lon="9.992363">
        <ele>95.538765</ele>
        <time>2019-08-28T11:30:12.999Z</time>
      </trkpt>
      <trkpt lat="53.159514" lon="9.992230">
        <ele>95.600745</ele>
        <time>2019-08-28T11:30:20.999Z</time>
      </trkpt>
      <trkpt lat="53.159444" lon="9.992122">
        <ele>95.658194</ele>
        <time>2019-08-28T11:30:28.999Z</time>
      </trkpt>
      <trkpt lat="53.159393" lon="9.991995">
        <ele>95.713408</ele>
        <time>2019-08-28T11:30:39.999Z</time>
      </trkpt>
      <trkpt lat="53.159312" lon="9.991890">
        <ele>95.775213</ele>
        <time>2019-08-28T11:30:45.999Z</time>
      </trkpt>
      <trkpt lat="53.159238" lon="9.991798">
        <ele>95.830818</ele>
        <time>2019-08-28T11:30:56.999Z</time>
      </trkpt>
      <trkpt lat="53.159156" lon="9.991704">
        <ele>95.890763</ele>
        <time>2019-08-28T11:31:09.999Z</time>
      </trkpt>
      <trkpt lat="53.159072" lon="9.991612">
        <ele>95.951306</ele>
        <time>2019-08-28T11:31:14.999Z</time>
      </trkpt>
      <trkpt lat="53.158984" lon="9.991483">
        <ele>96.021890</ele>
        <time>2019-08-28T11:31:18.999Z</time>
      </trkpt>
      <trkpt lat="53.158908" lon="9.991383">
        <ele>96.080210</ele>
        <time>2019-08-28T11:31:23.999Z</time>
      </trkpt>
      <trkpt lat="53.158824" lon="9.991272">
        <ele>96.144775</ele>
        <time>2019-08-28T11:31:29.999Z</time>
      </trkpt>
      <trkpt lat="53.158752" lon="9.991179">
        <ele>96.199639</ele>
        <time>2019-08-28T11:31:37.999Z</time>
      </trkpt>
      <trkpt lat="53.158689" lon="9.991061">
        <ele>96.256713</ele>
        <time>2019-08-28T11:31:44.999Z</time>
      </trkpt>
      <trkpt lat="53.158628" lon="9.990942">
        <ele>96.313267</ele>
        <time>2019-08-28T11:31:52.999Z</time>
      </trkpt>
      <trkpt lat="53.158550" lon="9.990850">
        <ele>96.370823</ele>
        <time>2019-08-28T11:32:11.999Z</time>
      </trkpt>
      <trkpt lat="53.158484" lon="9.990728">
        <ele>96.430179</ele>
        <time>2019-08-28T11:32:18.999Z</time>
      </trkpt>
      <trkpt lat="53.158426" lon="9.990602">
        <ele>96.487560</ele>
        <time>2019-08-28T11:32:24.999Z</time>
      </trkpt>
      <trkpt lat="53.158374" lon="9.990477">
        <ele>96.542517</ele>
        <time>2019-08-28T11:32:32.999Z</time>
      </trkpt>
      <trkpt lat="53.158314" lon="9.990359">
        <ele>97.105443</ele>
        <time>2019-08-28T11:32:40.999Z</time>
      </trkpt>
      <trkpt lat="53.158234" lon="9.990277">
        <ele>97.844928</ele>
        <time>2019-08-28T11:32:47.999Z</time>
      </trkpt>
      <trkpt lat="53.158156" lon="9.990187">
        <ele>98.591871</ele>
        <time>2019-08-28T11:32:54.999Z</time>
      </trkpt>
      <trkpt lat="53.158094" lon="9.990077">
        <ele>99.304747</ele>
        <time>2019-08-28T11:33:01.999Z</time>
      </trkpt>
      <trkpt lat="53.158019" lon="9.989963">
        <ele>100.103888</ele>
        <time>2019-08-28T11:33:11.999Z</time>
      </trkpt>
      <trkpt lat="53.157966" lon="9.989819">
        <ele>100.901739</ele>
        <time>2019-08-28T11:33:19.999Z</time>
      </trkpt>
      <trkpt lat="53.157913" lon="9.989695">
        <ele>101.620803</ele>
        <time>2019-08-28T11:33:25.999Z</time>
      </trkpt>
      <trkpt lat="53.157838" lon="9.989600">
        <ele>102.362480</ele>
        <time>2019-08-28T11:33:33.998Z</time>
      </trkpt>
      <trkpt lat="53.157775" lon="9.989483">
        <ele>103.105030</ele>
        <time>2019-08-28T11:33:41.998Z</time>
      </trkpt>
      <trkpt lat="53.157694" lon="9.989408">
        <ele>103.834634</ele>
        <time>2019-08-28T11:33:48.998Z</time>
      </trkpt>
      <trkpt lat="53.157653" lon="9.989266">
        <ele>104.578854</ele>
        <time>2019-08-28T11:33:58.998Z</time>
      </trkpt>
      <trkpt lat="53.157594" lon="9.989148">
        <ele>105.304359</ele>
        <time>2019-08-28T11:34:04.998Z</time>
      </trkpt>
      <trkpt lat="53.157532" lon="9.989025">
        <ele>106.063134</ele>
        <time>2019-08-28T11:34:11.998Z</time>
      </trkpt>
      <trkpt lat="53.157455" lon="9.988933">
        <ele>106.809078</ele>
        <time>2019-08-28T11:34:18.998Z</time>
      </trkpt>
      <trkpt lat="53.157367" lon="9.988873">
        <ele>107.557769</ele>
        <time>2019-08-28T11:34:24.998Z</time>
      </trkpt>
      <trkpt lat="53.157283" lon="9.988805">
        <ele>108.293094</ele>
        <time>2019-08-28T11:34:33.998Z</time>
      </trkpt>
      <trkpt lat="53.157224" lon="9.988680">
        <ele>109.044288</ele>
        <time>2019-08-28T11:34:41.998Z</time>
      </trkpt>
      <trkpt lat="53.157156" lon="9.988568">
        <ele>109.796936</ele>
        <time>2019-08-28T11:34:50.998Z</time>
      </trkpt>
      <trkpt lat="53.157106" lon="9.988428">
        <ele>110.566411</ele>
        <time>2019-08-28T11:34:58.998Z</time>
      </trkpt>
      <trkpt lat="53.157067" lon="9.988275">
        <ele>111.081470</ele>
        <time>2019-08-28T11:35:05.998Z</time>
      </trkpt>
      <trkpt lat="53.157019" lon="9.988131">
        <ele>111.526311</ele>
        <time>2019-08-28T11:35:13.998Z</time>
      </trkpt>
      <trkpt lat="53.157003" lon="9.987977">
        <ele>111.948310</ele>
        <time>2019-08-28T11:35:23.998Z</time>
      </trkpt>
      <trkpt lat="53.156963" lon="9.987830">
        <ele>112.384170</ele>
        <time>2019-08-28T11:35:30.998Z</time>
      </trkpt>
      <trkpt lat="53.156936" lon="9.987683">
        <ele>112.799276</ele>
        <time>2019-08-28T11:35:38.998Z</time>
      </trkpt>
      <trkpt lat="53.156928" lon="9.987532">
        <ele>113.208569</ele>
        <time>2019-08-28T11:35:45.998Z</time>
      </trkpt>
      <trkpt lat="53.156911" lon="9.987384">
        <ele>113.615439</ele>
        <time>2019-08-28T11:35:53.998Z</time>
      </trkpt>
      <trkpt lat="53.156868" lon="9.987248">
        <ele>114.030564</ele>
        <time>2019-08-28T11:36:02.997Z</time>
      </trkpt>
      <trkpt lat="53.156848" lon="9.987097">
        <ele>114.448097</ele>
        <time>2019-08-28T11:36:07.997Z</time>
      </trkpt>
      <trkpt lat="53.156814" lon="9.986942">
        <ele>114.893726</ele>
        <time>2019-08-28T11:36:14.997Z</time>
      </trkpt>
      <trkpt lat="53.156766" lon="9.986811">
        <ele>115.308241</ele>
        <time>2019-08-28T11:36:20.997Z</time>
      </trkpt>
      <trkpt lat="53.156731" lon="9.986670">
        <ele>115.720278</ele>
        <time>2019-08-28T11:36:28.997Z</time>
      </trkpt>
      <trkpt lat="53.156700" lon="9.986527">
        <ele>116.130842</ele>
        <time>2019-08-28T11:36:36.997Z</time>
      </trkpt>
      <trkpt lat="53.156668" lon="9.986370">
        <ele>116.578569</ele>
        <time>2019-08-28T11:36:43.997Z</time>
      </trkpt>
      <trkpt lat="53.156617" lon="9.986234">
        <ele>117.011671</ele>
        <time>2019-08-28T11:36:48.997Z</time>
      </trkpt>
      <trkpt lat="53.156579" lon="9.986070">
        <ele>117.486389</ele>
        <time>2019-08-28T11:36:59.997Z</time>
      </trkpt>
      <trkpt lat="53.156547" lon="9.985910">
        <ele>117.941794</ele>
        <time>2019-08-28T11:37:05.998Z</time>
      </trkpt>
      <trkpt lat="53.156514" lon="9.985762">
        <ele>118.368135</ele>
        <time>2019-08-28T11:37:13.998Z</time>
      </trkpt>
      <trkpt lat="53.156442" lon="9.985668">
        <ele>118.779871</ele>
        <time>2019-08-28T11:37:21.998Z</time>
      </trkpt>
      <trkpt lat="53.156381" lon="9.985541">
        <ele>117.336095</ele>
        <time>2019-08-28T11:37:27.998Z</time>
      </trkpt>
      <trkpt lat="53.156345" lon="9.985385">
        <ele>115.658567</ele>
        <time>2019-08-28T11:37:36.998Z</time>
      </trkpt>
      <trkpt lat="53.156302" lon="9.985241">
        <ele>114.044125</ele>
        <time>2019-08-28T11:37:41.998Z</time>
      </trkpt>
      <trkpt lat="53.156216" lon="9.985148">
        <ele>112.328654</ele>
        <time>2019-08-28T11:37:47.998Z</time>
      </trkpt>
      <trkpt lat="53.156118" lon="9.985129">
        <ele>110.677419</ele>
        <time>2019-08-28T11:37:52.998Z</time>
      </trkpt>
      <trkpt lat="53.156022" lon="9.985135">
        <ele>109.069575</ele>
        <time>2019-08-28T11:37:56.998Z</time>
      </trkpt>
      <trkpt lat="53.155922" lon="9.985181">
        <ele>107.333411</ele>
        <time>2019-08-28T11:38:01.998Z</time>
      </trkpt>
      <trkpt lat="53.155830" lon="9.985222">
        <ele>105.739610</ele>
        <time>2019-08-28T11:38:07.998Z</time>
      </trkpt>
      <trkpt lat="53.155752" lon="9.985306">
        <ele>104.185615</ele>
        <time>2019-08-28T11:38:12.998Z</time>
      </trkpt>
      <trkpt lat="53.155661" lon="9.985406">
        <ele>102.361653</ele>
        <time>2019-08-28T11:38:17.998Z</time>
      </trkpt>
      <trkpt lat="53.155573" lon="9.985474">
        <ele>100.738403</ele>
        <time>2019-08-28T11:38:23.998Z</time>
      </trkpt>
      <trkpt lat="53.155497" lon="9.985572">
        <ele>99.130524</ele>
        <time>2019-08-28T11:38:30.998Z</time>
      </trkpt>
      <trkpt lat="53.155416" lon="9.985657">
        <ele>97.528791</ele>
        <time>2019-08-28T11:38:38.998Z</time>
      </trkpt>
      <trkpt lat="53.155332" lon="9.985737">
        <ele>95.909806</ele>
        <time>2019-08-28T11:38:46.998Z</time>
      </trkpt>
      <trkpt lat="53.155243" lon="9.985771">
        <ele>94.381663</ele>
        <time>2019-08-28T11:38:51.998Z</time>
      </trkpt>
      <trkpt lat="53.155145" lon="9.985811">
        <ele>92.693061</ele>
        <time>2019-08-28T11:38:58.998Z</time>
      </trkpt>
      <trkpt lat="53.155054" lon="9.985873">
        <ele>91.047823</ele>
        <time>2019-08-28T11:39:05.998Z</time>
      </trkpt>
      <trkpt lat="53.154968" lon="9.985952">
        <ele>89.404549</ele>
        <time>2019-08-28T11:39:11.998Z</time>
      </trkpt>
      <trkpt lat="53.154889" lon="9.986027">
        <ele>88.817368</ele>
        <time>2019-08-28T11:39:19.998Z</time>
      </trkpt>
      <trkpt lat="53.154795" lon="9.986098">
        <ele>89.025737</ele>
        <time>2019-08-28T11:39:26.998Z</time>
      </trkpt>
      <trkpt lat="53.154714" lon="9.986021">
        <ele>89.214002</ele>
        <time>2019-08-28T11:39:49.998Z</time>
      </trkpt>
      <trkpt lat="53.154754" lon="9.985881">
        <ele>89.401779</ele>
        <time>2019-08-28T11:39:58.998Z</time>
      </trkpt>
      <trkpt lat="53.154734" lon="9.985730">
        <ele>89.589023</ele>
        <time>2019-08-28T11:40:10.998Z</time>
      </trkpt>
      <trkpt lat="53.154729" lon="9.985580">
        <ele>89.770930</ele>
        <time>2019-08-28T11:40:15.998Z</time>
      </trkpt>
      <trkpt lat="53.154712" lon="9.985429">
        <ele>89.956961</ele>
        <time>2019-08-28T11:40:26.998Z</time>
      </trkpt>
      <trkpt lat="53.154767" lon="9.985278">
        <ele>90.170885</ele>
        <time>2019-08-28T11:40:39.997Z</time>
      </trkpt>
      <trkpt lat="53.154756" lon="9.985125">
        <ele>90.357471</ele>
        <time>2019-08-28T11:40:54.997Z</time>
      </trkpt>
      <trkpt lat="53.154744" lon="9.984956">
        <ele>90.563533</ele>
        <time>2019-08-28T11:41:04.997Z</time>
      </trkpt>
      <trkpt lat="53.154709" lon="9.984810">
        <ele>90.753919</ele>
        <time>2019-08-28T11:41:11.997Z</time>
      </trkpt>
      <trkpt lat="53.154639" lon="9.984700">
        <ele>90.948133</ele>
        <time>2019-08-28T11:41:19.997Z</time>
      </trkpt>
      <trkpt lat="53.154587" lon="9.984551">
        <ele>91.156879</ele>
        <time>2019-08-28T11:41:25.997Z</time>
      </trkpt>
      <trkpt lat="53.154530" lon="9.984433">
        <ele>91.340351</ele>
        <time>2019-08-28T11:41:34.997Z</time>
      </trkpt>
      <trkpt lat="53.154496" lon="9.984233">
        <ele>91.592064</ele>
        <time>2019-08-28T11:41:40.997Z</time>
      </trkpt>
      <trkpt lat="53.154462" lon="9.984083">
        <ele>91.786234</ele>
        <time>2019-08-28T11:41:46.997Z</time>
      </trkpt>
      <trkpt lat="53.154429" lon="9.983942">
        <ele>91.969506</ele>
        <time>2019-08-28T11:41:51.997Z</time>
      </trkpt>
      <trkpt lat="53.154376" lon="9.983808">
        <ele>92.163876</ele>
        <time>2019-08-28T11:41:57.997Z</time>
      </trkpt>
      <trkpt lat="53.154317" lon="9.983678">
        <ele>92.288322</ele>
        <time>2019-08-28T11:42:02.997Z</time>
      </trkpt>
      <trkpt lat="53.154258" lon="9.983551">
        <ele>91.358793</ele>
        <time>2019-08-28T11:42:09.997Z</time>
      </trkpt>
      <trkpt lat="53.154204" lon="9.983405">
        <ele>90.366284</ele>
        <time>2019-08-28T11:42:16.997Z</time>
      </trkpt>
      <trkpt lat="53.154154" lon="9.983272">
        <ele>89.458030</ele>
        <time>2019-08-28T11:42:22.997Z</time>
      </trkpt>
      <trkpt lat="53.154112" lon="9.983108">
        <ele>88.426219</ele>
        <time>2019-08-28T11:42:28.997Z</time>
      </trkpt>
      <trkpt lat="53.154053" lon="9.982965">
        <ele>87.421901</ele>
        <time>2019-08-28T11:42:40.997Z</time>
      </trkpt>
      <trkpt lat="53.154028" lon="9.982811">
        <ele>86.498786</ele>
        <time>2019-08-28T11:42:46.997Z</time>
      </trkpt>
      <trkpt lat="53.153966" lon="9.982697">
        <ele>85.608314</ele>
        <time>2019-08-28T11:42:55.997Z</time>
      </trkpt>
      <trkpt lat="53.153940" lon="9.982544">
        <ele>84.688197</ele>
        <time>2019-08-28T11:43:07.997Z</time>
      </trkpt>
      <trkpt lat="53.153912" lon="9.982383">
        <ele>83.718266</ele>
        <time>2019-08-28T11:43:14.997Z</time>
      </trkpt>
      <trkpt lat="53.153884" lon="9.982230">
        <ele>82.792700</ele>
        <time>2019-08-28T11:43:23.997Z</time>
      </trkpt>
      <trkpt lat="53.154233" lon="9.981313">
        <ele>76.508571</ele>
        <time>2019-08-28T11:46:16.998Z</time>
      </trkpt>
      <trkpt lat="53.154308" lon="9.981184">
        <ele>75.468972</ele>
        <time>2019-08-28T11:46:19.998Z</time>
      </trkpt>
      <trkpt lat="53.154358" lon="9.981039">
        <ele>75.310194</ele>
        <time>2019-08-28T11:46:23.998Z</time>
      </trkpt>
      <trkpt lat="53.154449" lon="9.980880">
        <ele>76.125654</ele>
        <time>2019-08-28T11:46:27.998Z</time>
      </trkpt>
      <trkpt lat="53.154495" lon="9.980749">
        <ele>76.688872</ele>
        <time>2019-08-28T11:46:31.998Z</time>
      </trkpt>
      <trkpt lat="53.154570" lon="9.980632">
        <ele>77.324281</ele>
        <time>2019-08-28T11:46:35.998Z</time>
      </trkpt>
      <trkpt lat="53.154670" lon="9.980434">
        <ele>78.284707</ele>
        <time>2019-08-28T11:46:39.998Z</time>
      </trkpt>
      <trkpt lat="53.154756" lon="9.980317">
        <ele>78.971390</ele>
        <time>2019-08-28T11:46:42.998Z</time>
      </trkpt>
      <trkpt lat="53.154823" lon="9.980166">
        <ele>79.668297</ele>
        <time>2019-08-28T11:46:45.998Z</time>
      </trkpt>
      <trkpt lat="53.154878" lon="9.980042">
        <ele>80.240518</ele>
        <time>2019-08-28T11:46:49.998Z</time>
      </trkpt>
      <trkpt lat="53.154932" lon="9.979892">
        <ele>80.889611</ele>
        <time>2019-08-28T11:46:53.998Z</time>
      </trkpt>
      <trkpt lat="53.154955" lon="9.979728">
        <ele>81.514477</ele>
        <time>2019-08-28T11:46:57.998Z</time>
      </trkpt>
      <trkpt lat="53.154962" lon="9.979571">
        <ele>82.098562</ele>
        <time>2019-08-28T11:47:02.998Z</time>
      </trkpt>
      <trkpt lat="53.154998" lon="9.979416">
        <ele>82.715247</ele>
        <time>2019-08-28T11:47:44.999Z</time>
      </trkpt>
      <trkpt lat="53.155013" lon="9.979249">
        <ele>83.341736</ele>
        <time>2019-08-28T11:47:56.999Z</time>
      </trkpt>
      <trkpt lat="53.155054" lon="9.979114">
        <ele>83.903165</ele>
        <time>2019-08-28T11:48:21.998Z</time>
      </trkpt>
      <trkpt lat="53.155315" lon="9.979113">
        <ele>85.517974</ele>
        <time>2019-08-28T12:10:37.998Z</time>
      </trkpt>
      <trkpt lat="53.155501" lon="9.979142">
        <ele>86.806404</ele>
        <time>2019-08-28T12:12:07.998Z</time>
      </trkpt>
      <trkpt lat="53.155603" lon="9.979122">
        <ele>87.594646</ele>
        <time>2019-08-28T12:12:13.998Z</time>
      </trkpt>
      <trkpt lat="53.155696" lon="9.979090">
        <ele>88.323456</ele>
        <time>2019-08-28T12:12:19.997Z</time>
      </trkpt>
      <trkpt lat="53.155786" lon="9.979130">
        <ele>89.038316</ele>
        <time>2019-08-28T12:12:26.997Z</time>
      </trkpt>
      <trkpt lat="53.156378" lon="9.978560">
        <ele>94.284820</ele>
        <time>2019-08-28T12:17:09.998Z</time>
      </trkpt>
      <trkpt lat="53.156388" lon="9.978391">
        <ele>95.066367</ele>
        <time>2019-08-28T12:17:11.998Z</time>
      </trkpt>
      <trkpt lat="53.156425" lon="9.978242">
        <ele>95.808566</ele>
        <time>2019-08-28T12:17:14.998Z</time>
      </trkpt>
      <trkpt lat="53.156518" lon="9.978106">
        <ele>96.757892</ele>
        <time>2019-08-28T12:17:19.998Z</time>
      </trkpt>
      <trkpt lat="53.156598" lon="9.977967">
        <ele>97.644579</ele>
        <time>2019-08-28T12:17:24.998Z</time>
      </trkpt>
      <trkpt lat="53.156677" lon="9.977845">
        <ele>98.470939</ele>
        <time>2019-08-28T12:17:28.998Z</time>
      </trkpt>
      <trkpt lat="53.156968" lon="9.976724">
        <ele>80.290029</ele>
        <time>2019-08-28T12:18:58.998Z</time>
      </trkpt>
      <trkpt lat="53.156995" lon="9.976553">
        <ele>76.453916</ele>
        <time>2019-08-28T12:19:04.998Z</time>
      </trkpt>
      <trkpt lat="53.157039" lon="9.976416">
        <ele>73.082382</ele>
        <time>2019-08-28T12:19:08.998Z</time>
      </trkpt>
      <trkpt lat="53.157057" lon="9.976267">
        <ele>69.785047</ele>
        <time>2019-08-28T12:19:11.998Z</time>
      </trkpt>
      <trkpt lat="53.157095" lon="9.976128">
        <ele>66.470985</ele>
        <time>2019-08-28T12:19:16.998Z</time>
      </trkpt>
      <trkpt lat="53.157135" lon="9.975977">
        <ele>62.889791</ele>
        <time>2019-08-28T12:19:23.998Z</time>
      </trkpt>
      <trkpt lat="53.157151" lon="9.975789">
        <ele>58.770478</ele>
        <time>2019-08-28T12:19:30.997Z</time>
      </trkpt>
      <trkpt lat="53.157202" lon="9.975660">
        <ele>55.418444</ele>
        <time>2019-08-28T12:19:37.999Z</time>
      </trkpt>
      <trkpt lat="53.157261" lon="9.975522">
        <ele>51.741642</ele>
        <time>2019-08-28T12:19:43.999Z</time>
      </trkpt>
      <trkpt lat="53.157296" lon="9.975359">
        <ele>47.985672</ele>
        <time>2019-08-28T12:19:52.999Z</time>
      </trkpt>
      <trkpt lat="53.157340" lon="9.975190">
        <ele>43.988747</ele>
        <time>2019-08-28T12:19:59.999Z</time>
      </trkpt>
      <trkpt lat="53.157378" lon="9.975029">
        <ele>40.235220</ele>
        <time>2019-08-28T12:20:06.999Z</time>
      </trkpt>
      <trkpt lat="53.157379" lon="9.974861">
        <ele>36.590499</ele>
        <time>2019-08-28T12:20:13.999Z</time>
      </trkpt>
      <trkpt lat="53.157394" lon="9.974704">
        <ele>37.044212</ele>
        <time>2019-08-28T12:20:24.999Z</time>
      </trkpt>
      <trkpt lat="53.157435" lon="9.974570">
        <ele>41.220485</ele>
        <time>2019-08-28T12:20:32.999Z</time>
      </trkpt>
      <trkpt lat="53.157430" lon="9.974419">
        <ele>45.418763</ele>
        <time>2019-08-28T12:20:52.999Z</time>
      </trkpt>
      <trkpt lat="53.157514" lon="9.973889">
        <ele>60.637303</ele>
        <time>2019-08-28T12:23:10.997Z</time>
      </trkpt>
      <trkpt lat="53.157913" lon="9.972871">
        <ele>94.399574</ele>
        <time>2019-08-28T12:25:23.997Z</time>
      </trkpt>
      <trkpt lat="53.157958" lon="9.972720">
        <ele>99.080606</ele>
        <time>2019-08-28T12:25:29.997Z</time>
      </trkpt>
      <trkpt lat="53.157947" lon="9.972558">
        <ele>103.606556</ele>
        <time>2019-08-28T12:25:34.997Z</time>
      </trkpt>
      <trkpt lat="53.157915" lon="9.972417">
        <ele>107.791788</ele>
        <time>2019-08-28T12:25:41.997Z</time>
      </trkpt>
      <trkpt lat="53.157377" lon="9.971268">
        <ele>114.150150</ele>
        <time>2019-08-28T12:30:39.997Z</time>
      </trkpt>
      <trkpt lat="53.157309" lon="9.971166">
        <ele>113.591462</ele>
        <time>2019-08-28T12:30:44.997Z</time>
      </trkpt>
      <trkpt lat="53.157199" lon="9.971011">
        <ele>112.711774</ele>
        <time>2019-08-28T12:30:46.997Z</time>
      </trkpt>
      <trkpt lat="53.157102" lon="9.970875">
        <ele>111.937657</ele>
        <time>2019-08-28T12:30:48.997Z</time>
      </trkpt>
      <trkpt lat="53.157031" lon="9.970783">
        <ele>111.388416</ele>
        <time>2019-08-28T12:30:50.997Z</time>
      </trkpt>
      <trkpt lat="53.156939" lon="9.970685">
        <ele>110.721563</ele>
        <time>2019-08-28T12:30:52.997Z</time>
      </trkpt>
      <trkpt lat="53.156871" lon="9.970586">
        <ele>110.170160</ele>
        <time>2019-08-28T12:30:54.997Z</time>
      </trkpt>
      <trkpt lat="53.156756" lon="9.970331">
        <ele>109.001430</ele>
        <time>2019-08-28T12:30:55.997Z</time>
      </trkpt>
      <trkpt lat="53.156689" lon="9.970173">
        <ele>108.292593</ele>
        <time>2019-08-28T12:30:59.997Z</time>
      </trkpt>
      <trkpt lat="53.156638" lon="9.970026">
        <ele>107.670512</ele>
        <time>2019-08-28T12:31:01.997Z</time>
      </trkpt>
      <trkpt lat="53.156560" lon="9.969885">
        <ele>106.303043</ele>
        <time>2019-08-28T12:31:04.997Z</time>
      </trkpt>
      <trkpt lat="53.156483" lon="9.969746">
        <ele>102.919071</ele>
        <time>2019-08-28T12:31:07.997Z</time>
      </trkpt>
      <trkpt lat="53.156389" lon="9.969556">
        <ele>98.514288</ele>
        <time>2019-08-28T12:31:10.997Z</time>
      </trkpt>
      <trkpt lat="53.156339" lon="9.969351">
        <ele>94.556776</ele>
        <time>2019-08-28T12:31:12.997Z</time>
      </trkpt>
      <trkpt lat="53.156277" lon="9.969198">
        <ele>91.254613</ele>
        <time>2019-08-28T12:31:15.997Z</time>
      </trkpt>
      <trkpt lat="53.156195" lon="9.969134">
        <ele>88.554652</ele>
        <time>2019-08-28T12:31:18.997Z</time>
      </trkpt>
      <trkpt lat="53.156113" lon="9.969042">
        <ele>85.607351</ele>
        <time>2019-08-28T12:31:21.997Z</time>
      </trkpt>
      <trkpt lat="53.156028" lon="9.968886">
        <ele>81.838042</ele>
        <time>2019-08-28T12:31:24.997Z</time>
      </trkpt>
      <trkpt lat="53.155959" lon="9.968743">
        <ele>78.555760</ele>
        <time>2019-08-28T12:31:28.997Z</time>
      </trkpt>
      <trkpt lat="53.155893" lon="9.968586">
        <ele>75.127016</ele>
        <time>2019-08-28T12:31:33.997Z</time>
      </trkpt>
      <trkpt lat="53.155820" lon="9.968461">
        <ele>72.006769</ele>
        <time>2019-08-28T12:31:37.997Z</time>
      </trkpt>
      <trkpt lat="53.155743" lon="9.968368">
        <ele>69.171499</ele>
        <time>2019-08-28T12:31:41.997Z</time>
      </trkpt>
      <trkpt lat="53.155659" lon="9.968300">
        <ele>66.386911</ele>
        <time>2019-08-28T12:31:46.997Z</time>
      </trkpt>
      <trkpt lat="53.155560" lon="9.968201">
        <ele>62.944421</ele>
        <time>2019-08-28T12:31:51.997Z</time>
      </trkpt>
      <trkpt lat="53.155463" lon="9.968149">
        <ele>59.905903</ele>
        <time>2019-08-28T12:31:55.997Z</time>
      </trkpt>
      <trkpt lat="53.155369" lon="9.967999">
        <ele>56.026014</ele>
        <time>2019-08-28T12:31:59.997Z</time>
      </trkpt>
      <trkpt lat="53.155274" lon="9.967863">
        <ele>45.166244</ele>
        <time>2019-08-28T12:32:03.997Z</time>
      </trkpt>
      <trkpt lat="53.155185" lon="9.967759">
        <ele>22.803910</ele>
        <time>2019-08-28T12:32:08.997Z</time>
      </trkpt>
      <trkpt lat="53.155097" lon="9.967719">
        <ele>4.035282</ele>
        <time>2019-08-28T12:32:15.997Z</time>
      </trkpt>
      <trkpt lat="53.155001" lon="9.967709">
        <ele>-15.757425</ele>
        <time>2019-08-28T12:32:22.998Z</time>
      </trkpt>
      <trkpt lat="53.154914" lon="9.966990">
        <ele>-106.264727</ele>
        <time>2019-08-28T12:41:30.999Z</time>
      </trkpt>
      <trkpt lat="53.154940" lon="9.966780">
        <ele>-132.723692</ele>
        <time>2019-08-28T12:42:13.999Z</time>
      </trkpt>
      <trkpt lat="53.154996" lon="9.966593">
        <ele>-158.515408</ele>
        <time>2019-08-28T12:42:15.999Z</time>
      </trkpt>
      <trkpt lat="53.155025" lon="9.966450">
        <ele>-177.142248</ele>
        <time>2019-08-28T12:43:07.999Z</time>
      </trkpt>
      <trkpt lat="53.155095" lon="9.966198">
        <ele>-211.411259</ele>
        <time>2019-08-28T12:44:01.997Z</time>
      </trkpt>
      <trkpt lat="53.155104" lon="9.966009">
        <ele>-234.805757</ele>
        <time>2019-08-28T12:44:02.997Z</time>
      </trkpt>
      <trkpt lat="53.155176" lon="9.965884">
        <ele>-256.192735</ele>
        <time>2019-08-28T12:44:03.997Z</time>
      </trkpt>
      <trkpt lat="53.155217" lon="9.965694">
        <ele>-281.108967</ele>
        <time>2019-08-28T12:44:05.997Z</time>
      </trkpt>
      <trkpt lat="53.155227" lon="9.965540">
        <ele>-300.222364</ele>
        <time>2019-08-28T12:44:08.997Z</time>
      </trkpt>
      <trkpt lat="53.155279" lon="9.965403">
        <ele>-316.728522</ele>
        <time>2019-08-28T12:45:10.997Z</time>
      </trkpt>
      <trkpt lat="53.155336" lon="9.965282">
        <ele>-317.339222</ele>
        <time>2019-08-28T12:45:11.997Z</time>
      </trkpt>
      <trkpt lat="53.155282" lon="9.965033">
        <ele>-318.390117</ele>
        <time>2019-08-28T12:45:13.997Z</time>
      </trkpt>
      <trkpt lat="53.155359" lon="9.964956">
        <ele>-318.984361</ele>
        <time>2019-08-28T12:45:15.997Z</time>
      </trkpt>
      <trkpt lat="53.155910" lon="9.964007">
        <ele>-324.227061</ele>
        <time>2019-08-28T12:46:24.997Z</time>
      </trkpt>
      <trkpt lat="53.163876" lon="9.960454">
        <ele>97.721875</ele>
        <time>2019-08-28T13:51:53.118Z</time>
      </trkpt>
      <trkpt lat="53.163963" lon="9.960503">
        <ele>99.149341</ele>
        <time>2019-08-28T13:52:09.151Z</time>
      </trkpt>
      <trkpt lat="53.163985" lon="9.960666">
        <ele>100.706499</ele>
        <time>2019-08-28T13:52:22.160Z</time>
      </trkpt>
      <trkpt lat="53.164003" lon="9.960835">
        <ele>102.306217</ele>
        <time>2019-08-28T13:52:32.154Z</time>
      </trkpt>
      <trkpt lat="53.163910" lon="9.960825">
        <ele>103.754936</ele>
        <time>2019-08-28T13:53:10.151Z</time>
      </trkpt>
      <trkpt lat="53.163873" lon="9.960984">
        <ele>105.344509</ele>
        <time>2019-08-28T13:53:28.153Z</time>
      </trkpt>
      <trkpt lat="53.163959" lon="9.961034">
        <ele>106.760296</ele>
        <time>2019-08-28T13:54:24.151Z</time>
      </trkpt>
      <trkpt lat="53.163951" lon="9.960882">
        <ele>108.182364</ele>
        <time>2019-08-28T13:54:54.151Z</time>
      </trkpt>
      <trkpt lat="53.164157" lon="9.960838">
        <ele>111.410856</ele>
        <time>2019-08-28T13:59:32.998Z</time>
      </trkpt>
      <trkpt lat="53.164216" lon="9.960699">
        <ele>112.998122</ele>
        <time>2019-08-28T13:59:41.998Z</time>
      </trkpt>
      <trkpt lat="53.164230" lon="9.960550">
        <ele>114.403724</ele>
        <time>2019-08-28T13:59:53.998Z</time>
      </trkpt>
      <trkpt lat="53.164216" lon="9.960399">
        <ele>115.827744</ele>
        <time>2019-08-28T14:00:05.998Z</time>
      </trkpt>
      <trkpt lat="53.164343" lon="9.960382">
        <ele>117.808352</ele>
        <time>2019-08-28T14:00:56.999Z</time>
      </trkpt>
      <trkpt lat="53.164347" lon="9.960222">
        <ele>119.300812</ele>
        <time>2019-08-28T14:01:04.999Z</time>
      </trkpt>
      <trkpt lat="53.164328" lon="9.960073">
        <ele>119.683532</ele>
        <time>2019-08-28T14:01:12.999Z</time>
      </trkpt>
      <trkpt lat="53.164346" lon="9.959916">
        <ele>119.990779</ele>
        <time>2019-08-28T14:01:28.999Z</time>
      </trkpt>
      <trkpt lat="53.164385" lon="9.959764">
        <ele>120.308580</ele>
        <time>2019-08-28T14:01:38.999Z</time>
      </trkpt>
      <trkpt lat="53.164357" lon="9.959605">
        <ele>120.627115</ele>
        <time>2019-08-28T14:01:46.999Z</time>
      </trkpt>
      <trkpt lat="53.164356" lon="9.959441">
        <ele>120.942365</ele>
        <time>2019-08-28T14:01:54.999Z</time>
      </trkpt>
      <trkpt lat="53.164373" lon="9.959286">
        <ele>121.245244</ele>
        <time>2019-08-28T14:02:03.999Z</time>
      </trkpt>
      <trkpt lat="53.164395" lon="9.959119">
        <ele>121.573902</ele>
        <time>2019-08-28T14:02:14.999Z</time>
      </trkpt>
      <trkpt lat="53.164406" lon="9.958960">
        <ele>121.881553</ele>
        <time>2019-08-28T14:02:23.999Z</time>
      </trkpt>
      <trkpt lat="53.164411" lon="9.958791">
        <ele>122.206793</ele>
        <time>2019-08-28T14:02:33.999Z</time>
      </trkpt>
      <trkpt lat="53.164399" lon="9.958619">
        <ele>122.539635</ele>
        <time>2019-08-28T14:02:41.999Z</time>
      </trkpt>
      <trkpt lat="53.164391" lon="9.958457">
        <ele>122.852079</ele>
        <time>2019-08-28T14:02:52.999Z</time>
      </trkpt>
      <trkpt lat="53.164390" lon="9.958304">
        <ele>123.146186</ele>
        <time>2019-08-28T14:03:00.999Z</time>
      </trkpt>
      <trkpt lat="53.164374" lon="9.958134">
        <ele>123.476955</ele>
        <time>2019-08-28T14:03:09.999Z</time>
      </trkpt>
      <trkpt lat="53.164378" lon="9.957983">
        <ele>123.767484</ele>
        <time>2019-08-28T14:03:17.998Z</time>
      </trkpt>
      <trkpt lat="53.164385" lon="9.957830">
        <ele>124.062429</ele>
        <time>2019-08-28T14:03:26.998Z</time>
      </trkpt>
      <trkpt lat="53.164373" lon="9.957671">
        <ele>124.370464</ele>
        <time>2019-08-28T14:03:33.998Z</time>
      </trkpt>
      <trkpt lat="53.164362" lon="9.957283">
        <ele>125.117095</ele>
        <time>2019-08-28T14:04:12.998Z</time>
      </trkpt>
      <trkpt lat="53.164340" lon="9.957133">
        <ele>125.400786</ele>
        <time>2019-08-28T14:04:20.998Z</time>
      </trkpt>
      <trkpt lat="53.164327" lon="9.956984">
        <ele>125.673897</ele>
        <time>2019-08-28T14:04:29.998Z</time>
      </trkpt>
      <trkpt lat="53.164328" lon="9.956833">
        <ele>125.947805</ele>
        <time>2019-08-28T14:04:39.998Z</time>
      </trkpt>
      <trkpt lat="53.164361" lon="9.956687">
        <ele>126.230823</ele>
        <time>2019-08-28T14:04:47.998Z</time>
      </trkpt>
      <trkpt lat="53.164361" lon="9.956521">
        <ele>126.531922</ele>
        <time>2019-08-28T14:04:57.998Z</time>
      </trkpt>
      <trkpt lat="53.164355" lon="9.956364">
        <ele>126.817274</ele>
        <time>2019-08-28T14:05:04.998Z</time>
      </trkpt>
      <trkpt lat="53.164371" lon="9.956210">
        <ele>127.100771</ele>
        <time>2019-08-28T14:05:11.998Z</time>
      </trkpt>
      <trkpt lat="53.164374" lon="9.956058">
        <ele>127.376625</ele>
        <time>2019-08-28T14:05:26.998Z</time>
      </trkpt>
      <trkpt lat="53.164376" lon="9.955899">
        <ele>127.665091</ele>
        <time>2019-08-28T14:05:35.998Z</time>
      </trkpt>
      <trkpt lat="53.164392" lon="9.955734">
        <ele>127.968265</ele>
        <time>2019-08-28T14:05:42.998Z</time>
      </trkpt>
      <trkpt lat="53.164385" lon="9.955583">
        <ele>128.242974</ele>
        <time>2019-08-28T14:05:50.998Z</time>
      </trkpt>
      <trkpt lat="53.164355" lon="9.955432">
        <ele>128.531513</ele>
        <time>2019-08-28T14:05:58.999Z</time>
      </trkpt>
      <trkpt lat="53.164340" lon="9.955267">
        <ele>128.834219</ele>
        <time>2019-08-28T14:06:06.999Z</time>
      </trkpt>
      <trkpt lat="53.164337" lon="9.955099">
        <ele>129.139081</ele>
        <time>2019-08-28T14:06:13.999Z</time>
      </trkpt>
      <trkpt lat="53.164324" lon="9.954949">
        <ele>129.413987</ele>
        <time>2019-08-28T14:06:22.999Z</time>
      </trkpt>
      <trkpt lat="53.164311" lon="9.954798">
        <ele>129.690688</ele>
        <time>2019-08-28T14:06:30.999Z</time>
      </trkpt>
      <trkpt lat="53.164329" lon="9.954647">
        <ele>129.969942</ele>
        <time>2019-08-28T14:06:38.999Z</time>
      </trkpt>
      <trkpt lat="53.164329" lon="9.954479">
        <ele>130.274669</ele>
        <time>2019-08-28T14:06:47.999Z</time>
      </trkpt>
      <trkpt lat="53.164350" lon="9.954321">
        <ele>130.568215</ele>
        <time>2019-08-28T14:06:55.999Z</time>
      </trkpt>
      <trkpt lat="53.164345" lon="9.954166">
        <ele>130.731470</ele>
        <time>2019-08-28T14:07:05.999Z</time>
      </trkpt>
      <trkpt lat="53.164334" lon="9.954017">
        <ele>130.861974</ele>
        <time>2019-08-28T14:07:12.999Z</time>
      </trkpt>
      <trkpt lat="53.164371" lon="9.953878">
        <ele>130.994180</ele>
        <time>2019-08-28T14:07:20.999Z</time>
      </trkpt>
      <trkpt lat="53.164437" lon="9.953771">
        <ele>131.127634</ele>
        <time>2019-08-28T14:07:29.999Z</time>
      </trkpt>
      <trkpt lat="53.164491" lon="9.953650">
        <ele>131.258762</ele>
        <time>2019-08-28T14:07:37.999Z</time>
      </trkpt>
      <trkpt lat="53.164546" lon="9.953521">
        <ele>131.396366</ele>
        <time>2019-08-28T14:07:44.999Z</time>
      </trkpt>
      <trkpt lat="53.164603" lon="9.953396">
        <ele>131.532888</ele>
        <time>2019-08-28T14:07:50.999Z</time>
      </trkpt>
      <trkpt lat="53.164645" lon="9.953257">
        <ele>131.668198</ele>
        <time>2019-08-28T14:07:57.999Z</time>
      </trkpt>
      <trkpt lat="53.164696" lon="9.953129">
        <ele>131.801799</ele>
        <time>2019-08-28T14:08:05.999Z</time>
      </trkpt>
      <trkpt lat="53.164717" lon="9.952964">
        <ele>131.948428</ele>
        <time>2019-08-28T14:08:14.999Z</time>
      </trkpt>
      <trkpt lat="53.164752" lon="9.952819">
        <ele>132.084307</ele>
        <time>2019-08-28T14:08:21.999Z</time>
      </trkpt>
      <trkpt lat="53.164786" lon="9.952650">
        <ele>132.239268</ele>
        <time>2019-08-28T14:08:29.999Z</time>
      </trkpt>
      <trkpt lat="53.164829" lon="9.952499">
        <ele>132.384585</ele>
        <time>2019-08-28T14:08:38.999Z</time>
      </trkpt>
      <trkpt lat="53.164866" lon="9.952358">
        <ele>132.518382</ele>
        <time>2019-08-28T14:08:45.999Z</time>
      </trkpt>
      <trkpt lat="53.164930" lon="9.952231">
        <ele>132.662602</ele>
        <time>2019-08-28T14:08:53.999Z</time>
      </trkpt>
      <trkpt lat="53.164971" lon="9.952088">
        <ele>132.800394</ele>
        <time>2019-08-28T14:09:01.999Z</time>
      </trkpt>
      <trkpt lat="53.165064" lon="9.952066">
        <ele>132.936591</ele>
        <time>2019-08-28T14:09:13.999Z</time>
      </trkpt>
      <trkpt lat="53.165066" lon="9.951874">
        <ele>133.103518</ele>
        <time>2019-08-28T14:09:44.999Z</time>
      </trkpt>
      <trkpt lat="53.165159" lon="9.951604">
        <ele>133.471447</ele>
        <time>2019-08-28T14:12:15.997Z</time>
      </trkpt>
      <trkpt lat="53.165207" lon="9.951477">
        <ele>133.690324</ele>
        <time>2019-08-28T14:12:23.997Z</time>
      </trkpt>
      <trkpt lat="53.165173" lon="9.951330">
        <ele>133.920031</ele>
        <time>2019-08-28T14:12:36.997Z</time>
      </trkpt>
      <trkpt lat="53.165220" lon="9.951194">
        <ele>134.148890</ele>
        <time>2019-08-28T14:12:44.997Z</time>
      </trkpt>
      <trkpt lat="53.165265" lon="9.951054">
        <ele>134.380481</ele>
        <time>2019-08-28T14:12:50.997Z</time>
      </trkpt>
      <trkpt lat="53.165320" lon="9.950909">
        <ele>134.630634</ele>
        <time>2019-08-28T14:12:58.997Z</time>
      </trkpt>
      <trkpt lat="53.165377" lon="9.950772">
        <ele>134.873753</ele>
        <time>2019-08-28T14:13:06.999Z</time>
      </trkpt>
      <trkpt lat="53.165426" lon="9.950645">
        <ele>135.093935</ele>
        <time>2019-08-28T14:13:15.998Z</time>
      </trkpt>
      <trkpt lat="53.165471" lon="9.950498">
        <ele>135.334568</ele>
        <time>2019-08-28T14:13:24.998Z</time>
      </trkpt>
      <trkpt lat="53.165515" lon="9.950353">
        <ele>135.571499</ele>
        <time>2019-08-28T14:13:32.998Z</time>
      </trkpt>
      <trkpt lat="53.165521" lon="9.950197">
        <ele>135.799397</ele>
        <time>2019-08-28T14:13:40.998Z</time>
      </trkpt>
      <trkpt lat="53.165565" lon="9.950040">
        <ele>136.052060</ele>
        <time>2019-08-28T14:13:47.998Z</time>
      </trkpt>
      <trkpt lat="53.165589" lon="9.949878">
        <ele>136.295343</ele>
        <time>2019-08-28T14:13:54.998Z</time>
      </trkpt>
      <trkpt lat="53.165607" lon="9.949730">
        <ele>136.515505</ele>
        <time>2019-08-28T14:14:02.998Z</time>
      </trkpt>
      <trkpt lat="53.165671" lon="9.949593">
        <ele>136.768714</ele>
        <time>2019-08-28T14:14:10.998Z</time>
      </trkpt>
      <trkpt lat="53.165724" lon="9.949458">
        <ele>137.003974</ele>
        <time>2019-08-28T14:14:18.998Z</time>
      </trkpt>
      <trkpt lat="53.165752" lon="9.949291">
        <ele>137.256783</ele>
        <time>2019-08-28T14:14:26.998Z</time>
      </trkpt>
      <trkpt lat="53.165759" lon="9.949132">
        <ele>137.489210</ele>
        <time>2019-08-28T14:14:34.998Z</time>
      </trkpt>
      <trkpt lat="53.165790" lon="9.948991">
        <ele>137.869325</ele>
        <time>2019-08-28T14:14:42.998Z</time>
      </trkpt>
      <trkpt lat="53.165814" lon="9.948837">
        <ele>138.462211</ele>
        <time>2019-08-28T14:14:49.998Z</time>
      </trkpt>
      <trkpt lat="53.165874" lon="9.948700">
        <ele>139.094388</ele>
        <time>2019-08-28T14:14:57.998Z</time>
      </trkpt>
      <trkpt lat="53.165905" lon="9.948555">
        <ele>139.667995</ele>
        <time>2019-08-28T14:15:06.998Z</time>
      </trkpt>
      <trkpt lat="53.165934" lon="9.948405">
        <ele>140.255249</ele>
        <time>2019-08-28T14:15:13.998Z</time>
      </trkpt>
      <trkpt lat="53.165961" lon="9.948250">
        <ele>140.856674</ele>
        <time>2019-08-28T14:15:20.998Z</time>
      </trkpt>
      <trkpt lat="53.166029" lon="9.948137">
        <ele>141.453250</ele>
        <time>2019-08-28T14:15:28.998Z</time>
      </trkpt>
      <trkpt lat="53.166072" lon="9.947987">
        <ele>142.072769</ele>
        <time>2019-08-28T14:15:36.998Z</time>
      </trkpt>
      <trkpt lat="53.166100" lon="9.947838">
        <ele>142.654586</ele>
        <time>2019-08-28T14:15:44.998Z</time>
      </trkpt>
      <trkpt lat="53.166140" lon="9.947701">
        <ele>143.222376</ele>
        <time>2019-08-28T14:15:51.998Z</time>
      </trkpt>
      <trkpt lat="53.166207" lon="9.947573">
        <ele>143.855522</ele>
        <time>2019-08-28T14:16:00.998Z</time>
      </trkpt>
      <trkpt lat="53.166259" lon="9.947415">
        <ele>144.527116</ele>
        <time>2019-08-28T14:16:09.998Z</time>
      </trkpt>
      <trkpt lat="53.166328" lon="9.947293">
        <ele>145.152060</ele>
        <time>2019-08-28T14:16:17.998Z</time>
      </trkpt>
      <trkpt lat="53.166380" lon="9.947148">
        <ele>145.781624</ele>
        <time>2019-08-28T14:16:25.998Z</time>
      </trkpt>
      <trkpt lat="53.166438" lon="9.947013">
        <ele>146.400471</ele>
        <time>2019-08-28T14:16:34.998Z</time>
      </trkpt>
      <trkpt lat="53.166502" lon="9.946892">
        <ele>147.001712</ele>
        <time>2019-08-28T14:16:42.998Z</time>
      </trkpt>
      <trkpt lat="53.166565" lon="9.946745">
        <ele>147.675004</ele>
        <time>2019-08-28T14:16:51.998Z</time>
      </trkpt>
      <trkpt lat="53.166612" lon="9.946603">
        <ele>148.279381</ele>
        <time>2019-08-28T14:17:01.998Z</time>
      </trkpt>
      <trkpt lat="53.166664" lon="9.946455">
        <ele>148.905923</ele>
        <time>2019-08-28T14:17:10.998Z</time>
      </trkpt>
      <trkpt lat="53.166732" lon="9.946340">
        <ele>149.451403</ele>
        <time>2019-08-28T14:17:19.998Z</time>
      </trkpt>
      <trkpt lat="53.166797" lon="9.946208">
        <ele>150.028267</ele>
        <time>2019-08-28T14:17:27.997Z</time>
      </trkpt>
      <trkpt lat="53.166849" lon="9.946068">
        <ele>150.584435</ele>
        <time>2019-08-28T14:17:35.997Z</time>
      </trkpt>
      <trkpt lat="53.166882" lon="9.945928">
        <ele>151.092445</ele>
        <time>2019-08-28T14:17:43.997Z</time>
      </trkpt>
      <trkpt lat="53.166919" lon="9.945773">
        <ele>151.655847</ele>
        <time>2019-08-28T14:17:51.997Z</time>
      </trkpt>
      <trkpt lat="53.166945" lon="9.945622">
        <ele>152.186387</ele>
        <time>2019-08-28T14:18:01.997Z</time>
      </trkpt>
      <trkpt lat="53.166998" lon="9.945490">
        <ele>152.722892</ele>
        <time>2019-08-28T14:18:10.997Z</time>
      </trkpt>
      <trkpt lat="53.167070" lon="9.945370">
        <ele>153.296229</ele>
        <time>2019-08-28T14:18:19.997Z</time>
      </trkpt>
      <trkpt lat="53.167100" lon="9.945218">
        <ele>153.836631</ele>
        <time>2019-08-28T14:18:29.997Z</time>
      </trkpt>
      <trkpt lat="53.167139" lon="9.945079">
        <ele>154.354896</ele>
        <time>2019-08-28T14:18:36.997Z</time>
      </trkpt>
      <trkpt lat="53.167175" lon="9.944921">
        <ele>154.925694</ele>
        <time>2019-08-28T14:18:44.997Z</time>
      </trkpt>
      <trkpt lat="53.167179" lon="9.944754">
        <ele>155.490096</ele>
        <time>2019-08-28T14:18:52.997Z</time>
      </trkpt>
      <trkpt lat="53.167188" lon="9.944582">
        <ele>156.073140</ele>
        <time>2019-08-28T14:19:00.997Z</time>
      </trkpt>
      <trkpt lat="53.167235" lon="9.944448">
        <ele>156.597414</ele>
        <time>2019-08-28T14:19:09.997Z</time>
      </trkpt>
      <trkpt lat="53.167281" lon="9.944316">
        <ele>157.113015</ele>
        <time>2019-08-28T14:19:18.997Z</time>
      </trkpt>
      <trkpt lat="53.167314" lon="9.944159">
        <ele>157.674841</ele>
        <time>2019-08-28T14:19:26.997Z</time>
      </trkpt>
      <trkpt lat="53.167332" lon="9.944009">
        <ele>158.191431</ele>
        <time>2019-08-28T14:19:37.997Z</time>
      </trkpt>
      <trkpt lat="53.167374" lon="9.943854">
        <ele>158.765844</ele>
        <time>2019-08-28T14:19:46.997Z</time>
      </trkpt>
      <trkpt lat="53.167385" lon="9.943685">
        <ele>158.983054</ele>
        <time>2019-08-28T14:19:53.997Z</time>
      </trkpt>
      <trkpt lat="53.167384" lon="9.943526">
        <ele>159.068393</ele>
        <time>2019-08-28T14:19:58.997Z</time>
      </trkpt>
      <trkpt lat="53.167380" lon="9.943368">
        <ele>159.153267</ele>
        <time>2019-08-28T14:20:03.997Z</time>
      </trkpt>
      <trkpt lat="53.167388" lon="9.943207">
        <ele>159.239972</ele>
        <time>2019-08-28T14:20:10.998Z</time>
      </trkpt>
      <trkpt lat="53.167447" lon="9.943093">
        <ele>159.320802</ele>
        <time>2019-08-28T14:20:21.998Z</time>
      </trkpt>
      <trkpt lat="53.167536" lon="9.943007">
        <ele>159.412884</ele>
        <time>2019-08-28T14:20:30.998Z</time>
      </trkpt>
      <trkpt lat="53.167593" lon="9.942875">
        <ele>159.500193</ele>
        <time>2019-08-28T14:20:42.998Z</time>
      </trkpt>
      <trkpt lat="53.167726" lon="9.942355">
        <ele>159.803614</ele>
        <time>2019-08-28T14:22:59.998Z</time>
      </trkpt>
      <trkpt lat="53.167725" lon="9.942200">
        <ele>159.886806</ele>
        <time>2019-08-28T14:23:06.998Z</time>
      </trkpt>
      <trkpt lat="53.167747" lon="9.942035">
        <ele>159.977525</ele>
        <time>2019-08-28T14:23:13.998Z</time>
      </trkpt>
      <trkpt lat="53.167774" lon="9.941878">
        <ele>160.065184</ele>
        <time>2019-08-28T14:23:20.999Z</time>
      </trkpt>
      <trkpt lat="53.167811" lon="9.941727">
        <ele>160.152733</ele>
        <time>2019-08-28T14:23:28.999Z</time>
      </trkpt>
      <trkpt lat="53.167850" lon="9.941572">
        <ele>160.242951</ele>
        <time>2019-08-28T14:23:38.999Z</time>
      </trkpt>
      <trkpt lat="53.167889" lon="9.941433">
        <ele>160.325318</ele>
        <time>2019-08-28T14:23:47.999Z</time>
      </trkpt>
      <trkpt lat="53.167936" lon="9.941299">
        <ele>160.408639</ele>
        <time>2019-08-28T14:23:54.999Z</time>
      </trkpt>
      <trkpt lat="53.167960" lon="9.941148">
        <ele>160.492480</ele>
        <time>2019-08-28T14:24:02.999Z</time>
      </trkpt>
      <trkpt lat="53.168004" lon="9.941011">
        <ele>160.447383</ele>
        <time>2019-08-28T14:24:09.999Z</time>
      </trkpt>
      <trkpt lat="53.168042" lon="9.940871">
        <ele>160.317847</ele>
        <time>2019-08-28T14:24:17.998Z</time>
      </trkpt>
      <trkpt lat="53.168076" lon="9.940722">
        <ele>160.183468</ele>
        <time>2019-08-28T14:24:26.998Z</time>
      </trkpt>
      <trkpt lat="53.168104" lon="9.940577">
        <ele>160.055067</ele>
        <time>2019-08-28T14:24:34.998Z</time>
      </trkpt>
      <trkpt lat="53.168166" lon="9.940445">
        <ele>159.913723</ele>
        <time>2019-08-28T14:24:42.998Z</time>
      </trkpt>
      <trkpt lat="53.168208" lon="9.940284">
        <ele>159.765728</ele>
        <time>2019-08-28T14:24:50.998Z</time>
      </trkpt>
      <trkpt lat="53.168272" lon="9.940173">
        <ele>159.635917</ele>
        <time>2019-08-28T14:24:58.998Z</time>
      </trkpt>
      <trkpt lat="53.168344" lon="9.940053">
        <ele>159.492814</ele>
        <time>2019-08-28T14:25:06.998Z</time>
      </trkpt>
      <trkpt lat="53.168408" lon="9.939945">
        <ele>159.364814</ele>
        <time>2019-08-28T14:25:13.998Z</time>
      </trkpt>
      <trkpt lat="53.168481" lon="9.939822">
        <ele>159.218926</ele>
        <time>2019-08-28T14:25:22.998Z</time>
      </trkpt>
      <trkpt lat="53.168558" lon="9.939733">
        <ele>159.087212</ele>
        <time>2019-08-28T14:25:31.998Z</time>
      </trkpt>
      <trkpt lat="53.168621" lon="9.939619">
        <ele>158.956525</ele>
        <time>2019-08-28T14:25:49.998Z</time>
      </trkpt>
      <trkpt lat="53.168568" lon="9.939492">
        <ele>158.826097</ele>
        <time>2019-08-28T14:26:47.998Z</time>
      </trkpt>
      <trkpt lat="53.168474" lon="9.939446">
        <ele>158.688360</ele>
        <time>2019-08-28T14:26:55.998Z</time>
      </trkpt>
      <trkpt lat="53.168407" lon="9.939346">
        <ele>158.561953</ele>
        <time>2019-08-28T14:27:04.998Z</time>
      </trkpt>
      <trkpt lat="53.168345" lon="9.939226">
        <ele>158.428425</ele>
        <time>2019-08-28T14:27:13.000Z</time>
      </trkpt>
      <trkpt lat="53.168284" lon="9.939098">
        <ele>158.290600</ele>
        <time>2019-08-28T14:27:21.000Z</time>
      </trkpt>
      <trkpt lat="53.168226" lon="9.938970">
        <ele>158.155359</ele>
        <time>2019-08-28T14:27:30.000Z</time>
      </trkpt>
      <trkpt lat="53.168162" lon="9.938859">
        <ele>158.025548</ele>
        <time>2019-08-28T14:27:37.999Z</time>
      </trkpt>
      <trkpt lat="53.168071" lon="9.938771">
        <ele>157.592202</ele>
        <time>2019-08-28T14:27:46.999Z</time>
      </trkpt>
      <trkpt lat="53.167979" lon="9.938727">
        <ele>157.135623</ele>
        <time>2019-08-28T14:27:58.999Z</time>
      </trkpt>
      <trkpt lat="53.167931" lon="9.938552">
        <ele>156.585250</ele>
        <time>2019-08-28T14:29:08.999Z</time>
      </trkpt>
      <trkpt lat="53.168007" lon="9.938255">
        <ele>155.661729</ele>
        <time>2019-08-28T14:29:49.999Z</time>
      </trkpt>
      <trkpt lat="53.168049" lon="9.938112">
        <ele>155.206325</ele>
        <time>2019-08-28T14:29:56.999Z</time>
      </trkpt>
      <trkpt lat="53.168101" lon="9.937973">
        <ele>154.737752</ele>
        <time>2019-08-28T14:30:06.999Z</time>
      </trkpt>
      <trkpt lat="53.168168" lon="9.937732">
        <ele>153.978022</ele>
        <time>2019-08-28T14:30:29.999Z</time>
      </trkpt>
      <trkpt lat="53.168225" lon="9.937606">
        <ele>153.526594</ele>
        <time>2019-08-28T14:30:37.999Z</time>
      </trkpt>
      <trkpt lat="53.168418" lon="9.937630">
        <ele>152.603310</ele>
        <time>2019-08-28T14:31:11.998Z</time>
      </trkpt>
      <trkpt lat="53.168506" lon="9.937703">
        <ele>152.134452</ele>
        <time>2019-08-28T14:31:17.998Z</time>
      </trkpt>
      <trkpt lat="53.168589" lon="9.937791">
        <ele>151.665283</ele>
        <time>2019-08-28T14:31:25.998Z</time>
      </trkpt>
      <trkpt lat="53.168676" lon="9.937880">
        <ele>151.178412</ele>
        <time>2019-08-28T14:31:32.998Z</time>
      </trkpt>
      <trkpt lat="53.168741" lon="9.937988">
        <ele>150.740749</ele>
        <time>2019-08-28T14:31:41.998Z</time>
      </trkpt>
      <trkpt lat="53.168771" lon="9.938148">
        <ele>150.261321</ele>
        <time>2019-08-28T14:31:59.998Z</time>
      </trkpt>
      <trkpt lat="53.168800" lon="9.938293">
        <ele>149.824181</ele>
        <time>2019-08-28T14:32:06.998Z</time>
      </trkpt>
      <trkpt lat="53.168816" lon="9.938453">
        <ele>149.322404</ele>
        <time>2019-08-28T14:32:15.998Z</time>
      </trkpt>
      <trkpt lat="53.168863" lon="9.938595">
        <ele>148.544737</ele>
        <time>2019-08-28T14:32:25.998Z</time>
      </trkpt>
      <trkpt lat="53.168939" lon="9.938688">
        <ele>147.790916</ele>
        <time>2019-08-28T14:32:33.998Z</time>
      </trkpt>
      <trkpt lat="53.169026" lon="9.938772">
        <ele>146.986978</ele>
        <time>2019-08-28T14:32:41.998Z</time>
      </trkpt>
      <trkpt lat="53.169123" lon="9.938819">
        <ele>146.179142</ele>
        <time>2019-08-28T14:32:50.998Z</time>
      </trkpt>
      <trkpt lat="53.169222" lon="9.938845">
        <ele>145.377621</ele>
        <time>2019-08-28T14:32:58.998Z</time>
      </trkpt>
      <trkpt lat="53.169319" lon="9.938853">
        <ele>144.600899</ele>
        <time>2019-08-28T14:33:06.998Z</time>
      </trkpt>
      <trkpt lat="53.169413" lon="9.938844">
        <ele>143.847880</ele>
        <time>2019-08-28T14:33:14.998Z</time>
      </trkpt>
      <trkpt lat="53.169503" lon="9.938870">
        <ele>143.117377</ele>
        <time>2019-08-28T14:33:21.998Z</time>
      </trkpt>
      <trkpt lat="53.169597" lon="9.938891">
        <ele>142.358884</ele>
        <time>2019-08-28T14:33:30.998Z</time>
      </trkpt>
      <trkpt lat="53.169683" lon="9.938955">
        <ele>141.605749</ele>
        <time>2019-08-28T14:33:39.998Z</time>
      </trkpt>
      <trkpt lat="53.169783" lon="9.938988">
        <ele>140.790484</ele>
        <time>2019-08-28T14:33:48.998Z</time>
      </trkpt>
      <trkpt lat="53.169874" lon="9.939055">
        <ele>139.994965</ele>
        <time>2019-08-28T14:33:56.998Z</time>
      </trkpt>
      <trkpt lat="53.169938" lon="9.939176">
        <ele>139.221337</ele>
        <time>2019-08-28T14:34:03.998Z</time>
      </trkpt>
      <trkpt lat="53.169997" lon="9.939302">
        <ele>138.454821</ele>
        <time>2019-08-28T14:34:10.998Z</time>
      </trkpt>
      <trkpt lat="53.170035" lon="9.939444">
        <ele>137.709296</ele>
        <time>2019-08-28T14:34:21.000Z</time>
      </trkpt>
      <trkpt lat="53.170060" lon="9.939604">
        <ele>136.916603</ele>
        <time>2019-08-28T14:34:28.000Z</time>
      </trkpt>
      <trkpt lat="53.170098" lon="9.939748">
        <ele>136.162313</ele>
        <time>2019-08-28T14:34:36.000Z</time>
      </trkpt>
      <trkpt lat="53.170138" lon="9.939887">
        <ele>135.423118</ele>
        <time>2019-08-28T14:34:42.999Z</time>
      </trkpt>
      <trkpt lat="53.170205" lon="9.940014">
        <ele>134.690188</ele>
        <time>2019-08-28T14:34:50.998Z</time>
      </trkpt>
      <trkpt lat="53.170281" lon="9.940114">
        <ele>134.060320</ele>
        <time>2019-08-28T14:34:57.998Z</time>
      </trkpt>
      <trkpt lat="53.170359" lon="9.940221">
        <ele>133.403188</ele>
        <time>2019-08-28T14:35:05.998Z</time>
      </trkpt>
      <trkpt lat="53.170440" lon="9.940290">
        <ele>132.811361</ele>
        <time>2019-08-28T14:35:14.998Z</time>
      </trkpt>
      <trkpt lat="53.170527" lon="9.940334">
        <ele>132.219787</ele>
        <time>2019-08-28T14:35:21.998Z</time>
      </trkpt>
      <trkpt lat="53.170617" lon="9.940350">
        <ele>131.630820</ele>
        <time>2019-08-28T14:35:29.998Z</time>
      </trkpt>
      <trkpt lat="53.170713" lon="9.940393">
        <ele>130.984000</ele>
        <time>2019-08-28T14:35:37.998Z</time>
      </trkpt>
      <trkpt lat="53.170805" lon="9.940424">
        <ele>130.373244</ele>
        <time>2019-08-28T14:35:45.998Z</time>
      </trkpt>
      <trkpt lat="53.170895" lon="9.940448">
        <ele>129.780158</ele>
        <time>2019-08-28T14:35:51.998Z</time>
      </trkpt>
      <trkpt lat="53.170989" lon="9.940501">
        <ele>129.134486</ele>
        <time>2019-08-28T14:35:59.998Z</time>
      </trkpt>
      <trkpt lat="53.171080" lon="9.940533">
        <ele>128.529316</ele>
        <time>2019-08-28T14:36:06.998Z</time>
      </trkpt>
      <trkpt lat="53.171180" lon="9.940572">
        <ele>127.861047</ele>
        <time>2019-08-28T14:36:14.998Z</time>
      </trkpt>
      <trkpt lat="53.171283" lon="9.940604">
        <ele>127.179278</ele>
        <time>2019-08-28T14:36:21.998Z</time>
      </trkpt>
      <trkpt lat="53.171380" lon="9.940640">
        <ele>126.532645</ele>
        <time>2019-08-28T14:36:28.998Z</time>
      </trkpt>
      <trkpt lat="53.171470" lon="9.940632">
        <ele>125.946163</ele>
        <time>2019-08-28T14:36:35.998Z</time>
      </trkpt>
      <trkpt lat="53.171562" lon="9.940682">
        <ele>125.316531</ele>
        <time>2019-08-28T14:36:41.998Z</time>
      </trkpt>
      <trkpt lat="53.171651" lon="9.940718">
        <ele>124.720606</ele>
        <time>2019-08-28T14:36:50.998Z</time>
      </trkpt>
      <trkpt lat="53.171741" lon="9.940731">
        <ele>124.132764</ele>
        <time>2019-08-28T14:36:57.998Z</time>
      </trkpt>
      <trkpt lat="53.171840" lon="9.940738">
        <ele>123.487969</ele>
        <time>2019-08-28T14:37:04.997Z</time>
      </trkpt>
      <trkpt lat="53.171931" lon="9.940742">
        <ele>123.091353</ele>
        <time>2019-08-28T14:37:10.997Z</time>
      </trkpt>
      <trkpt lat="53.172021" lon="9.940761">
        <ele>122.768803</ele>
        <time>2019-08-28T14:37:16.997Z</time>
      </trkpt>
      <trkpt lat="53.172122" lon="9.940754">
        <ele>122.409385</ele>
        <time>2019-08-28T14:37:23.997Z</time>
      </trkpt>
      <trkpt lat="53.172217" lon="9.940761">
        <ele>122.071280</ele>
        <time>2019-08-28T14:37:32.997Z</time>
      </trkpt>
      <trkpt lat="53.172309" lon="9.940766">
        <ele>121.743997</ele>
        <time>2019-08-28T14:37:39.997Z</time>
      </trkpt>
      <trkpt lat="53.172404" lon="9.940804">
        <ele>121.396649</ele>
        <time>2019-08-28T14:37:46.997Z</time>
      </trkpt>
      <trkpt lat="53.172493" lon="9.940831">
        <ele>121.075017</ele>
        <time>2019-08-28T14:37:53.997Z</time>
      </trkpt>
      <trkpt lat="53.172587" lon="9.940846">
        <ele>120.739271</ele>
        <time>2019-08-28T14:38:00.997Z</time>
      </trkpt>
      <trkpt lat="53.172685" lon="9.940866">
        <ele>120.388232</ele>
        <time>2019-08-28T14:38:07.997Z</time>
      </trkpt>
      <trkpt lat="53.172775" lon="9.940920">
        <ele>120.048168</ele>
        <time>2019-08-28T14:38:13.997Z</time>
      </trkpt>
      <trkpt lat="53.172862" lon="9.940961">
        <ele>119.726733</ele>
        <time>2019-08-28T14:38:20.997Z</time>
      </trkpt>
      <trkpt lat="53.172953" lon="9.941008">
        <ele>119.388029</ele>
        <time>2019-08-28T14:38:26.997Z</time>
      </trkpt>
      <trkpt lat="53.173041" lon="9.941037">
        <ele>119.069096</ele>
        <time>2019-08-28T14:38:32.997Z</time>
      </trkpt>
      <trkpt lat="53.173136" lon="9.941045">
        <ele>118.730891</ele>
        <time>2019-08-28T14:38:41.997Z</time>
      </trkpt>
      <trkpt lat="53.173224" lon="9.941080">
        <ele>118.409236</ele>
        <time>2019-08-28T14:38:48.997Z</time>
      </trkpt>
      <trkpt lat="53.173310" lon="9.941128">
        <ele>118.086802</ele>
        <time>2019-08-28T14:38:55.997Z</time>
      </trkpt>
      <trkpt lat="53.173361" lon="9.941265">
        <ele>117.743104</ele>
        <time>2019-08-28T14:39:03.997Z</time>
      </trkpt>
      <trkpt lat="53.173417" lon="9.941409">
        <ele>117.377283</ele>
        <time>2019-08-28T14:39:10.997Z</time>
      </trkpt>
      <trkpt lat="53.173454" lon="9.941569">
        <ele>117.011799</ele>
        <time>2019-08-28T14:39:17.997Z</time>
      </trkpt>
      <trkpt lat="53.173503" lon="9.941707">
        <ele>116.829674</ele>
        <time>2019-08-28T14:39:24.997Z</time>
      </trkpt>
      <trkpt lat="53.173556" lon="9.941843">
        <ele>116.694662</ele>
        <time>2019-08-28T14:39:38.997Z</time>
      </trkpt>
      <trkpt lat="53.173589" lon="9.941998">
        <ele>116.557761</ele>
        <time>2019-08-28T14:39:44.997Z</time>
      </trkpt>
      <trkpt lat="53.173629" lon="9.942139">
        <ele>116.427928</ele>
        <time>2019-08-28T14:39:51.997Z</time>
      </trkpt>
      <trkpt lat="53.173660" lon="9.942283">
        <ele>116.300582</ele>
        <time>2019-08-28T14:39:57.996Z</time>
      </trkpt>
      <trkpt lat="53.173706" lon="9.942417">
        <ele>116.172060</ele>
        <time>2019-08-28T14:40:04.996Z</time>
      </trkpt>
      <trkpt lat="53.173747" lon="9.942561">
        <ele>116.039376</ele>
        <time>2019-08-28T14:40:11.996Z</time>
      </trkpt>
      <trkpt lat="53.173785" lon="9.942711">
        <ele>115.903841</ele>
        <time>2019-08-28T14:40:19.996Z</time>
      </trkpt>
      <trkpt lat="53.173822" lon="9.942852">
        <ele>115.775735</ele>
        <time>2019-08-28T14:40:25.996Z</time>
      </trkpt>
      <trkpt lat="53.173853" lon="9.943008">
        <ele>115.638949</ele>
        <time>2019-08-28T14:40:32.996Z</time>
      </trkpt>
      <trkpt lat="53.173907" lon="9.943130">
        <ele>115.512725</ele>
        <time>2019-08-28T14:40:39.996Z</time>
      </trkpt>
      <trkpt lat="53.173957" lon="9.943265">
        <ele>115.380647</ele>
        <time>2019-08-28T14:40:47.996Z</time>
      </trkpt>
      <trkpt lat="53.173987" lon="9.943410">
        <ele>115.252979</ele>
        <time>2019-08-28T14:40:54.996Z</time>
      </trkpt>
      <trkpt lat="53.174040" lon="9.943536">
        <ele>115.124865</ele>
        <time>2019-08-28T14:41:01.996Z</time>
      </trkpt>
      <trkpt lat="53.174069" lon="9.943695">
        <ele>114.986542</ele>
        <time>2019-08-28T14:41:08.996Z</time>
      </trkpt>
      <trkpt lat="53.174108" lon="9.943836">
        <ele>114.857298</ele>
        <time>2019-08-28T14:41:16.996Z</time>
      </trkpt>
      <trkpt lat="53.174150" lon="9.943969">
        <ele>114.732181</ele>
        <time>2019-08-28T14:41:23.996Z</time>
      </trkpt>
      <trkpt lat="53.174198" lon="9.944097">
        <ele>114.606518</ele>
        <time>2019-08-28T14:41:30.998Z</time>
      </trkpt>
      <trkpt lat="53.174240" lon="9.944230">
        <ele>114.481402</ele>
        <time>2019-08-28T14:41:38.998Z</time>
      </trkpt>
      <trkpt lat="53.174278" lon="9.944369">
        <ele>114.301479</ele>
        <time>2019-08-28T14:41:46.998Z</time>
      </trkpt>
      <trkpt lat="53.174332" lon="9.944499">
        <ele>114.083272</ele>
        <time>2019-08-28T14:41:52.998Z</time>
      </trkpt>
      <trkpt lat="53.174362" lon="9.944640">
        <ele>113.876857</ele>
        <time>2019-08-28T14:41:58.998Z</time>
      </trkpt>
      <trkpt lat="53.174397" lon="9.944793">
        <ele>113.650928</ele>
        <time>2019-08-28T14:42:06.998Z</time>
      </trkpt>
      <trkpt lat="53.174434" lon="9.944964">
        <ele>113.400116</ele>
        <time>2019-08-28T14:42:13.998Z</time>
      </trkpt>
      <trkpt lat="53.174454" lon="9.945127">
        <ele>113.170578</ele>
        <time>2019-08-28T14:42:20.998Z</time>
      </trkpt>
      <trkpt lat="53.174483" lon="9.945280">
        <ele>112.949198</ele>
        <time>2019-08-28T14:42:38.998Z</time>
      </trkpt>
      <trkpt lat="53.174534" lon="9.945420">
        <ele>112.723181</ele>
        <time>2019-08-28T14:42:47.998Z</time>
      </trkpt>
      <trkpt lat="53.174587" lon="9.945555">
        <ele>112.500540</ele>
        <time>2019-08-28T14:42:55.998Z</time>
      </trkpt>
      <trkpt lat="53.174628" lon="9.945694">
        <ele>112.286815</ele>
        <time>2019-08-28T14:43:02.998Z</time>
      </trkpt>
      <trkpt lat="53.174671" lon="9.945841">
        <ele>112.061153</ele>
        <time>2019-08-28T14:43:09.998Z</time>
      </trkpt>
      <trkpt lat="53.174702" lon="9.945993">
        <ele>111.839648</ele>
        <time>2019-08-28T14:43:15.998Z</time>
      </trkpt>
      <trkpt lat="53.174746" lon="9.946125">
        <ele>111.631276</ele>
        <time>2019-08-28T14:43:22.998Z</time>
      </trkpt>
      <trkpt lat="53.174793" lon="9.946275">
        <ele>111.397768</ele>
        <time>2019-08-28T14:43:29.998Z</time>
      </trkpt>
      <trkpt lat="53.174844" lon="9.946411">
        <ele>111.176449</ele>
        <time>2019-08-28T14:43:36.998Z</time>
      </trkpt>
      <trkpt lat="53.174881" lon="9.946548">
        <ele>110.969146</ele>
        <time>2019-08-28T14:43:44.998Z</time>
      </trkpt>
      <trkpt lat="53.174932" lon="9.946684">
        <ele>110.747827</ele>
        <time>2019-08-28T14:43:51.998Z</time>
      </trkpt>
      <trkpt lat="53.174974" lon="9.946822">
        <ele>110.534307</ele>
        <time>2019-08-28T14:43:59.998Z</time>
      </trkpt>
      <trkpt lat="53.175023" lon="9.947106">
        <ele>110.208358</ele>
        <time>2019-08-28T14:44:36.997Z</time>
      </trkpt>
      <trkpt lat="53.175063" lon="9.947252">
        <ele>110.094701</ele>
        <time>2019-08-28T14:44:43.997Z</time>
      </trkpt>
      <trkpt lat="53.175097" lon="9.947405">
        <ele>109.979169</ele>
        <time>2019-08-28T14:44:49.997Z</time>
      </trkpt>
      <trkpt lat="53.175140" lon="9.947558">
        <ele>109.859525</ele>
        <time>2019-08-28T14:44:56.997Z</time>
      </trkpt>
      <trkpt lat="53.175194" lon="9.947702">
        <ele>109.739260</ele>
        <time>2019-08-28T14:45:03.997Z</time>
      </trkpt>
      <trkpt lat="53.175248" lon="9.947840">
        <ele>109.622575</ele>
        <time>2019-08-28T14:45:10.997Z</time>
      </trkpt>
      <trkpt lat="53.175285" lon="9.947980">
        <ele>109.514245</ele>
        <time>2019-08-28T14:45:17.997Z</time>
      </trkpt>
      <trkpt lat="53.175322" lon="9.948122">
        <ele>109.404618</ele>
        <time>2019-08-28T14:45:24.997Z</time>
      </trkpt>
      <trkpt lat="53.175356" lon="9.948265">
        <ele>109.295697</ele>
        <time>2019-08-28T14:45:31.997Z</time>
      </trkpt>
      <trkpt lat="53.175391" lon="9.948406">
        <ele>109.187645</ele>
        <time>2019-08-28T14:45:38.997Z</time>
      </trkpt>
      <trkpt lat="53.175441" lon="9.948539">
        <ele>109.076489</ele>
        <time>2019-08-28T14:45:44.997Z</time>
      </trkpt>
      <trkpt lat="53.175500" lon="9.948661">
        <ele>108.965501</ele>
        <time>2019-08-28T14:45:51.998Z</time>
      </trkpt>
      <trkpt lat="53.175563" lon="9.948771">
        <ele>108.857781</ele>
        <time>2019-08-28T14:46:00.998Z</time>
      </trkpt>
      <trkpt lat="53.175652" lon="9.948699">
        <ele>108.740941</ele>
        <time>2019-08-28T14:46:10.998Z</time>
      </trkpt>
      <trkpt lat="53.175727" lon="9.948584">
        <ele>108.620615</ele>
        <time>2019-08-28T14:46:17.998Z</time>
      </trkpt>
      <trkpt lat="53.175808" lon="9.948498">
        <ele>108.507202</ele>
        <time>2019-08-28T14:46:25.998Z</time>
      </trkpt>
      <trkpt lat="53.175904" lon="9.948408">
        <ele>108.377125</ele>
        <time>2019-08-28T14:46:32.998Z</time>
      </trkpt>
      <trkpt lat="53.175991" lon="9.948348">
        <ele>108.265922</ele>
        <time>2019-08-28T14:46:39.998Z</time>
      </trkpt>
      <trkpt lat="53.176078" lon="9.948259">
        <ele>108.098554</ele>
        <time>2019-08-28T14:46:47.998Z</time>
      </trkpt>
      <trkpt lat="53.176181" lon="9.948205">
        <ele>107.727448</ele>
        <time>2019-08-28T14:46:54.998Z</time>
      </trkpt>
      <trkpt lat="53.176268" lon="9.948134">
        <ele>107.394550</ele>
        <time>2019-08-28T14:47:00.998Z</time>
      </trkpt>
      <trkpt lat="53.176344" lon="9.948031">
        <ele>107.057996</ele>
        <time>2019-08-28T14:47:07.998Z</time>
      </trkpt>
      <trkpt lat="53.176420" lon="9.947926">
        <ele>106.718829</ele>
        <time>2019-08-28T14:47:15.998Z</time>
      </trkpt>
      <trkpt lat="53.176514" lon="9.947843">
        <ele>106.353270</ele>
        <time>2019-08-28T14:47:22.998Z</time>
      </trkpt>
      <trkpt lat="53.176601" lon="9.947742">
        <ele>105.988962</ele>
        <time>2019-08-28T14:47:30.998Z</time>
      </trkpt>
      <trkpt lat="53.176697" lon="9.947679">
        <ele>105.634377</ele>
        <time>2019-08-28T14:47:37.997Z</time>
      </trkpt>
      <trkpt lat="53.176788" lon="9.947639">
        <ele>105.310913</ele>
        <time>2019-08-28T14:47:44.997Z</time>
      </trkpt>
      <trkpt lat="53.176880" lon="9.947574">
        <ele>104.967502</ele>
        <time>2019-08-28T14:47:51.997Z</time>
      </trkpt>
      <trkpt lat="53.176969" lon="9.947503">
        <ele>104.628416</ele>
        <time>2019-08-28T14:47:59.997Z</time>
      </trkpt>
      <trkpt lat="53.177055" lon="9.947444">
        <ele>104.308798</ele>
        <time>2019-08-28T14:48:06.997Z</time>
      </trkpt>
      <trkpt lat="53.177127" lon="9.947343">
        <ele>103.985469</ele>
        <time>2019-08-28T14:48:13.997Z</time>
      </trkpt>
      <trkpt lat="53.177201" lon="9.947254">
        <ele>103.671918</ele>
        <time>2019-08-28T14:48:20.997Z</time>
      </trkpt>
      <trkpt lat="53.177280" lon="9.947157">
        <ele>103.334771</ele>
        <time>2019-08-28T14:48:27.997Z</time>
      </trkpt>
      <trkpt lat="53.177366" lon="9.947080">
        <ele>102.999294</ele>
        <time>2019-08-28T14:48:34.999Z</time>
      </trkpt>
      <trkpt lat="53.177458" lon="9.947011">
        <ele>102.652587</ele>
        <time>2019-08-28T14:48:41.999Z</time>
      </trkpt>
      <trkpt lat="53.177546" lon="9.946957">
        <ele>102.330300</ele>
        <time>2019-08-28T14:48:47.999Z</time>
      </trkpt>
      <trkpt lat="53.177629" lon="9.946871">
        <ele>101.994472</ele>
        <time>2019-08-28T14:48:55.999Z</time>
      </trkpt>
      <trkpt lat="53.177720" lon="9.946817">
        <ele>101.796108</ele>
        <time>2019-08-28T14:49:02.999Z</time>
      </trkpt>
      <trkpt lat="53.177806" lon="9.946742">
        <ele>101.599701</ele>
        <time>2019-08-28T14:49:10.999Z</time>
      </trkpt>
      <trkpt lat="53.177888" lon="9.946676">
        <ele>101.415432</ele>
        <time>2019-08-28T14:49:18.999Z</time>
      </trkpt>
      <trkpt lat="53.177975" lon="9.946603">
        <ele>101.218331</ele>
        <time>2019-08-28T14:49:25.999Z</time>
      </trkpt>
      <trkpt lat="53.178066" lon="9.946547">
        <ele>101.022019</ele>
        <time>2019-08-28T14:49:32.999Z</time>
      </trkpt>
      <trkpt lat="53.178165" lon="9.946559">
        <ele>100.821114</ele>
        <time>2019-08-28T14:49:40.999Z</time>
      </trkpt>
      <trkpt lat="53.178220" lon="9.946701">
        <ele>100.616022</ele>
        <time>2019-08-28T14:49:47.999Z</time>
      </trkpt>
      <trkpt lat="53.178263" lon="9.946836">
        <ele>100.430570</ele>
        <time>2019-08-28T14:49:55.999Z</time>
      </trkpt>
      <trkpt lat="53.178309" lon="9.946975">
        <ele>100.237960</ele>
        <time>2019-08-28T14:50:03.999Z</time>
      </trkpt>
      <trkpt lat="53.178348" lon="9.947112">
        <ele>100.053980</ele>
        <time>2019-08-28T14:50:08.999Z</time>
      </trkpt>
      <trkpt lat="53.178397" lon="9.947250">
        <ele>99.859407</ele>
        <time>2019-08-28T14:50:17.999Z</time>
      </trkpt>
      <trkpt lat="53.178440" lon="9.947383">
        <ele>99.676095</ele>
        <time>2019-08-28T14:50:28.999Z</time>
      </trkpt>
      <trkpt lat="53.178410" lon="9.947538">
        <ele>99.478513</ele>
        <time>2019-08-28T14:50:38.999Z</time>
      </trkpt>
      <trkpt lat="53.178448" lon="9.947688">
        <ele>99.280970</ele>
        <time>2019-08-28T14:50:44.999Z</time>
      </trkpt>
      <trkpt lat="53.178492" lon="9.947853">
        <ele>99.061901</ele>
        <time>2019-08-28T14:50:50.999Z</time>
      </trkpt>
      <trkpt lat="53.178524" lon="9.947998">
        <ele>98.874465</ele>
        <time>2019-08-28T14:50:56.999Z</time>
      </trkpt>
      <trkpt lat="53.178553" lon="9.948152">
        <ele>98.678653</ele>
        <time>2019-08-28T14:51:04.999Z</time>
      </trkpt>
      <trkpt lat="53.178608" lon="9.948289">
        <ele>98.478629</ele>
        <time>2019-08-28T14:51:11.999Z</time>
      </trkpt>
      <trkpt lat="53.178639" lon="9.948433">
        <ele>98.296111</ele>
        <time>2019-08-28T14:51:20.998Z</time>
      </trkpt>
      <trkpt lat="53.178671" lon="9.948581">
        <ele>98.116166</ele>
        <time>2019-08-28T14:51:28.998Z</time>
      </trkpt>
      <trkpt lat="53.178692" lon="9.948747">
        <ele>97.922130</ele>
        <time>2019-08-28T14:51:35.998Z</time>
      </trkpt>
      <trkpt lat="53.178735" lon="9.948886">
        <ele>97.743229</ele>
        <time>2019-08-28T14:51:43.998Z</time>
      </trkpt>
      <trkpt lat="53.178779" lon="9.949019">
        <ele>97.569482</ele>
        <time>2019-08-28T14:51:50.998Z</time>
      </trkpt>
      <trkpt lat="53.178813" lon="9.949161">
        <ele>97.394598</ele>
        <time>2019-08-28T14:51:57.998Z</time>
      </trkpt>
      <trkpt lat="53.178856" lon="9.949303">
        <ele>97.212641</ele>
        <time>2019-08-28T14:52:05.998Z</time>
      </trkpt>
      <trkpt lat="53.178874" lon="9.949451">
        <ele>97.039925</ele>
        <time>2019-08-28T14:52:14.998Z</time>
      </trkpt>
      <trkpt lat="53.178918" lon="9.949602">
        <ele>96.847899</ele>
        <time>2019-08-28T14:52:22.998Z</time>
      </trkpt>
      <trkpt lat="53.178959" lon="9.949756">
        <ele>96.655175</ele>
        <time>2019-08-28T14:52:33.998Z</time>
      </trkpt>
      <trkpt lat="53.178981" lon="9.949908">
        <ele>96.476338</ele>
        <time>2019-08-28T14:52:41.998Z</time>
      </trkpt>
      <trkpt lat="53.179029" lon="9.950051">
        <ele>96.288887</ele>
        <time>2019-08-28T14:52:50.998Z</time>
      </trkpt>
      <trkpt lat="53.179086" lon="9.950184">
        <ele>96.101887</ele>
        <time>2019-08-28T14:52:57.998Z</time>
      </trkpt>
      <trkpt lat="53.179142" lon="9.950321">
        <ele>95.912229</ele>
        <time>2019-08-28T14:53:04.998Z</time>
      </trkpt>
      <trkpt lat="53.179173" lon="9.950472">
        <ele>95.729682</ele>
        <time>2019-08-28T14:53:14.998Z</time>
      </trkpt>
      <trkpt lat="53.179205" lon="9.950621">
        <ele>95.548663</ele>
        <time>2019-08-28T14:53:22.998Z</time>
      </trkpt>
      <trkpt lat="53.179265" lon="9.950740">
        <ele>95.370808</ele>
        <time>2019-08-28T14:53:29.998Z</time>
      </trkpt>
      <trkpt lat="53.179289" lon="9.950899">
        <ele>95.183285</ele>
        <time>2019-08-28T14:53:36.998Z</time>
      </trkpt>
      <trkpt lat="53.179313" lon="9.951061">
        <ele>94.992433</ele>
        <time>2019-08-28T14:53:44.998Z</time>
      </trkpt>
      <trkpt lat="53.179361" lon="9.951207">
        <ele>94.839862</ele>
        <time>2019-08-28T14:53:54.998Z</time>
      </trkpt>
      <trkpt lat="53.179408" lon="9.951340">
        <ele>94.722651</ele>
        <time>2019-08-28T14:54:02.998Z</time>
      </trkpt>
      <trkpt lat="53.179460" lon="9.951469">
        <ele>94.604632</ele>
        <time>2019-08-28T14:54:11.998Z</time>
      </trkpt>
      <trkpt lat="53.179503" lon="9.951604">
        <ele>94.488573</ele>
        <time>2019-08-28T14:54:18.998Z</time>
      </trkpt>
      <trkpt lat="53.179543" lon="9.951754">
        <ele>94.363938</ele>
        <time>2019-08-28T14:54:28.998Z</time>
      </trkpt>
      <trkpt lat="53.179582" lon="9.951915">
        <ele>94.232111</ele>
        <time>2019-08-28T14:54:36.997Z</time>
      </trkpt>
      <trkpt lat="53.179658" lon="9.952023">
        <ele>94.105662</ele>
        <time>2019-08-28T14:54:44.997Z</time>
      </trkpt>
      <trkpt lat="53.179685" lon="9.952193">
        <ele>93.972154</ele>
        <time>2019-08-28T14:54:52.997Z</time>
      </trkpt>
      <trkpt lat="53.179743" lon="9.952322">
        <ele>93.849730</ele>
        <time>2019-08-28T14:55:01.997Z</time>
      </trkpt>
      <trkpt lat="53.179783" lon="9.952461">
        <ele>93.732676</ele>
        <time>2019-08-28T14:55:10.997Z</time>
      </trkpt>
      <trkpt lat="53.179818" lon="9.952606">
        <ele>93.614009</ele>
        <time>2019-08-28T14:55:18.997Z</time>
      </trkpt>
      <trkpt lat="53.179851" lon="9.952774">
        <ele>93.479799</ele>
        <time>2019-08-28T14:55:25.997Z</time>
      </trkpt>
      <trkpt lat="53.179898" lon="9.952916">
        <ele>93.356655</ele>
        <time>2019-08-28T14:55:32.997Z</time>
      </trkpt>
      <trkpt lat="53.179920" lon="9.953072">
        <ele>93.234996</ele>
        <time>2019-08-28T14:55:40.999Z</time>
      </trkpt>
      <trkpt lat="53.179973" lon="9.953205">
        <ele>93.113749</ele>
        <time>2019-08-28T14:55:48.999Z</time>
      </trkpt>
      <trkpt lat="53.180006" lon="9.953368">
        <ele>92.983141</ele>
        <time>2019-08-28T14:55:57.999Z</time>
      </trkpt>
      <trkpt lat="53.180032" lon="9.953519">
        <ele>92.863875</ele>
        <time>2019-08-28T14:56:05.999Z</time>
      </trkpt>
      <trkpt lat="53.180077" lon="9.953659">
        <ele>92.743275</ele>
        <time>2019-08-28T14:56:13.999Z</time>
      </trkpt>
      <trkpt lat="53.180116" lon="9.953804">
        <ele>92.610858</ele>
        <time>2019-08-28T14:56:19.999Z</time>
      </trkpt>
      <trkpt lat="53.180176" lon="9.953938">
        <ele>92.374816</ele>
        <time>2019-08-28T14:56:27.999Z</time>
      </trkpt>
      <trkpt lat="53.180216" lon="9.954087">
        <ele>92.144424</ele>
        <time>2019-08-28T14:56:35.999Z</time>
      </trkpt>
      <trkpt lat="53.180245" lon="9.954238">
        <ele>91.920668</ele>
        <time>2019-08-28T14:56:43.999Z</time>
      </trkpt>
      <trkpt lat="53.180271" lon="9.954382">
        <ele>91.708442</ele>
        <time>2019-08-28T14:56:52.999Z</time>
      </trkpt>
      <trkpt lat="53.180298" lon="9.954538">
        <ele>91.479308</ele>
        <time>2019-08-28T14:56:59.999Z</time>
      </trkpt>
      <trkpt lat="53.180348" lon="9.954684">
        <ele>91.242016</ele>
        <time>2019-08-28T14:57:06.999Z</time>
      </trkpt>
      <trkpt lat="53.180374" lon="9.954830">
        <ele>91.027086</ele>
        <time>2019-08-28T14:57:13.998Z</time>
      </trkpt>
      <trkpt lat="53.180421" lon="9.954982">
        <ele>90.785727</ele>
        <time>2019-08-28T14:57:21.998Z</time>
      </trkpt>
      <trkpt lat="53.180478" lon="9.955108">
        <ele>90.562955</ele>
        <time>2019-08-28T14:57:28.998Z</time>
      </trkpt>
      <trkpt lat="53.180524" lon="9.955252">
        <ele>90.332687</ele>
        <time>2019-08-28T14:57:36.998Z</time>
      </trkpt>
      <trkpt lat="53.180548" lon="9.955406">
        <ele>90.108145</ele>
        <time>2019-08-28T14:57:46.998Z</time>
      </trkpt>
      <trkpt lat="53.180599" lon="9.955560">
        <ele>89.859858</ele>
        <time>2019-08-28T14:57:54.998Z</time>
      </trkpt>
      <trkpt lat="53.180654" lon="9.955684">
        <ele>89.642167</ele>
        <time>2019-08-28T14:58:01.998Z</time>
      </trkpt>
      <trkpt lat="53.180694" lon="9.955838">
        <ele>89.405321</ele>
        <time>2019-08-28T14:58:08.998Z</time>
      </trkpt>
      <trkpt lat="53.180726" lon="9.955980">
        <ele>89.191243</ele>
        <time>2019-08-28T14:58:15.998Z</time>
      </trkpt>
      <trkpt lat="53.180762" lon="9.956123">
        <ele>88.972371</ele>
        <time>2019-08-28T14:58:22.998Z</time>
      </trkpt>
      <trkpt lat="53.180815" lon="9.956266">
        <ele>88.735108</ele>
        <time>2019-08-28T14:58:30.998Z</time>
      </trkpt>
      <trkpt lat="53.180822" lon="9.956417">
        <ele>88.521392</ele>
        <time>2019-08-28T14:58:36.997Z</time>
      </trkpt>
      <trkpt lat="53.180871" lon="9.956567">
        <ele>88.356245</ele>
        <time>2019-08-28T14:58:44.997Z</time>
      </trkpt>
      <trkpt lat="53.180918" lon="9.956712">
        <ele>88.269789</ele>
        <time>2019-08-28T14:58:53.997Z</time>
      </trkpt>
      <trkpt lat="53.180932" lon="9.956876">
        <ele>88.182910</ele>
        <time>2019-08-28T14:59:01.997Z</time>
      </trkpt>
      <trkpt lat="53.180915" lon="9.957041">
        <ele>88.095106</ele>
        <time>2019-08-28T14:59:10.997Z</time>
      </trkpt>
      <trkpt lat="53.180912" lon="9.957205">
        <ele>88.009056</ele>
        <time>2019-08-28T14:59:17.997Z</time>
      </trkpt>
      <trkpt lat="53.180923" lon="9.957361">
        <ele>87.926677</ele>
        <time>2019-08-28T14:59:25.997Z</time>
      </trkpt>
      <trkpt lat="53.180901" lon="9.957515">
        <ele>87.843649</ele>
        <time>2019-08-28T14:59:32.997Z</time>
      </trkpt>
      <trkpt lat="53.180898" lon="9.957685">
        <ele>87.754453</ele>
        <time>2019-08-28T14:59:40.997Z</time>
      </trkpt>
      <trkpt lat="53.180890" lon="9.957837">
        <ele>87.674430</ele>
        <time>2019-08-28T14:59:47.997Z</time>
      </trkpt>
      <trkpt lat="53.180876" lon="9.958005">
        <ele>87.585474</ele>
        <time>2019-08-28T14:59:56.997Z</time>
      </trkpt>
      <trkpt lat="53.180860" lon="9.958154">
        <ele>87.506086</ele>
        <time>2019-08-28T15:00:02.997Z</time>
      </trkpt>
      <trkpt lat="53.180845" lon="9.958303">
        <ele>87.426848</ele>
        <time>2019-08-28T15:00:10.997Z</time>
      </trkpt>
      <trkpt lat="53.180858" lon="9.958452">
        <ele>87.347881</ele>
        <time>2019-08-28T15:00:18.997Z</time>
      </trkpt>
      <trkpt lat="53.180806" lon="9.958594">
        <ele>87.260606</ele>
        <time>2019-08-28T15:00:26.997Z</time>
      </trkpt>
      <trkpt lat="53.180791" lon="9.958750">
        <ele>87.177745</ele>
        <time>2019-08-28T15:00:36.997Z</time>
      </trkpt>
      <trkpt lat="53.180838" lon="9.958893">
        <ele>87.092209</ele>
        <time>2019-08-28T15:00:46.997Z</time>
      </trkpt>
      <trkpt lat="53.180879" lon="9.959053">
        <ele>87.000948</ele>
        <time>2019-08-28T15:00:54.997Z</time>
      </trkpt>
      <trkpt lat="53.180929" lon="9.959200">
        <ele>86.912302</ele>
        <time>2019-08-28T15:01:01.997Z</time>
      </trkpt>
      <trkpt lat="53.180970" lon="9.959340">
        <ele>86.830581</ele>
        <time>2019-08-28T15:01:07.997Z</time>
      </trkpt>
      <trkpt lat="53.181018" lon="9.959480">
        <ele>86.615857</ele>
        <time>2019-08-28T15:01:16.997Z</time>
      </trkpt>
      <trkpt lat="53.181096" lon="9.959583">
        <ele>86.389184</ele>
        <time>2019-08-28T15:01:25.997Z</time>
      </trkpt>
      <trkpt lat="53.181164" lon="9.959693">
        <ele>86.173360</ele>
        <time>2019-08-28T15:01:31.997Z</time>
      </trkpt>
      <trkpt lat="53.181221" lon="9.959817">
        <ele>85.959938</ele>
        <time>2019-08-28T15:01:38.997Z</time>
      </trkpt>
      <trkpt lat="53.181286" lon="9.959938">
        <ele>85.738022</ele>
        <time>2019-08-28T15:01:45.997Z</time>
      </trkpt>
      <trkpt lat="53.181318" lon="9.960088">
        <ele>85.520581</ele>
        <time>2019-08-28T15:01:51.997Z</time>
      </trkpt>
      <trkpt lat="53.181369" lon="9.960216">
        <ele>85.310667</ele>
        <time>2019-08-28T15:01:59.997Z</time>
      </trkpt>
      <trkpt lat="53.181428" lon="9.960332">
        <ele>85.102886</ele>
        <time>2019-08-28T15:02:06.997Z</time>
      </trkpt>
      <trkpt lat="53.181489" lon="9.960470">
        <ele>84.868706</ele>
        <time>2019-08-28T15:02:13.997Z</time>
      </trkpt>
      <trkpt lat="53.181560" lon="9.960579">
        <ele>84.648850</ele>
        <time>2019-08-28T15:02:20.997Z</time>
      </trkpt>
      <trkpt lat="53.181621" lon="9.960707">
        <ele>84.425513</ele>
        <time>2019-08-28T15:02:28.996Z</time>
      </trkpt>
      <trkpt lat="53.181669" lon="9.960840">
        <ele>84.213488</ele>
        <time>2019-08-28T15:02:36.996Z</time>
      </trkpt>
      <trkpt lat="53.181716" lon="9.960993">
        <ele>83.978691</ele>
        <time>2019-08-28T15:02:44.998Z</time>
      </trkpt>
      <trkpt lat="53.181769" lon="9.961138">
        <ele>83.746746</ele>
        <time>2019-08-28T15:02:52.998Z</time>
      </trkpt>
      <trkpt lat="53.181835" lon="9.961256">
        <ele>83.526317</ele>
        <time>2019-08-28T15:02:59.998Z</time>
      </trkpt>
      <trkpt lat="53.181928" lon="9.961308">
        <ele>83.302805</ele>
        <time>2019-08-28T15:03:07.998Z</time>
      </trkpt>
      <trkpt lat="53.182019" lon="9.961327">
        <ele>83.093816</ele>
        <time>2019-08-28T15:03:14.998Z</time>
      </trkpt>
      <trkpt lat="53.182082" lon="9.961444">
        <ele>82.879012</ele>
        <time>2019-08-28T15:03:22.998Z</time>
      </trkpt>
      <trkpt lat="53.182154" lon="9.961567">
        <ele>82.655695</ele>
        <time>2019-08-28T15:03:29.998Z</time>
      </trkpt>
      <trkpt lat="53.182252" lon="9.961628">
        <ele>82.449898</ele>
        <time>2019-08-28T15:03:39.998Z</time>
      </trkpt>
      <trkpt lat="53.182304" lon="9.961763">
        <ele>82.260676</ele>
        <time>2019-08-28T15:03:47.998Z</time>
      </trkpt>
      <trkpt lat="53.182359" lon="9.961908">
        <ele>82.058339</ele>
        <time>2019-08-28T15:03:56.998Z</time>
      </trkpt>
      <trkpt lat="53.182406" lon="9.962053">
        <ele>81.863965</ele>
        <time>2019-08-28T15:04:05.998Z</time>
      </trkpt>
      <trkpt lat="53.182472" lon="9.962343">
        <ele>81.498203</ele>
        <time>2019-08-28T15:04:36.998Z</time>
      </trkpt>
      <trkpt lat="53.182540" lon="9.962455">
        <ele>81.310215</ele>
        <time>2019-08-28T15:04:44.998Z</time>
      </trkpt>
      <trkpt lat="53.182617" lon="9.962547">
        <ele>81.123884</ele>
        <time>2019-08-28T15:04:52.998Z</time>
      </trkpt>
      <trkpt lat="53.182685" lon="9.962662">
        <ele>80.933395</ele>
        <time>2019-08-28T15:05:00.998Z</time>
      </trkpt>
      <trkpt lat="53.182733" lon="9.962806">
        <ele>80.739110</ele>
        <time>2019-08-28T15:05:08.998Z</time>
      </trkpt>
      <trkpt lat="53.182762" lon="9.962958">
        <ele>80.551027</ele>
        <time>2019-08-28T15:05:15.998Z</time>
      </trkpt>
      <trkpt lat="53.182812" lon="9.963102">
        <ele>80.354799</ele>
        <time>2019-08-28T15:05:24.998Z</time>
      </trkpt>
      <trkpt lat="53.182846" lon="9.963250">
        <ele>80.167913</ele>
        <time>2019-08-28T15:05:30.998Z</time>
      </trkpt>
      <trkpt lat="53.182886" lon="9.963393">
        <ele>79.981842</ele>
        <time>2019-08-28T15:05:38.998Z</time>
      </trkpt>
      <trkpt lat="53.182958" lon="9.963515">
        <ele>79.779951</ele>
        <time>2019-08-28T15:05:47.998Z</time>
      </trkpt>
      <trkpt lat="53.183009" lon="9.963662">
        <ele>79.579676</ele>
        <time>2019-08-28T15:05:54.998Z</time>
      </trkpt>
      <trkpt lat="53.183042" lon="9.963802">
        <ele>79.402296</ele>
        <time>2019-08-28T15:06:01.998Z</time>
      </trkpt>
      <trkpt lat="53.183048" lon="9.963959">
        <ele>79.216807</ele>
        <time>2019-08-28T15:06:09.998Z</time>
      </trkpt>
      <trkpt lat="53.183058" lon="9.964115">
        <ele>79.334900</ele>
        <time>2019-08-28T15:06:15.998Z</time>
      </trkpt>
      <trkpt lat="53.183078" lon="9.964269">
        <ele>79.506358</ele>
        <time>2019-08-28T15:06:20.997Z</time>
      </trkpt>
      <trkpt lat="53.183115" lon="9.964408">
        <ele>79.671854</ele>
        <time>2019-08-28T15:06:27.997Z</time>
      </trkpt>
      <trkpt lat="53.183134" lon="9.964564">
        <ele>79.845069</ele>
        <time>2019-08-28T15:06:35.997Z</time>
      </trkpt>
      <trkpt lat="53.183171" lon="9.964717">
        <ele>80.024593</ele>
        <time>2019-08-28T15:06:41.997Z</time>
      </trkpt>
      <trkpt lat="53.183209" lon="9.964866">
        <ele>80.200792</ele>
        <time>2019-08-28T15:06:50.997Z</time>
      </trkpt>
      <trkpt lat="53.183281" lon="9.964984">
        <ele>80.384032</ele>
        <time>2019-08-28T15:06:57.997Z</time>
      </trkpt>
      <trkpt lat="53.183326" lon="9.965118">
        <ele>80.551171</ele>
        <time>2019-08-28T15:07:06.997Z</time>
      </trkpt>
      <trkpt lat="53.183390" lon="9.965226">
        <ele>80.716440</ele>
        <time>2019-08-28T15:07:14.997Z</time>
      </trkpt>
      <trkpt lat="53.183436" lon="9.965378">
        <ele>80.901724</ele>
        <time>2019-08-28T15:07:22.997Z</time>
      </trkpt>
      <trkpt lat="53.183454" lon="9.965545">
        <ele>81.086352</ele>
        <time>2019-08-28T15:07:29.997Z</time>
      </trkpt>
      <trkpt lat="53.183472" lon="9.965700">
        <ele>81.258145</ele>
        <time>2019-08-28T15:07:36.997Z</time>
      </trkpt>
      <trkpt lat="53.183524" lon="9.965824">
        <ele>81.422824</ele>
        <time>2019-08-28T15:07:43.997Z</time>
      </trkpt>
      <trkpt lat="53.183583" lon="9.965946">
        <ele>81.593407</ele>
        <time>2019-08-28T15:07:51.997Z</time>
      </trkpt>
      <trkpt lat="53.183648" lon="9.966058">
        <ele>81.763056</ele>
        <time>2019-08-28T15:07:59.997Z</time>
      </trkpt>
      <trkpt lat="53.183709" lon="9.966185">
        <ele>81.940154</ele>
        <time>2019-08-28T15:08:07.997Z</time>
      </trkpt>
      <trkpt lat="53.183789" lon="9.966296">
        <ele>82.129066</ele>
        <time>2019-08-28T15:08:15.997Z</time>
      </trkpt>
      <trkpt lat="53.183881" lon="9.966358">
        <ele>82.309222</ele>
        <time>2019-08-28T15:08:24.998Z</time>
      </trkpt>
      <trkpt lat="53.183976" lon="9.966379">
        <ele>82.482403</ele>
        <time>2019-08-28T15:08:33.998Z</time>
      </trkpt>
      <trkpt lat="53.184069" lon="9.966425">
        <ele>82.653342</ele>
        <time>2019-08-28T15:08:41.998Z</time>
      </trkpt>
      <trkpt lat="53.184153" lon="9.966501">
        <ele>82.821730</ele>
        <time>2019-08-28T15:08:50.998Z</time>
      </trkpt>
      <trkpt lat="53.184225" lon="9.966606">
        <ele>82.990236</ele>
        <time>2019-08-28T15:08:58.998Z</time>
      </trkpt>
      <trkpt lat="53.184306" lon="9.966689">
        <ele>83.157742</ele>
        <time>2019-08-28T15:09:05.998Z</time>
      </trkpt>
      <trkpt lat="53.184366" lon="9.966827">
        <ele>83.337792</ele>
        <time>2019-08-28T15:09:13.998Z</time>
      </trkpt>
      <trkpt lat="53.184445" lon="9.966921">
        <ele>83.508776</ele>
        <time>2019-08-28T15:09:19.998Z</time>
      </trkpt>
      <trkpt lat="53.184515" lon="9.967040">
        <ele>83.684871</ele>
        <time>2019-08-28T15:09:27.998Z</time>
      </trkpt>
      <trkpt lat="53.184600" lon="9.967135">
        <ele>83.865155</ele>
        <time>2019-08-28T15:09:35.998Z</time>
      </trkpt>
      <trkpt lat="53.184658" lon="9.967252">
        <ele>84.025508</ele>
        <time>2019-08-28T15:09:44.998Z</time>
      </trkpt>
      <trkpt lat="53.184730" lon="9.967367">
        <ele>84.201142</ele>
        <time>2019-08-28T15:09:54.999Z</time>
      </trkpt>
      <trkpt lat="53.184781" lon="9.967496">
        <ele>84.364345</ele>
        <time>2019-08-28T15:10:14.999Z</time>
      </trkpt>
      <trkpt lat="53.184871" lon="9.967539">
        <ele>84.529321</ele>
        <time>2019-08-28T15:10:34.999Z</time>
      </trkpt>
      <trkpt lat="53.184960" lon="9.967476">
        <ele>84.699690</ele>
        <time>2019-08-28T15:10:59.999Z</time>
      </trkpt>
      <trkpt lat="53.185041" lon="9.967610">
        <ele>84.900686</ele>
        <time>2019-08-28T15:11:06.999Z</time>
      </trkpt>
      <trkpt lat="53.185047" lon="9.967774">
        <ele>85.074194</ele>
        <time>2019-08-28T15:11:17.999Z</time>
      </trkpt>
      <trkpt lat="53.185033" lon="9.967928">
        <ele>85.238680</ele>
        <time>2019-08-28T15:11:32.999Z</time>
      </trkpt>
      <trkpt lat="53.185096" lon="9.968039">
        <ele>85.400129</ele>
        <time>2019-08-28T15:11:45.999Z</time>
      </trkpt>
      <trkpt lat="53.185155" lon="9.968163">
        <ele>85.567333</ele>
        <time>2019-08-28T15:11:52.999Z</time>
      </trkpt>
      <trkpt lat="53.185226" lon="9.968266">
        <ele>85.621560</ele>
        <time>2019-08-28T15:12:01.999Z</time>
      </trkpt>
      <trkpt lat="53.185317" lon="9.968325">
        <ele>85.616064</ele>
        <time>2019-08-28T15:12:10.999Z</time>
      </trkpt>
      <trkpt lat="53.185406" lon="9.968392">
        <ele>85.610568</ele>
        <time>2019-08-28T15:12:19.999Z</time>
      </trkpt>
      <trkpt lat="53.185483" lon="9.968472">
        <ele>85.605462</ele>
        <time>2019-08-28T15:12:27.999Z</time>
      </trkpt>
      <trkpt lat="53.185574" lon="9.968539">
        <ele>85.599863</ele>
        <time>2019-08-28T15:12:33.999Z</time>
      </trkpt>
      <trkpt lat="53.185662" lon="9.968612">
        <ele>85.594332</ele>
        <time>2019-08-28T15:12:41.999Z</time>
      </trkpt>
      <trkpt lat="53.185752" lon="9.968663">
        <ele>85.588981</ele>
        <time>2019-08-28T15:12:48.999Z</time>
      </trkpt>
      <trkpt lat="53.185816" lon="9.968771">
        <ele>85.583858</ele>
        <time>2019-08-28T15:12:54.999Z</time>
      </trkpt>
      <trkpt lat="53.185888" lon="9.968892">
        <ele>85.578106</ele>
        <time>2019-08-28T15:13:08.999Z</time>
      </trkpt>
      <trkpt lat="53.185971" lon="9.968956">
        <ele>85.572959</ele>
        <time>2019-08-28T15:13:15.999Z</time>
      </trkpt>
      <trkpt lat="53.186042" lon="9.969070">
        <ele>85.567413</ele>
        <time>2019-08-28T15:13:23.999Z</time>
      </trkpt>
      <trkpt lat="53.186136" lon="9.969131">
        <ele>85.561735</ele>
        <time>2019-08-28T15:13:30.999Z</time>
      </trkpt>
      <trkpt lat="53.186226" lon="9.969172">
        <ele>85.556484</ele>
        <time>2019-08-28T15:13:36.998Z</time>
      </trkpt>
      <trkpt lat="53.186309" lon="9.969233">
        <ele>85.551379</ele>
        <time>2019-08-28T15:13:42.998Z</time>
      </trkpt>
      <trkpt lat="53.186393" lon="9.969324">
        <ele>85.545741</ele>
        <time>2019-08-28T15:13:48.998Z</time>
      </trkpt>
      <trkpt lat="53.186478" lon="9.969388">
        <ele>85.540492</ele>
        <time>2019-08-28T15:13:55.998Z</time>
      </trkpt>
      <trkpt lat="53.186564" lon="9.969451">
        <ele>85.535205</ele>
        <time>2019-08-28T15:14:01.998Z</time>
      </trkpt>
      <trkpt lat="53.186640" lon="9.969545">
        <ele>85.529880</ele>
        <time>2019-08-28T15:14:08.998Z</time>
      </trkpt>
      <trkpt lat="53.186729" lon="9.969608">
        <ele>85.524438</ele>
        <time>2019-08-28T15:14:17.998Z</time>
      </trkpt>
      <trkpt lat="53.186809" lon="9.969692">
        <ele>85.346137</ele>
        <time>2019-08-28T15:14:25.998Z</time>
      </trkpt>
      <trkpt lat="53.186887" lon="9.969796">
        <ele>85.131330</ele>
        <time>2019-08-28T15:14:34.998Z</time>
      </trkpt>
      <trkpt lat="53.186951" lon="9.969910">
        <ele>84.929928</ele>
        <time>2019-08-28T15:14:42.998Z</time>
      </trkpt>
      <trkpt lat="53.187004" lon="9.970038">
        <ele>84.729339</ele>
        <time>2019-08-28T15:14:53.998Z</time>
      </trkpt>
      <trkpt lat="53.187077" lon="9.970138">
        <ele>84.526138</ele>
        <time>2019-08-28T15:15:03.998Z</time>
      </trkpt>
      <trkpt lat="53.187156" lon="9.970229">
        <ele>84.319606</ele>
        <time>2019-08-28T15:15:09.998Z</time>
      </trkpt>
      <trkpt lat="53.187222" lon="9.970332">
        <ele>84.125188</ele>
        <time>2019-08-28T15:15:18.998Z</time>
      </trkpt>
      <trkpt lat="53.187295" lon="9.970449">
        <ele>83.907422</ele>
        <time>2019-08-28T15:15:24.998Z</time>
      </trkpt>
      <trkpt lat="53.187347" lon="9.970587">
        <ele>83.697254</ele>
        <time>2019-08-28T15:15:32.998Z</time>
      </trkpt>
      <trkpt lat="53.187403" lon="9.970727">
        <ele>83.480241</ele>
        <time>2019-08-28T15:15:40.998Z</time>
      </trkpt>
      <trkpt lat="53.187449" lon="9.970881">
        <ele>83.258400</ele>
        <time>2019-08-28T15:15:46.998Z</time>
      </trkpt>
      <trkpt lat="53.187502" lon="9.971012">
        <ele>83.054619</ele>
        <time>2019-08-28T15:15:52.998Z</time>
      </trkpt>
      <trkpt lat="53.187579" lon="9.971134">
        <ele>82.826177</ele>
        <time>2019-08-28T15:15:58.998Z</time>
      </trkpt>
      <trkpt lat="53.187643" lon="9.971251">
        <ele>82.621938</ele>
        <time>2019-08-28T15:16:04.998Z</time>
      </trkpt>
      <trkpt lat="53.187720" lon="9.971341">
        <ele>82.419676</ele>
        <time>2019-08-28T15:16:11.998Z</time>
      </trkpt>
      <trkpt lat="53.187806" lon="9.971436">
        <ele>82.197779</ele>
        <time>2019-08-28T15:16:20.998Z</time>
      </trkpt>
      <trkpt lat="53.187897" lon="9.971509">
        <ele>81.980542</ele>
        <time>2019-08-28T15:16:28.998Z</time>
      </trkpt>
      <trkpt lat="53.187999" lon="9.971559">
        <ele>81.751810</ele>
        <time>2019-08-28T15:16:34.998Z</time>
      </trkpt>
      <trkpt lat="53.188092" lon="9.971591">
        <ele>81.516058</ele>
        <time>2019-08-28T15:16:40.998Z</time>
      </trkpt>
      <trkpt lat="53.188183" lon="9.971669">
        <ele>81.230863</ele>
        <time>2019-08-28T15:16:47.998Z</time>
      </trkpt>
      <trkpt lat="53.188272" lon="9.971752">
        <ele>80.946636</ele>
        <time>2019-08-28T15:16:57.999Z</time>
      </trkpt>
      <trkpt lat="53.188341" lon="9.971868">
        <ele>80.673600</ele>
        <time>2019-08-28T15:17:04.999Z</time>
      </trkpt>
      <trkpt lat="53.188397" lon="9.972002">
        <ele>80.400697</ele>
        <time>2019-08-28T15:17:14.999Z</time>
      </trkpt>
      <trkpt lat="53.188488" lon="9.972043">
        <ele>80.137923</ele>
        <time>2019-08-28T15:17:24.999Z</time>
      </trkpt>
      <trkpt lat="53.188702" lon="9.972077">
        <ele>79.538631</ele>
        <time>2019-08-28T15:18:19.999Z</time>
      </trkpt>
      <trkpt lat="53.188782" lon="9.972150">
        <ele>79.284446</ele>
        <time>2019-08-28T15:18:27.999Z</time>
      </trkpt>
      <trkpt lat="53.188862" lon="9.972221">
        <ele>79.031846</ele>
        <time>2019-08-28T15:18:36.999Z</time>
      </trkpt>
      <trkpt lat="53.188944" lon="9.972305">
        <ele>78.763617</ele>
        <time>2019-08-28T15:18:42.999Z</time>
      </trkpt>
      <trkpt lat="53.189022" lon="9.972401">
        <ele>78.493433</ele>
        <time>2019-08-28T15:18:48.999Z</time>
      </trkpt>
      <trkpt lat="53.189094" lon="9.972494">
        <ele>78.239617</ele>
        <time>2019-08-28T15:18:54.999Z</time>
      </trkpt>
      <trkpt lat="53.189171" lon="9.972610">
        <ele>77.950436</ele>
        <time>2019-08-28T15:19:02.999Z</time>
      </trkpt>
      <trkpt lat="53.189242" lon="9.972742">
        <ele>77.654134</ele>
        <time>2019-08-28T15:19:11.999Z</time>
      </trkpt>
      <trkpt lat="53.189306" lon="9.972870">
        <ele>77.375658</ele>
        <time>2019-08-28T15:19:20.999Z</time>
      </trkpt>
      <trkpt lat="53.189385" lon="9.972960">
        <ele>77.109002</ele>
        <time>2019-08-28T15:19:28.999Z</time>
      </trkpt>
      <trkpt lat="53.189474" lon="9.973031">
        <ele>76.833998</ele>
        <time>2019-08-28T15:19:39.999Z</time>
      </trkpt>
      <trkpt lat="53.189557" lon="9.973117">
        <ele>76.591229</ele>
        <time>2019-08-28T15:19:45.998Z</time>
      </trkpt>
      <trkpt lat="53.189632" lon="9.973232">
        <ele>76.415130</ele>
        <time>2019-08-28T15:19:52.998Z</time>
      </trkpt>
      <trkpt lat="53.189712" lon="9.973335">
        <ele>76.240430</ele>
        <time>2019-08-28T15:19:59.998Z</time>
      </trkpt>
      <trkpt lat="53.189784" lon="9.973445">
        <ele>76.071655</ele>
        <time>2019-08-28T15:20:06.998Z</time>
      </trkpt>
      <trkpt lat="53.189849" lon="9.973559">
        <ele>75.908623</ele>
        <time>2019-08-28T15:20:13.998Z</time>
      </trkpt>
      <trkpt lat="53.189923" lon="9.973655">
        <ele>75.746566</ele>
        <time>2019-08-28T15:20:21.998Z</time>
      </trkpt>
      <trkpt lat="53.190000" lon="9.973747">
        <ele>75.582829</ele>
        <time>2019-08-28T15:20:28.998Z</time>
      </trkpt>
      <trkpt lat="53.190072" lon="9.973873">
        <ele>75.402448</ele>
        <time>2019-08-28T15:20:36.998Z</time>
      </trkpt>
      <trkpt lat="53.190142" lon="9.974008">
        <ele>75.217490</ele>
        <time>2019-08-28T15:20:43.998Z</time>
      </trkpt>
      <trkpt lat="53.190217" lon="9.974128">
        <ele>75.037848</ele>
        <time>2019-08-28T15:20:48.998Z</time>
      </trkpt>
      <trkpt lat="53.190286" lon="9.974254">
        <ele>74.861007</ele>
        <time>2019-08-28T15:20:54.998Z</time>
      </trkpt>
      <trkpt lat="53.190364" lon="9.974353">
        <ele>74.691573</ele>
        <time>2019-08-28T15:21:00.998Z</time>
      </trkpt>
      <trkpt lat="53.190430" lon="9.974475">
        <ele>74.521288</ele>
        <time>2019-08-28T15:21:07.997Z</time>
      </trkpt>
      <trkpt lat="53.190481" lon="9.974614">
        <ele>74.352433</ele>
        <time>2019-08-28T15:21:16.997Z</time>
      </trkpt>
      <trkpt lat="53.190559" lon="9.974729">
        <ele>74.172481</ele>
        <time>2019-08-28T15:21:23.997Z</time>
      </trkpt>
      <trkpt lat="53.190637" lon="9.974838">
        <ele>73.996583</ele>
        <time>2019-08-28T15:21:32.997Z</time>
      </trkpt>
      <trkpt lat="53.190715" lon="9.974925">
        <ele>73.834373</ele>
        <time>2019-08-28T15:21:39.997Z</time>
      </trkpt>
      <trkpt lat="53.190798" lon="9.975013">
        <ele>73.664354</ele>
        <time>2019-08-28T15:21:46.997Z</time>
      </trkpt>
      <trkpt lat="53.190876" lon="9.975098">
        <ele>73.529594</ele>
        <time>2019-08-28T15:21:53.997Z</time>
      </trkpt>
      <trkpt lat="53.190962" lon="9.975150">
        <ele>73.529594</ele>
        <time>2019-08-28T15:22:01.997Z</time>
      </trkpt>
      <trkpt lat="53.191053" lon="9.975163">
        <ele>73.529594</ele>
        <time>2019-08-28T15:22:12.997Z</time>
      </trkpt>
      <trkpt lat="53.191154" lon="9.975223">
        <ele>73.529594</ele>
        <time>2019-08-28T15:22:21.997Z</time>
      </trkpt>
      <trkpt lat="53.191245" lon="9.975226">
        <ele>73.529594</ele>
        <time>2019-08-28T15:22:28.997Z</time>
      </trkpt>
      <trkpt lat="53.191335" lon="9.975252">
        <ele>73.529594</ele>
        <time>2019-08-28T15:22:37.997Z</time>
      </trkpt>
      <trkpt lat="53.191421" lon="9.975299">
        <ele>73.529594</ele>
        <time>2019-08-28T15:22:43.997Z</time>
      </trkpt>
      <trkpt lat="53.191517" lon="9.975339">
        <ele>73.529594</ele>
        <time>2019-08-28T15:22:51.997Z</time>
      </trkpt>
      <trkpt lat="53.191601" lon="9.975401">
        <ele>73.529594</ele>
        <time>2019-08-28T15:23:02.997Z</time>
      </trkpt>
      <trkpt lat="53.191687" lon="9.975480">
        <ele>73.529594</ele>
        <time>2019-08-28T15:23:09.997Z</time>
      </trkpt>
      <trkpt lat="53.191753" lon="9.975598">
        <ele>73.529594</ele>
        <time>2019-08-28T15:23:18.997Z</time>
      </trkpt>
      <trkpt lat="53.191829" lon="9.975696">
        <ele>73.529594</ele>
        <time>2019-08-28T15:23:26.997Z</time>
      </trkpt>
      <trkpt lat="53.191893" lon="9.975813">
        <ele>73.529594</ele>
        <time>2019-08-28T15:23:31.997Z</time>
      </trkpt>
      <trkpt lat="53.191960" lon="9.975920">
        <ele>73.529594</ele>
        <time>2019-08-28T15:23:41.997Z</time>
      </trkpt>
      <trkpt lat="53.192010" lon="9.976060">
        <ele>73.529594</ele>
        <time>2019-08-28T15:23:52.997Z</time>
      </trkpt>
      <trkpt lat="53.192087" lon="9.976148">
        <ele>73.529594</ele>
        <time>2019-08-28T15:24:02.998Z</time>
      </trkpt>
      <trkpt lat="53.192159" lon="9.976245">
        <ele>73.529594</ele>
        <time>2019-08-28T15:24:09.998Z</time>
      </trkpt>
    </trkseg>
  </trk>
</gpx>